[[{"header":{"parameterUnit":"m.s-1","parameterCategory":1,"la1":30.6,"la2":28.766,"lo1":-90.7593,"lo2":-88.6598,"dy":0.0162,"dx":0.0183,"nx":116,"ny":114,"refTime":"2023-07-17T00:00:00:Z","depth":0,"parameterNumber":2,"parameterNumberName":"U-component_of_WINDS"},"data":[0.0,0.0,0.0,0.0,0.0,0.0,0.0,0.0,0.0,0.0,0.0,0.0,0.0,0.0,0.0,0.0,0.0,0.0,0.0,0.0,0.0,0.0,0.0,0.0,0.0,0.0,0.0,0.0,0.0,0.0,0.0,0.0,0.0,0.0,0.0,0.0,0.0,0.0,0.0,0.0,0.0,0.0,0.0,0.0,0.0,0.0,0.0,0.0,0.0,0.0,0.0,0.0,0.0,0.0,0.0,0.0,0.0,0.0,0.0,0.0,0.0,0.0,0.0,0.0,0.0,0.0,0.0,0.0,0.0,0.0,0.0,0.0,0.0,0.0,0.0,0.0,0.0,0.0,0.0,0.0,0.0,0.0,0.0,0.0,0.0,0.0,0.0,0.0,0.0,0.0,0.0,0.0,0.0,0.0,0.0,0.0,0.0,0.0,0.0,0.0,0.0,0.0,0.0,0.0,0.0,0.0,0.0,0.0,0.0,0.0,0.0,0.0,0.0,0.0,0.0,0.0,0.0,0.0,0.0,0.0,0.0,0.0,0.0,0.0,0.0,0.0,0.0,0.0,0.0,0.0,0.0,0.0,0.0,0.0,0.0,0.0,0.0,0.0,0.0,0.0,0.0,0.0,0.0,0.0,0.0,0.0,0.0,0.0,0.0,0.0,0.0,0.0,0.0,0.0,0.0,0.0,0.0,0.0,0.0,0.0,0.0,0.0,0.0,0.0,0.0,0.0,0.0,0.0,0.0,0.0,0.0,0.0,0.0,0.0,0.0,0.0,0.0,0.0,0.0,0.0,0.0,0.0,0.0,0.0,0.0,0.0,0.0,0.0,0.0,0.0,0.0,0.0,0.0,0.0,0.0,0.0,0.0,0.0,0.0,0.0,0.0,0.0,0.0,0.0,0.0,0.0,0.0,0.0,0.0,0.0,0.0,0.0,0.0,0.0,0.0,0.0,0.0,0.0,0.0,0.0,0.0,0.0,0.0,0.0,0.0,0.0,0.0,0.0,0.0,0.0,0.0,0.0,0.0,0.0,0.0,0.0,0.0,0.0,0.0,0.0,0.0,0.0,0.0,0.0,0.0,0.0,0.0,0.0,0.0,0.0,0.0,0.0,0.0,0.0,0.0,0.0,0.0,0.0,0.0,0.0,0.0,0.0,0.0,0.0,0.0,0.0,0.0,0.0,0.0,0.0,0.0,0.0,0.0,0.0,0.0,0.0,0.0,0.0,0.0,0.0,0.0,0.0,0.0,0.0,0.0,0.0,0.0,0.0,0.0,0.0,0.0,0.0,0.0,0.0,0.0,0.0,0.0,0.0,0.0,0.0,0.0,0.0,0.0,0.0,0.0,0.0,0.0,0.0,0.0,0.0,0.0,0.0,0.0,0.0,0.0,0.0,0.0,0.0,0.0,0.0,0.0,0.0,0.0,0.0,0.0,0.0,0.0,0.0,0.0,0.0,0.0,0.0,0.0,0.0,0.0,0.0,0.0,0.0,0.0,0.0,0.0,0.0,0.0,0.0,0.0,0.0,0.0,0.0,0.0,0.0,0.0,0.0,0.0,0.0,0.0,0.0,0.0,0.0,0.0,0.0,0.0,0.0,0.0,0.0,0.0,0.0,0.0,0.0,0.0,0.0,0.0,0.0,0.0,0.0,0.0,0.0,0.0,0.0,0.0,0.0,0.0,0.0,0.0,0.0,0.0,0.0,0.0,0.0,0.0,0.0,0.0,0.0,0.0,0.0,0.0,0.0,0.0,0.0,0.0,0.0,0.0,0.0,0.0,0.0,0.0,0.0,0.0,0.0,0.0,0.0,0.0,0.0,0.0,0.0,0.0,0.0,0.0,0.0,0.0,0.0,0.0,0.0,0.0,0.0,0.0,0.0,0.0,0.0,0.0,0.0,0.0,0.0,0.0,0.0,0.0,0.0,0.0,0.0,0.0,0.0,0.0,0.0,0.0,0.0,0.0,0.0,0.0,0.0,0.0,0.0,0.0,0.0,0.0,0.0,0.0,0.0,0.0,0.0,0.0,0.0,0.0,0.0,0.0,0.0,0.0,0.0,0.0,0.0,0.0,0.0,0.0,0.0,0.0,0.0,0.0,0.0,0.0,0.0,0.0,0.0,0.0,0.0,0.0,0.0,0.0,0.0,0.0,0.0,0.0,0.0,0.0,0.0,0.0,0.0,0.0,0.0,0.0,0.0,0.0,0.0,0.0,0.0,0.0,0.0,0.0,0.0,0.0,0.0,0.0,0.0,0.0,0.0,0.0,0.0,0.0,0.0,0.0,0.0,0.0,0.0,0.0,0.0,0.0,0.0,0.0,0.0,0.0,0.0,0.0,0.0,0.0,0.0,0.0,0.0,0.0,0.0,0.0,0.0,0.0,0.0,0.0,0.0,0.0,0.0,0.0,0.0,0.0,0.0,0.0,0.0,0.0,0.0,0.0,0.0,0.0,0.0,0.0,0.0,0.0,0.0,0.0,0.0,0.0,0.0,0.0,0.0,0.0,0.0,0.0,0.0,0.0,0.0,0.0,0.0,0.0,0.0,0.0,0.0,0.0,0.0,0.0,0.0,0.0,0.0,0.0,0.0,0.0,0.0,0.0,0.0,0.0,0.0,0.0,0.0,0.0,0.0,0.0,0.0,0.0,0.0,0.0,0.0,0.0,0.0,0.0,0.0,0.0,0.0,0.0,0.0,0.0,0.0,0.0,0.0,0.0,0.0,0.0,0.0,0.0,0.0,0.0,0.0,0.0,0.0,0.0,0.0,0.0,0.0,0.0,0.0,0.0,0.0,0.0,0.0,0.0,0.0,0.0,0.0,0.0,0.0,0.0,0.0,0.0,0.0,0.0,0.0,0.0,0.0,0.0,0.0,0.0,0.0,0.0,0.0,0.0,0.0,0.0,0.0,0.0,0.0,0.0,0.0,0.0,0.0,0.0,0.0,0.0,0.0,0.0,0.0,0.0,0.0,0.0,0.0,0.0,0.0,0.0,0.0,0.0,0.0,0.0,0.0,0.0,0.0,0.0,0.0,0.0,0.0,0.0,0.0,0.0,0.0,0.0,0.0,0.0,0.0,0.0,0.0,0.0,0.0,0.0,0.0,0.0,0.0,0.0,0.0,0.0,0.0,0.0,0.0,0.0,0.0,0.0,0.0,0.0,0.0,0.0,0.0,0.0,0.0,0.0,0.0,0.0,0.0,0.0,0.0,0.0,0.0,0.0,0.0,0.0,0.0,0.0,0.0,0.0,0.0,0.0,0.0,0.0,0.0,0.0,0.0,0.0,0.0,0.0,0.0,0.0,0.0,0.0,0.0,0.0,0.0,0.0,0.0,0.0,0.0,0.0,0.0,0.0,0.0,0.0,0.0,0.0,0.0,0.0,0.0,0.0,0.0,0.0,0.0,0.0,0.0,0.0,0.0,0.0,0.0,0.0,0.0,0.0,0.0,0.0,0.0,0.0,0.0,0.0,0.0,0.0,0.0,0.0,0.0,0.0,0.0,0.0,0.0,0.0,0.0,0.0,0.0,0.0,0.0,0.0,0.0,0.0,0.0,0.0,0.0,0.0,0.0,0.0,0.0,0.0,0.0,0.0,0.0,0.0,0.0,0.0,0.0,0.0,0.0,0.0,0.0,0.0,0.0,0.0,0.0,0.0,0.0,0.0,0.0,0.0,0.0,0.0,0.0,0.0,0.0,0.0,0.0,0.0,0.0,0.0,0.0,0.0,0.0,0.0,0.0,0.0,0.0,0.0,0.0,0.0,0.0,0.0,0.0,0.0,0.0,0.0,0.0,0.0,0.0,0.0,0.0,0.0,0.0,0.0,0.0,0.0,0.0,0.0,0.0,0.0,0.0,0.0,0.0,0.0,0.0,0.0,0.0,0.0,0.0,0.0,0.0,0.0,0.0,0.0,0.0,0.0,0.0,0.0,0.0,0.0,0.0,0.0,0.0,0.0,0.0,0.0,0.0,0.0,0.0,0.0,0.0,0.0,0.0,0.0,0.0,0.0,0.0,0.0,0.0,0.0,0.0,0.0,0.0,0.0,0.0,0.0,0.0,0.0,0.0,0.0,0.0,0.0,0.0,0.0,0.0,0.0,0.0,0.0,0.0,0.0,0.0,0.0,0.0,0.0,0.0,0.0,0.0,0.0,0.0,0.0,0.0,0.0,0.0,0.0,0.0,0.0,0.0,0.0,0.0,0.0,0.0,0.0,0.0,0.0,0.0,0.0,0.0,0.0,0.0,0.0,0.0,0.0,0.0,0.0,0.0,0.0,0.0,0.0,0.0,0.0,0.0,0.0,0.0,0.0,0.0,0.0,0.0,0.0,0.0,0.0,0.0,0.0,0.0,0.0,0.0,0.0,0.0,0.0,0.0,0.0,0.0,0.0,0.0,0.0,0.0,0.0,0.0,0.0,0.0,0.0,0.0,0.0,0.0,0.0,0.0,0.0,0.0,0.0,0.0,0.0,0.0,0.0,0.0,0.0,0.0,0.0,0.0,0.0,0.0,0.0,0.0,0.0,0.0,0.0,0.0,0.0,0.0,0.0,0.0,0.0,0.0,0.0,0.0,0.0,0.0,0.0,0.0,0.0,0.0,0.0,0.0,0.0,0.0,0.0,0.0,0.0,0.0,0.0,0.0,0.0,0.0,0.0,0.0,0.0,0.0,0.0,0.0,0.0,0.0,0.0,0.0,0.0,0.0,0.0,0.0,0.0,0.0,0.0,0.0,0.0,0.0,0.0,0.0,0.0,0.0,0.0,0.0,0.0,0.0,0.0,0.0,0.0,0.0,0.0,0.0,0.0,0.0,0.0,0.0,0.0,0.0,0.0,0.0,0.0,0.0,0.0,0.0,0.0,0.0,0.0,0.0,0.0,0.0,0.0,0.0,0.0,0.0,0.0,0.0,0.0,0.0,0.0,0.0,0.0,0.0,0.0,0.0,0.0,0.0,0.0,0.0,0.0,0.0,0.0,0.0,0.0,0.0,0.0,0.0,0.0,0.0,0.0,0.0,0.0,0.0,0.0,0.0,0.0,0.0,0.0,0.0,0.0,0.0,0.0,0.0,0.0,0.0,0.0,0.0,0.0,0.0,0.0,0.0,0.0,0.0,0.0,0.0,0.0,0.0,0.0,0.0,0.0,0.0,0.0,0.0,0.0,0.0,0.0,0.0,0.0,0.0,0.0,0.0,0.0,0.0,0.0,0.0,0.0,0.0,0.0,0.0,0.0,0.0,0.0,0.0,0.0,0.0,0.0,0.0,0.0,0.0,0.0,0.0,0.0,0.0,0.0,0.0,0.0,0.0,0.0,0.0,0.0,0.0,0.0,0.0,0.0,0.0,0.0,0.0,0.0,0.0,0.0,0.0,0.0,0.0,0.0,0.0,0.0,0.0,0.0,0.0,0.0,0.0,0.0,0.0,0.0,0.0,0.0,0.0,0.0,0.0,0.0,0.0,0.0,0.0,0.0,0.0,0.0,0.0,0.0,0.0,0.0,0.0,0.0,0.0,0.0,0.0,0.0,0.0,0.0,0.0,0.0,0.0,0.0,0.0,0.0,0.0,0.0,0.0,0.0,0.0,0.0,0.0,0.0,0.0,0.0,0.0,0.0,0.0,0.0,0.0,0.0,0.0,0.0,0.0,0.0,0.0,0.0,0.0,0.0,0.0,0.0,0.0,0.0,0.0,0.0,0.0,0.0,0.0,0.0,0.0,0.0,0.0,0.0,0.0,0.0,0.0,0.0,0.0,0.0,0.0,0.0,0.0,0.0,0.0,0.0,0.0,0.0,0.0,0.0,0.0,0.0,0.0,0.0,0.0,0.0,0.0,0.0,0.0,0.0,0.0,0.0,0.0,0.0,0.0,0.0,0.0,0.0,0.0,0.0,0.0,0.0,0.0,0.0,0.0,0.0,0.0,0.0,0.0,0.0,0.0,0.0,0.0,0.0,0.0,0.0,0.0,0.0,0.0,0.0,0.0,0.0,0.0,0.0,0.0,0.0,0.0,0.0,0.0,0.0,0.0,0.0,0.0,0.0,0.0,0.0,0.0,0.0,0.0,0.0,0.0,0.0,0.0,0.0,0.0,0.0,0.0,0.0,0.0,-1.7433,0.0,0.0,0.0,0.0,0.0,0.0,0.0,0.0,0.0,0.0,0.0,0.0,0.0,0.0,0.0,0.0,0.0,0.0,0.0,0.0,0.0,0.0,0.0,0.0,0.0,0.0,0.0,0.0,0.0,0.0,0.0,0.0,0.0,0.0,0.0,0.0,0.0,0.0,0.0,0.0,0.0,0.0,0.0,0.0,0.0,0.0,0.0,0.0,0.0,0.0,0.0,0.0,0.0,0.0,0.0,0.0,0.0,0.0,0.0,0.0,0.0,0.0,0.0,0.0,0.0,0.0,0.0,0.0,0.0,0.0,0.0,0.0,0.0,0.0,0.0,0.0,0.0,0.0,0.0,0.0,0.0,0.0,0.0,0.0,0.0,0.0,0.0,0.0,0.0,0.0,0.0,0.0,0.0,0.0,0.0,0.0,0.0,0.0,0.0,0.0,0.0,0.0,0.0,0.0,0.0,0.0,0.0,0.0,0.0,0.0,0.0,0.0,0.0,0.0,0.0,0.0,-1.8935,0.0,0.0,0.0,0.0,0.0,0.0,0.0,0.0,0.0,0.0,0.0,0.0,0.0,0.0,0.0,0.0,0.0,0.0,0.0,0.0,0.0,0.0,0.0,0.0,0.0,0.0,0.0,0.0,0.0,0.0,0.0,0.0,0.0,0.0,0.0,0.0,0.0,0.0,0.0,0.0,0.0,0.0,0.0,0.0,0.0,0.0,0.0,0.0,0.0,0.0,0.0,0.0,0.0,0.0,0.0,0.0,0.0,0.0,0.0,0.0,0.0,0.0,0.0,0.0,0.0,0.0,0.0,0.0,0.0,0.0,0.0,0.0,0.0,0.0,0.0,0.0,0.0,0.0,0.0,0.0,0.0,0.0,0.0,0.0,0.0,0.0,0.0,0.0,0.0,0.0,0.0,0.0,0.0,0.0,0.0,0.0,0.0,0.0,0.0,0.0,0.0,0.0,0.0,0.0,0.0,0.0,0.0,0.0,-2.2582,-2.3159,-2.3701,-2.465,-2.5096,-2.5095,-2.3015,-2.1673,-2.0897,0.0,0.0,0.0,0.0,0.0,0.0,0.0,0.0,0.0,0.0,0.0,0.0,0.0,0.0,0.0,0.0,0.0,0.0,0.0,0.0,0.0,0.0,0.0,0.0,0.0,0.0,0.0,0.0,0.0,0.0,0.0,0.0,0.0,0.0,0.0,0.0,0.0,0.0,0.0,-2.1066,-2.1694,-2.2054,-2.2155,0.0,0.0,0.0,0.0,0.0,0.0,0.0,0.0,0.0,0.0,0.0,0.0,0.0,0.0,0.0,0.0,0.0,0.0,0.0,0.0,0.0,0.0,0.0,0.0,0.0,0.0,0.0,0.0,0.0,0.0,0.0,0.0,0.0,0.0,0.0,0.0,0.0,0.0,0.0,0.0,0.0,0.0,0.0,0.0,-1.1853,-1.2528,0.0,0.0,0.0,0.0,0.0,0.0,0.0,0.0,0.0,0.0,0.0,0.0,0.0,-2.1163,-2.1765,-2.2782,-2.3532,-2.4088,-2.5107,-2.5877,-2.6393,-2.7031,-2.751,-2.7957,-2.7621,0.0,-2.4147,-2.3685,0.0,0.0,0.0,0.0,0.0,0.0,0.0,0.0,0.0,0.0,0.0,0.0,0.0,0.0,0.0,0.0,0.0,0.0,0.0,0.0,0.0,0.0,0.0,0.0,0.0,0.0,0.0,0.0,0.0,0.0,0.0,0.0,0.0,0.0,0.0,0.0,-2.0465,-2.1794,-2.2912,-2.3766,-2.4293,-2.4469,-2.3489,-2.2372,-2.1154,-2.0376,0.0,0.0,0.0,0.0,0.0,0.0,0.0,0.0,0.0,0.0,0.0,0.0,0.0,0.0,0.0,0.0,0.0,0.0,0.0,0.0,0.0,0.0,0.0,0.0,0.0,0.0,0.0,0.0,0.0,0.0,0.0,0.0,0.0,0.0,0.0,0.0,0.0,0.0,0.0,-1.2034,-1.3318,-1.473,-1.556,-1.6353,0.0,0.0,0.0,0.0,0.0,0.0,0.0,0.0,0.0,-2.1687,-2.2931,-2.4001,-2.482,-2.5612,-2.625,-2.6779,-2.7536,-2.8017,-2.8282,-2.8811,-2.9184,-2.94,-2.94,-2.8779,-2.7664,-2.6227,-2.5187,-2.4386,0.0,0.0,0.0,0.0,-2.2646,-2.2677,0.0,0.0,0.0,0.0,0.0,0.0,0.0,0.0,0.0,0.0,0.0,0.0,0.0,0.0,0.0,-1.8319,0.0,0.0,0.0,0.0,0.0,0.0,0.0,0.0,0.0,0.0,0.0,0.0,-2.2347,-2.3527,-2.4657,-2.5586,-2.6101,-2.6239,-2.6239,-2.5084,-2.31,-2.2422,-2.1481,0.0,0.0,0.0,0.0,0.0,0.0,0.0,0.0,0.0,0.0,0.0,0.0,0.0,0.0,0.0,0.0,0.0,0.0,0.0,0.0,0.0,0.0,0.0,0.0,0.0,0.0,0.0,0.0,0.0,0.0,0.0,0.0,0.0,0.0,0.0,0.0,0.0,0.0,-1.3703,-1.4959,-1.6787,-1.7724,-1.8602,0.0,0.0,0.0,0.0,0.0,0.0,-2.2149,-2.2967,-2.3773,-2.4554,-2.5588,-2.6586,-2.7486,-2.8065,-2.8595,-2.9124,-2.9797,-3.0122,-3.0134,-3.0663,-3.0903,-3.0903,-3.0903,-3.0747,-3.0338,-2.8354,-2.7018,-2.6274,-2.5709,-2.554,-2.5492,-2.5247,-2.5052,-2.4978,0.0,0.0,0.0,0.0,0.0,0.0,0.0,0.0,0.0,0.0,0.0,0.0,0.0,0.0,-1.9117,-2.0251,-2.0636,-2.0609,0.0,0.0,0.0,0.0,0.0,0.0,0.0,0.0,0.0,-2.2234,-2.386,-2.5259,-2.6386,-2.6964,-2.7482,-2.7984,-2.7984,-2.703,-2.536,-2.4318,-2.3226,-2.2083,0.0,0.0,0.0,0.0,0.0,0.0,0.0,0.0,0.0,0.0,0.0,0.0,0.0,0.0,0.0,0.0,0.0,0.0,0.0,0.0,0.0,0.0,0.0,0.0,0.0,0.0,0.0,0.0,0.0,0.0,0.0,0.0,0.0,0.0,0.0,0.0,0.0,0.0,0.0,-1.7989,-1.9504,0.0,0.0,0.0,0.0,-2.2806,-2.3312,-2.383,-2.4338,-2.5805,-2.6681,-2.6729,-2.7801,-2.8619,-2.9172,-2.9701,-3.0242,-3.0771,-3.1829,-3.2334,-3.2358,-3.2887,-3.3128,-3.3128,-3.3128,-3.2539,-3.15,-2.9845,-2.9148,-2.9051,-2.8522,-2.8306,-2.8306,-2.8282,-2.7957,-2.7524,0.0,0.0,0.0,0.0,0.0,0.0,0.0,0.0,0.0,0.0,0.0,0.0,0.0,-1.8755,-2.032,-2.1019,-2.1818,-2.2175,-2.1885,0.0,0.0,0.0,0.0,0.0,0.0,0.0,-2.3259,-2.4418,-2.5398,-2.644,-2.7532,-2.8084,-2.8448,-2.8599,-2.8599,-2.8261,-2.7634,-2.6578,-2.5272,-2.3866,-2.3113,-2.1807,0.0,0.0,0.0,0.0,0.0,0.0,0.0,0.0,0.0,0.0,0.0,0.0,0.0,0.0,0.0,0.0,0.0,0.0,0.0,0.0,0.0,0.0,0.0,0.0,0.0,0.0,0.0,0.0,0.0,0.0,0.0,0.0,0.0,0.0,0.0,0.0,0.0,-2.0093,-2.168,0.0,0.0,-2.3893,-2.4566,-2.5421,-2.5697,-2.6178,-2.7043,-2.7957,-2.8607,-2.8955,-2.9989,-3.0807,-3.1348,-3.1877,-3.225,-3.243,-3.2582,-3.2773,-3.302,-3.3423,-3.3508,-3.3284,-3.3284,-3.3068,-3.2671,-3.2106,-3.1048,-2.9785,-2.9593,-2.9532,-2.9532,-2.9532,-2.9412,-2.9244,0.0,0.0,0.0,0.0,0.0,0.0,0.0,0.0,0.0,0.0,0.0,-1.5671,-1.7592,-1.9886,-2.1571,-2.2264,-2.311,-2.346,-2.3137,0.0,0.0,0.0,0.0,0.0,0.0,-2.3808,-2.4957,-2.5988,-2.6864,-2.777,-2.8687,-2.9239,-2.9552,-2.9754,-2.9754,-2.9754,-2.9704,-2.8787,-2.7344,-2.5586,-2.4833,-2.3766,-2.241,0.0,0.0,0.0,0.0,0.0,0.0,0.0,0.0,0.0,0.0,0.0,0.0,0.0,0.0,0.0,0.0,0.0,0.0,0.0,0.0,0.0,0.0,0.0,0.0,0.0,0.0,0.0,0.0,0.0,0.0,0.0,0.0,0.0,0.0,0.0,-2.067,-2.227,-2.3869,-2.5035,-2.5517,-2.6081,-2.6755,-2.7618,-2.769,-2.8198,-2.9256,-2.9809,-3.035,-3.0879,-3.1757,-3.2394,-3.2767,-3.3191,-3.3408,-3.3408,-3.3256,-3.3292,-3.3577,-3.385,-3.3885,-3.3659,-3.3754,-3.3705,-3.3549,-3.3549,-3.2611,-3.1144,-3.0963,-3.0903,-3.0879,-3.0687,-3.0549,-3.0326,0.0,0.0,0.0,0.0,0.0,0.0,0.0,0.0,0.0,0.0,-1.4497,-1.6441,-1.8728,-2.1064,-2.292,-2.3987,-2.4513,-2.4508,-2.3778,-2.3612,0.0,0.0,0.0,0.0,-2.3981,-2.5409,-2.636,-2.6768,-2.8233,-2.9252,-2.9829,-3.0382,-3.0909,-3.1386,-3.1386,-3.1386,-3.1361,-3.0859,-2.9377,-2.7293,-2.6138,-2.536,-2.4632,0.0,0.0,0.0,0.0,0.0,0.0,0.0,0.0,0.0,0.0,0.0,0.0,0.0,0.0,0.0,0.0,0.0,0.0,0.0,0.0,0.0,0.0,0.0,0.0,0.0,0.0,0.0,0.0,0.0,0.0,0.0,0.0,0.0,-1.9095,-2.0935,-2.2859,-2.4376,-2.5985,-2.7174,-2.7678,-2.8246,-2.8787,-2.9328,-2.9364,-2.9833,-3.0946,-3.1476,-3.1973,-3.2527,-3.3044,-3.332,-3.3332,-3.3624,-3.3743,-3.3743,-3.4011,-3.4111,-3.4148,-3.4321,-3.4408,-3.4433,-3.4677,-3.4486,-3.4018,-3.4018,-3.3777,-3.3284,-3.2743,-3.2527,-3.2454,-3.1958,-3.1428,-3.0898,0.0,0.0,0.0,0.0,0.0,0.0,0.0,0.0,0.0,0.0,-1.4177,-1.5901,-1.8234,-2.0574,-2.2418,-2.3509,-2.4422,-2.4824,-2.4521,0.0,0.0,0.0,0.0,0.0,-2.6343,-2.6769,-2.7468,-2.8515,-2.9378,-2.9984,-3.0407,-3.0934,-3.1248,-3.1386,-3.1386,-3.1386,-3.1386,-3.1235,-3.0595,-2.9566,-2.8034,-2.6854,-2.5896,0.0,0.0,0.0,0.0,0.0,0.0,0.0,0.0,0.0,0.0,0.0,0.0,0.0,0.0,0.0,0.0,0.0,0.0,0.0,0.0,0.0,0.0,0.0,0.0,0.0,0.0,0.0,0.0,0.0,0.0,0.0,0.0,-2.1753,-2.1368,-2.3123,-2.4903,-2.6093,-2.7681,-2.8703,-2.8847,-2.9352,-3.0025,-3.0995,-3.1055,-3.1524,-3.2563,-3.2767,-3.308,-3.355,-3.3706,-3.397,-3.4402,-3.4834,-3.4999,-3.4802,-3.466,-3.4618,-3.4604,-3.4654,-3.4592,-3.4384,-3.4482,-3.4545,-3.457,-3.457,-3.4486,-3.4318,-3.3416,-3.308,-3.3056,-3.2899,-3.2505,-3.204,0.0,0.0,0.0,0.0,0.0,0.0,0.0,0.0,0.0,0.0,-1.4306,-1.6109,-1.8432,-2.0536,-2.2234,-2.3315,-2.415,-2.4583,-2.4443,0.0,0.0,0.0,0.0,-2.6485,-2.7343,-2.8002,-2.8831,-2.9844,-3.0228,-3.0797,-3.142,-3.1641,-3.1863,-3.2102,-3.2102,-3.2102,-3.2077,-3.1838,-3.1562,-3.116,-2.9729,-2.8486,-2.7344,-2.6013,-2.5096,-2.4356,-2.3012,-2.2334,-2.1923,-2.0778,0.0,0.0,0.0,0.0,0.0,0.0,0.0,0.0,0.0,0.0,0.0,0.0,0.0,0.0,0.0,0.0,0.0,0.0,0.0,0.0,0.0,0.0,0.0,0.0,-2.2939,-2.4338,-2.4494,-2.5552,-2.6719,-2.7801,-2.9124,-3.005,-3.0266,-3.0783,-3.1444,-3.2331,-3.2391,-3.2719,-3.3561,-3.3609,-3.3837,-3.4306,-3.4534,-3.4799,-3.5111,-3.5589,-3.564,-3.5336,-3.5109,-3.4904,-3.4788,-3.4657,-3.4551,0.0,-3.4381,-3.4482,-3.4628,-3.4726,-3.4775,0.0,0.0,0.0,0.0,0.0,-3.309,-3.2853,0.0,0.0,0.0,0.0,0.0,0.0,0.0,0.0,0.0,0.0,0.0,-1.6466,-1.8772,-2.0504,-2.1959,-2.3135,-2.366,-2.3892,0.0,0.0,0.0,-2.5219,-2.6739,-2.7646,-2.779,-2.9136,-3.0141,-3.0788,-3.0969,-3.1574,-3.2615,-3.2416,-3.2621,-3.3124,-3.3124,-3.3124,-3.3043,-3.2528,-3.2277,-3.2127,-3.111,-3.003,-2.8825,-2.7318,-2.6663,-2.6298,-2.4808,-2.4192,-2.3941,-2.2937,0.0,0.0,0.0,0.0,0.0,0.0,0.0,0.0,0.0,0.0,0.0,0.0,0.0,0.0,0.0,0.0,0.0,0.0,0.0,0.0,0.0,0.0,0.0,0.0,-2.5083,-2.6755,-2.7837,-2.8041,-2.8426,-2.9364,-3.041,-3.1284,-3.1753,-3.2262,-3.2803,-3.3332,-3.3368,-3.3597,-3.4054,0.0,0.0,0.0,0.0,-3.5653,-3.5701,-3.5977,-3.5932,-3.5674,-3.5462,-3.5225,-3.4865,-3.4641,-3.4465,-3.4376,-3.4421,-3.4382,-3.4433,-3.4677,-3.4775,-3.4727,-3.427,-3.4078,-3.4054,-3.3637,-3.3411,-3.3392,0.0,0.0,0.0,0.0,0.0,0.0,0.0,0.0,0.0,-1.2787,-1.3828,-1.5251,-1.7651,-1.8981,-2.0351,-2.1983,-2.2547,-2.3132,0.0,0.0,-2.6224,-2.6512,-2.7616,-2.866,-2.9578,-2.9881,-3.0485,-3.1345,-3.1861,-3.228,-3.2615,-3.2976,-3.3126,-3.3124,-3.3124,-3.3124,-3.3111,-3.2998,-3.2641,-3.2152,-3.1499,-3.0595,-2.9541,-2.875,-2.762,-2.6449,-2.6135,-2.5423,-2.46,-2.4374,-2.3966,-2.3414,-2.2807,0.0,0.0,0.0,0.0,0.0,0.0,0.0,0.0,0.0,0.0,0.0,0.0,0.0,0.0,0.0,0.0,0.0,0.0,0.0,0.0,-2.5889,-2.7224,-2.8414,-2.9484,-3.0001,-3.0338,-3.0585,-3.1529,-3.2226,-3.2334,-3.2827,-3.3344,-3.3814,-3.385,-3.4078,-3.4595,-3.4631,0.0,-3.5449,-3.5569,-3.5821,-3.6242,-3.6486,-3.65,-3.625,0.0,0.0,-3.537,-3.532,-3.4982,-3.44,-3.4396,-3.4428,-3.4384,-3.4433,-3.458,-3.4775,-3.4667,-3.4631,-3.4607,-3.4511,-3.4246,-3.3862,0.0,0.0,0.0,0.0,0.0,0.0,0.0,0.0,0.0,0.0,-1.3486,-1.4735,-1.6504,-1.766,-1.8892,-2.0365,-2.1444,0.0,0.0,-2.5202,-2.609,-2.6438,-2.8071,-2.9175,-2.9693,-3.0268,-3.1042,-3.2098,-3.2278,-3.2658,-3.3148,-3.3301,-3.3283,-3.3124,-3.3124,-3.3124,-3.3124,-3.3124,-3.2742,-3.2164,-3.1612,-3.0922,-3.0118,-2.9214,-2.8247,-2.7291,-2.7002,-2.6339,-2.5598,-2.531,-2.5021,-2.4707,-2.4123,-2.3183,-2.2196,0.0,0.0,0.0,0.0,0.0,0.0,0.0,0.0,0.0,0.0,0.0,0.0,0.0,0.0,-2.3268,0.0,0.0,-2.6525,-2.7897,-2.9003,-2.9881,-3.041,-3.0983,-3.1308,-3.1308,-3.1997,-3.2611,-3.2863,-3.3368,-3.3885,-3.4342,-3.439,-3.4498,-3.4763,-3.4929,-3.5143,-3.5406,-3.5792,-3.6145,-3.6407,-3.6772,-3.682,-3.6554,-3.6638,-3.641,-3.5887,-3.5634,-3.5297,-3.4936,-3.4581,-3.4462,-3.4603,-3.4589,-3.4677,-3.4775,-3.4775,-3.4775,-3.4775,-3.4775,-3.4617,-3.4412,0.0,0.0,0.0,0.0,0.0,0.0,0.0,0.0,0.0,0.0,0.0,-1.4184,-1.5326,-1.633,-1.7478,0.0,0.0,0.0,0.0,-2.4736,-2.5675,-2.6268,-2.8112,-2.9267,-2.9516,-3.0383,-3.1378,-3.2529,-3.2488,-3.287,-3.3601,-3.3505,-3.3356,-3.3154,-3.3124,-3.3018,-3.2918,-3.2918,-3.2579,-3.2001,-3.1461,-3.0922,-3.0344,-2.9276,-2.8586,-2.8034,-2.7482,-2.6964,-2.6424,-2.5925,-2.5762,-2.5674,-2.5146,-2.4311,-2.3521,-2.3195,-2.2184,0.0,0.0,0.0,0.0,0.0,0.0,0.0,0.0,0.0,-2.3697,-2.4103,-2.4902,-2.5922,-2.7153,-2.7702,-2.8378,-2.9436,-3.0326,-3.0958,-3.1055,-3.144,-3.1705,-3.1705,-3.225,-3.2827,-3.3248,-3.3837,-3.4318,-3.4751,-3.4775,-3.4823,-3.487,-3.5079,-3.5251,-3.5414,-3.6048,-3.6438,-3.6544,-3.6878,-3.6916,-3.67,-3.6646,-3.6483,-3.6309,-3.5853,-3.5611,-3.5474,-3.4906,-3.4805,-3.5023,-3.4999,-3.498,-3.4968,-3.4823,-3.4775,-3.4775,-3.4775,-3.4775,-3.4775,0.0,0.0,0.0,0.0,0.0,0.0,0.0,0.0,0.0,0.0,0.0,0.0,0.0,0.0,0.0,0.0,0.0,0.0,-2.2402,-2.4,-2.5596,-2.7153,-2.7735,-2.8705,-3.0247,-3.0236,-3.0753,-3.1902,-3.2398,-3.2865,-3.3256,-3.3537,-3.3556,-3.3356,-3.3197,-3.2792,-3.2303,-3.2303,-3.1989,-3.1436,-3.0922,-3.0369,-2.9817,-2.9126,-2.8586,-2.8034,-2.7482,-2.6964,-2.6487,-2.6411,-2.6399,-2.6298,-2.5686,-2.5423,-2.5034,-2.3534,0.0,-2.2719,-2.2259,-2.2406,-2.2857,-2.3401,-2.3577,-2.3879,0.0,0.0,-2.6286,-2.6929,-2.7508,-2.8166,-2.8903,-2.9088,-2.9472,-3.053,-3.0838,-3.1091,-3.1548,-3.1669,-3.1705,-3.1705,-3.2575,-3.3224,-3.3284,-3.4174,-3.4715,-3.4823,-3.4775,-3.4881,-3.5149,-3.5182,-3.5544,-3.6243,-3.6332,-3.6614,-3.7049,-3.6839,-3.6754,-3.67,-3.6483,-3.632,-3.632,-3.6263,-3.5944,-3.5485,-3.5485,-3.56,-3.586,-3.5599,-3.5533,-3.5485,-3.5016,-3.4775,-3.4775,-3.4775,-3.4775,-3.4775,0.0,0.0,0.0,0.0,0.0,0.0,0.0,0.0,0.0,0.0,0.0,0.0,0.0,0.0,0.0,0.0,0.0,0.0,-2.1278,-2.2931,-2.4458,-2.584,-2.7309,-2.8326,-2.8897,-2.9793,-3.064,-3.1339,-3.1914,-3.2371,-3.2756,-3.2894,-3.2752,-3.2393,-3.231,-3.2101,-3.1738,-3.1738,-3.1235,-3.0444,-3.0218,-2.9603,-2.8712,-2.7833,-2.7344,-2.7153,-2.6914,-2.6474,0.0,0.0,-2.5498,-2.5473,-2.5222,-2.4921,-2.4594,-2.4199,-2.386,0.0,-2.4117,-2.4393,0.0,0.0,-2.6151,-2.659,-2.7369,-2.8235,-2.8925,-2.9119,-2.9455,-2.9898,-3.0313,-3.029,-3.0458,0.0,-3.138,-3.1452,-3.1681,-3.1705,-3.1705,-3.1705,-3.2358,-3.2947,-3.326,-3.3945,-3.445,-3.4763,-3.4677,-3.4757,-3.5182,-3.5211,-3.5472,-3.6092,-3.6247,-3.6449,-3.6646,-3.6538,-3.6483,-3.6495,-3.632,-3.632,-3.632,-3.632,-3.611,-3.5797,-3.6144,-3.6185,-3.603,-3.6069,-3.6074,-3.6026,-3.5497,-3.5292,-3.5244,-3.4944,-3.4775,-3.4775,0.0,0.0,0.0,0.0,0.0,0.0,0.0,0.0,0.0,0.0,0.0,0.0,0.0,0.0,0.0,0.0,0.0,0.0,0.0,-2.1822,-2.331,-2.4538,-2.6351,0.0,-2.7947,-2.909,-3.0,-3.059,-3.1248,-3.1746,-3.2006,-3.2278,-3.2143,-3.1629,-3.1508,-3.1211,-3.0788,-3.0748,-3.0181,-2.9315,-2.9164,-2.8524,-2.7544,-2.6625,-2.6072,-2.5833,-2.5984,-2.5649,0.0,0.0,-2.4687,-2.4619,-2.4738,-2.4512,-2.4305,-2.4675,-2.4757,-2.4845,-2.5624,0.0,0.0,-2.7733,-2.8386,-2.8938,-2.949,-3.0357,-3.0979,-3.0764,-3.1005,-3.1301,-3.14,-3.1257,0.0,-3.1645,-3.1705,-3.1705,-3.1705,-3.1705,-3.1705,-3.1705,-3.2022,-3.2539,-3.3224,-3.3694,-3.421,-3.4739,-3.4531,-3.4681,-3.5257,-3.5261,-3.5451,-3.5971,-3.619,-3.6335,-3.6484,-3.6484,-3.6484,-3.6484,-3.6484,-3.6415,-3.632,-3.6375,-3.6341,-3.6337,-3.6826,-3.6851,-3.6562,-3.6573,-3.6627,-3.6567,-3.6038,-3.5749,-3.5569,-3.5184,-3.4907,-3.4775,0.0,0.0,0.0,0.0,0.0,0.0,0.0,0.0,0.0,0.0,0.0,0.0,0.0,0.0,0.0,0.0,0.0,0.0,0.0,-2.0648,-2.2403,-2.4042,-2.4634,-2.5975,-2.8222,-2.8014,-2.8428,-2.9539,-3.0524,-3.1013,-3.1065,-3.198,-3.2096,-3.15,-3.1095,-3.0316,-2.9238,-2.9076,-2.8674,-2.8109,-2.757,-2.7052,-2.6487,-2.585,-2.4971,-2.4142,-2.4669,0.0,0.0,0.0,-2.4469,-2.4117,-2.4625,-2.4775,0.0,-2.4788,-2.5561,0.0,0.0,0.0,-2.8925,-2.9566,-3.0131,-3.067,-3.1198,-3.175,-3.2081,-3.1896,-3.2129,-3.2264,-3.2013,-3.1825,-3.1693,-3.1705,-3.1705,-3.1705,-3.1705,-3.1705,-3.1705,-3.1705,-3.1717,-3.2163,0.0,-3.3694,-3.421,-3.4739,-3.4531,-3.4748,-3.5545,-3.5357,-3.5561,-3.6263,-3.632,-3.6507,-3.6945,-3.6956,-3.6956,-3.6956,-3.6956,-3.6748,-3.632,-3.6592,-3.6862,-3.712,-3.74,-3.7708,-3.789,-3.7385,-3.7168,-3.712,-3.6591,-3.6062,-3.5617,-3.5605,-3.5268,-3.4775,0.0,0.0,0.0,0.0,0.0,0.0,0.0,0.0,0.0,0.0,0.0,0.0,0.0,0.0,0.0,0.0,0.0,0.0,0.0,-1.8879,-2.0598,-2.2351,-2.3269,-2.4445,-2.5948,-2.6525,-2.712,-2.7769,-2.8769,-2.9261,-2.9274,-2.9986,-2.9941,-2.9238,-2.9093,-2.8477,-2.7563,-2.7458,-2.7059,-2.6427,-2.6239,-2.5624,-2.477,-2.418,-2.3514,-2.2849,0.0,0.0,0.0,0.0,0.0,0.0,-2.307,-2.3665,-2.4494,-2.5586,-2.6691,-2.772,0.0,0.0,-3.0357,-3.165,-3.2114,-3.239,-3.293,-3.3206,-3.3075,-3.2294,-3.2082,-3.1907,-3.1295,-3.1022,-3.0797,-3.0657,-3.0958,-3.1187,-3.1187,-3.1488,-3.1705,-3.1705,-3.1985,0.0,0.0,0.0,0.0,-3.4715,-3.4902,-3.5115,-3.5592,-3.5695,-3.592,-3.6309,-3.6599,-3.6863,-3.6979,-3.7368,-3.7529,-3.7529,-3.6858,-3.6618,-3.6771,-3.7018,-3.7125,-3.7131,-3.7613,-3.7933,-3.7974,-3.7793,-3.7709,-3.7661,-3.7132,-3.6819,-3.6615,-3.6266,-3.6026,-3.5773,0.0,0.0,0.0,0.0,0.0,0.0,0.0,0.0,0.0,0.0,0.0,0.0,0.0,0.0,0.0,0.0,0.0,0.0,0.0,0.0,-1.9022,-2.0566,-2.1485,-2.2648,-2.4202,-2.4813,-2.5442,-2.6087,-2.7058,-2.7524,-2.7484,-2.8281,-2.816,-2.7271,-2.7204,-2.6598,-2.5651,-2.5567,-2.5254,-2.4803,-2.4538,-2.4017,-2.3314,-2.2548,-2.1895,0.0,0.0,0.0,0.0,0.0,0.0,0.0,-2.2456,-2.3653,-2.5121,-2.6424,-2.7682,-2.895,0.0,-3.0922,-3.18,-3.3056,-3.352,-3.3709,-3.3872,-3.3746,-3.3345,-3.2403,-3.1735,-3.1125,-3.0598,-3.013,-2.9852,-2.9814,-3.0086,-3.0446,-3.0862,-3.1211,-3.1573,-3.1958,-3.2286,0.0,0.0,0.0,0.0,-3.4715,-3.5069,-3.5304,-3.5603,-3.5859,-3.6094,-3.6309,-3.6771,-3.7071,-3.7299,-3.7816,-3.8068,-3.8068,-3.7223,-3.6983,-3.7288,-3.7379,-3.7406,-3.739,-3.7697,-3.788,-3.7986,-3.7986,-3.7986,-3.795,-3.7613,-3.736,-3.7156,-3.6807,-3.6567,-3.6314,0.0,0.0,0.0,0.0,0.0,0.0,0.0,0.0,0.0,0.0,0.0,0.0,0.0,0.0,0.0,0.0,0.0,0.0,0.0,0.0,0.0,-1.872,-1.9296,-2.069,-2.2984,-2.2935,-2.3379,-2.4405,-2.5368,-2.5765,-2.5636,-2.6785,-2.672,-2.5662,-2.548,-2.4753,-2.3664,-2.3382,-2.3251,-2.3158,-2.2455,-2.2171,-2.2033,-2.1006,0.0,0.0,0.0,0.0,0.0,0.0,0.0,0.0,0.0,0.0,-2.6663,-2.7231,-2.8599,-3.0143,-3.1185,-3.2303,-3.3294,-3.3847,-3.4349,-3.4575,-3.4022,-3.3445,-3.2855,-3.2215,-3.0994,-3.0034,0.0,0.0,-2.8809,-2.9092,-2.9208,-2.9617,-3.0694,-3.0886,-3.1276,0.0,0.0,0.0,0.0,0.0,0.0,-3.4775,0.0,-3.539,-3.5639,-3.5894,-3.6128,-3.6343,-3.6805,-3.7311,-3.7827,-3.8355,-3.8619,-3.8619,-3.8091,-3.7827,-3.7804,-3.7657,-3.7691,-3.7895,-3.7773,-3.7804,-3.8022,-3.8022,-3.7998,-3.7986,-3.7986,-3.7673,-3.7228,-3.7228,-3.6916,-3.6483,0.0,0.0,0.0,0.0,0.0,0.0,0.0,0.0,0.0,0.0,0.0,0.0,0.0,0.0,0.0,0.0,0.0,0.0,0.0,0.0,0.0,0.0,0.0,0.0,0.0,-2.0849,-2.1305,-2.1913,0.0,-2.3334,-2.3274,-2.4422,-2.4566,-2.3848,-2.3819,-2.3095,-2.1935,-2.1759,-2.138,-2.0825,0.0,-2.0213,-1.981,0.0,0.0,0.0,0.0,0.0,0.0,0.0,0.0,0.0,0.0,-2.5937,-2.7379,-2.875,-3.0306,-3.175,-3.2453,-3.3458,-3.4437,-3.4944,-3.4868,-3.4575,-3.4022,-3.3144,-3.2051,-3.0683,-2.9477,-2.8425,0.0,0.0,0.0,-2.6937,-2.7921,0.0,-2.9605,-3.0386,0.0,0.0,0.0,-3.3344,-3.3934,-3.4703,0.0,0.0,-3.5855,-3.6192,-3.6481,-3.6673,-3.692,-3.7182,-3.7457,-3.785,-3.8378,-3.8872,-3.9124,-3.9113,-3.8619,-3.8298,-3.8171,-3.8325,-3.8234,-3.7927,-3.8737,-3.8917,-3.8611,-3.8611,-3.8359,-3.7986,-3.7986,-3.7902,-3.7781,-3.7781,-3.7697,-3.7629,0.0,0.0,0.0,0.0,0.0,0.0,0.0,0.0,0.0,0.0,0.0,0.0,0.0,0.0,0.0,0.0,0.0,0.0,0.0,0.0,0.0,0.0,0.0,0.0,0.0,-1.899,-1.9481,0.0,0.0,0.0,0.0,-2.2205,-2.2283,-2.1721,-2.1721,-2.1159,-2.0251,-2.0077,0.0,0.0,0.0,0.0,0.0,0.0,0.0,0.0,0.0,0.0,0.0,0.0,0.0,-2.3803,-2.546,-2.6904,-2.8298,-2.9729,0.0,-3.2767,-3.3583,-3.4424,-3.5107,-3.542,-3.527,-3.4768,-3.3771,-3.2491,-3.111,-2.9704,-2.7946,0.0,0.0,0.0,0.0,0.0,0.0,0.0,-2.8811,-2.9869,-3.1011,0.0,-3.2959,0.0,-3.427,-3.5087,-3.5713,0.0,-3.6459,-3.6788,-3.6811,-3.7139,-3.739,-3.7502,-3.781,-3.8263,-3.8895,-3.9288,-3.9496,-3.9544,-3.929,-3.9128,-3.9117,-3.9192,-3.9057,-3.8791,0.0,-3.9199,-3.8815,-3.8815,-3.8491,-3.7986,-3.7986,-3.7986,-3.7986,-3.7986,-3.808,-3.8173,0.0,0.0,0.0,0.0,0.0,0.0,0.0,0.0,0.0,0.0,0.0,0.0,0.0,0.0,0.0,0.0,0.0,0.0,0.0,0.0,0.0,0.0,0.0,0.0,0.0,0.0,0.0,0.0,0.0,0.0,0.0,0.0,0.0,0.0,0.0,0.0,0.0,0.0,0.0,0.0,0.0,0.0,0.0,0.0,0.0,0.0,0.0,0.0,0.0,0.0,-2.3113,-2.4393,-2.6084,-2.7708,-2.9226,-3.0382,-3.1938,-3.3508,-3.4462,-3.5132,-3.5596,-3.552,-3.5395,-3.4843,-3.3232,-3.1524,-2.9903,-2.87,0.0,-2.4441,-2.409,0.0,-2.3472,-2.4116,0.0,-2.6454,-2.8077,-2.9268,-3.0579,-3.2202,-3.2923,-3.3669,-3.4583,-3.5328,-3.5905,-3.6374,-3.6952,-3.7196,-3.697,-3.7346,-3.7599,-3.7638,-3.8197,-3.8758,-3.9403,-3.9732,-3.9861,-3.9849,-3.9884,-4.0059,-4.0235,-4.0055,-4.0014,-4.0066,0.0,0.0,-3.8924,-3.8924,-3.8551,-3.7986,-3.7986,-3.7986,-3.7986,-3.8039,-3.8173,-3.8425,0.0,0.0,0.0,0.0,0.0,0.0,0.0,0.0,0.0,0.0,-1.0663,0.0,0.0,0.0,0.0,0.0,0.0,0.0,0.0,0.0,0.0,0.0,0.0,0.0,0.0,0.0,0.0,0.0,0.0,0.0,0.0,0.0,0.0,0.0,0.0,0.0,0.0,0.0,0.0,0.0,0.0,0.0,0.0,0.0,0.0,0.0,0.0,0.0,0.0,0.0,-2.3333,-2.4938,-2.6615,-2.8298,-2.9854,-3.0934,-3.2767,-3.4474,-3.4675,-3.5454,-3.6107,-3.5608,-3.4818,-3.3746,-3.2064,-3.0055,0.0,0.0,0.0,-2.3197,-2.2598,-2.2258,0.0,-2.2693,0.0,0.0,0.0,0.0,-3.0025,0.0,0.0,0.0,0.0,0.0,0.0,0.0,0.0,0.0,-3.7801,-3.7643,-3.7861,-3.8463,-3.9356,-3.993,-4.0048,-4.0118,-4.0118,-4.0118,-4.0153,-4.0258,-4.0515,-4.0559,-4.0721,-4.0954,-4.0877,0.0,-3.9477,-3.9477,-3.8888,-3.7986,-3.7986,-3.7986,-3.8039,-3.825,-3.8344,-3.8477,0.0,0.0,0.0,0.0,0.0,0.0,0.0,0.0,0.0,0.0,-1.1784,-1.1704,0.0,0.0,0.0,0.0,0.0,0.0,0.0,0.0,0.0,0.0,0.0,0.0,0.0,0.0,0.0,0.0,0.0,0.0,0.0,0.0,0.0,0.0,0.0,0.0,0.0,0.0,0.0,0.0,0.0,0.0,0.0,0.0,0.0,0.0,0.0,0.0,0.0,0.0,-2.2703,-2.4438,-2.6612,-2.8222,-2.9616,-3.0984,-3.2566,-3.3935,-3.4211,-3.4889,-3.5378,-3.4826,-3.4073,-3.2955,-3.0997,0.0,0.0,0.0,0.0,-2.1174,-2.0513,0.0,0.0,0.0,0.0,0.0,0.0,0.0,0.0,0.0,0.0,0.0,0.0,0.0,0.0,0.0,0.0,0.0,-3.7986,-3.8245,-3.8563,-3.8883,-3.974,-4.0223,-4.0223,-4.0351,-4.0467,-4.0397,-4.0641,-4.0792,-4.0886,-4.0978,-4.1047,-4.1199,-4.092,0.0,-3.9585,-3.9308,-3.8719,-3.8039,-3.8145,-3.8185,-3.8226,-3.8514,-3.8739,-3.8911,0.0,0.0,0.0,0.0,0.0,0.0,0.0,-1.0003,-1.0678,-1.2557,-1.2742,-1.2464,-1.1881,-1.1746,-1.1638,0.0,0.0,0.0,0.0,0.0,0.0,0.0,0.0,0.0,0.0,0.0,0.0,0.0,0.0,0.0,0.0,0.0,0.0,0.0,0.0,0.0,0.0,0.0,0.0,0.0,0.0,0.0,0.0,0.0,0.0,0.0,0.0,0.0,0.0,0.0,-2.1705,-2.3327,-2.587,-2.7601,-2.8975,-3.0676,-3.1921,-3.2953,-3.362,-3.4167,-3.4412,-3.3859,-3.3219,-3.2139,-2.993,-2.7708,0.0,0.0,-2.1164,-1.9572,-1.8821,0.0,0.0,0.0,0.0,0.0,0.0,0.0,0.0,0.0,0.0,0.0,0.0,0.0,0.0,0.0,0.0,0.0,-3.7986,-3.8778,-3.9185,-3.9185,-3.9981,-4.0409,-4.0409,-4.0653,-4.0769,-4.0757,-4.1057,-4.1184,-4.1184,-4.1184,-4.1124,-4.0992,-4.0571,0.0,0.0,-3.9038,-3.8586,-3.8092,-3.8356,-3.8489,-3.8505,-3.8828,-3.9092,-3.9289,0.0,0.0,0.0,0.0,0.0,0.0,0.0,-1.0003,-1.0678,-1.2557,-1.2742,-1.2657,-1.2517,-1.2446,-1.2164,0.0,0.0,0.0,0.0,0.0,0.0,0.0,0.0,0.0,0.0,0.0,0.0,0.0,0.0,0.0,0.0,0.0,0.0,0.0,0.0,0.0,0.0,0.0,0.0,0.0,0.0,0.0,0.0,0.0,0.0,0.0,0.0,0.0,0.0,0.0,0.0,-2.1624,-2.3948,-2.6169,-2.8237,-2.9922,0.0,0.0,-3.314,-3.372,-3.3847,-3.3294,-3.234,-3.0972,-2.8762,0.0,0.0,0.0,-2.0665,-1.9484,-1.8444,-1.8209,0.0,0.0,0.0,0.0,0.0,0.0,0.0,0.0,0.0,0.0,0.0,0.0,0.0,0.0,0.0,0.0,-3.7986,-3.9008,-3.9542,-3.9542,-4.0574,-4.1127,-4.1127,-4.1127,-4.1127,-4.1127,-4.1184,-4.1184,-4.1184,-4.1184,-4.092,-4.0463,-4.0415,0.0,0.0,-3.9074,-3.8842,-3.8409,-3.8684,-3.8779,-3.8822,-3.9117,-3.9248,-3.934,0.0,0.0,0.0,0.0,0.0,0.0,0.0,-1.0003,-1.0678,-1.2557,-1.2777,-1.2722,-1.2606,-1.2582,-1.227,0.0,0.0,0.0,0.0,0.0,0.0,0.0,0.0,0.0,0.0,0.0,0.0,0.0,0.0,0.0,0.0,0.0,0.0,0.0,0.0,0.0,0.0,0.0,0.0,0.0,0.0,0.0,0.0,0.0,0.0,0.0,0.0,0.0,0.0,0.0,0.0,0.0,-2.2129,-2.3528,0.0,0.0,-2.954,-3.0139,-3.1508,-3.1984,-3.2028,-3.1691,-3.0746,-2.9415,-2.7544,0.0,0.0,-2.0928,-1.9597,-1.8505,-1.7365,-1.7418,-1.7847,0.0,0.0,0.0,0.0,0.0,0.0,0.0,0.0,0.0,0.0,0.0,0.0,0.0,0.0,0.0,-3.7986,-3.8707,-3.9272,-3.9597,-4.0331,-4.086,-4.1184,-4.1184,-4.1184,-4.1184,-4.1184,-4.1184,-4.1172,-4.086,-4.0595,-4.0367,-3.9729,0.0,0.0,-3.8817,-3.8709,-3.8684,-3.8998,-3.9077,-3.9156,-3.9413,-3.9556,-3.9583,0.0,0.0,0.0,0.0,0.0,0.0,-0.951,-0.9881,-1.0603,-1.2276,-1.2681,-1.2757,-1.2606,-1.2594,-1.2294,-1.1558,0.0,0.0,0.0,0.0,0.0,0.0,0.0,0.0,0.0,0.0,0.0,0.0,0.0,0.0,0.0,0.0,0.0,0.0,0.0,0.0,0.0,0.0,0.0,0.0,0.0,0.0,0.0,0.0,0.0,0.0,0.0,0.0,0.0,0.0,0.0,0.0,0.0,0.0,0.0,0.0,-2.7725,-2.8065,-2.982,-3.0202,-3.0087,-2.9996,-2.9189,-2.7959,0.0,0.0,0.0,-1.9999,-1.8706,-1.7664,-1.6676,-1.6861,-1.734,0.0,0.0,-2.0711,0.0,0.0,0.0,0.0,0.0,0.0,0.0,0.0,0.0,0.0,0.0,0.0,0.0,-3.8359,-3.8815,-3.9357,-3.9886,-4.0415,-4.0944,-4.0944,-4.1028,-4.1184,-4.1028,-4.0944,-4.0932,-4.0403,-4.0122,-3.9985,0.0,0.0,0.0,-3.8778,-3.8788,-3.8998,-3.9322,-3.9426,-3.9426,-3.9633,-3.9697,-3.9697,0.0,0.0,0.0,0.0,0.0,0.0,0.0,-0.9578,-1.0436,-1.1651,-1.2385,-1.2757,-1.2606,-1.2594,-1.2294,-1.1558,0.0,0.0,0.0,0.0,0.0,0.0,0.0,0.0,0.0,0.0,0.0,-1.43,0.0,0.0,0.0,0.0,0.0,0.0,0.0,0.0,0.0,0.0,0.0,0.0,0.0,0.0,0.0,0.0,0.0,0.0,0.0,0.0,0.0,0.0,0.0,0.0,0.0,0.0,0.0,0.0,-2.568,-2.6045,-2.8298,-2.863,-2.8341,-2.8402,-2.7864,-2.6728,0.0,0.0,0.0,-1.9359,-1.8154,-1.7212,-1.66,-1.65,-1.6876,-1.8016,-1.8996,0.0,-2.2316,0.0,0.0,0.0,0.0,0.0,0.0,0.0,0.0,0.0,0.0,0.0,0.0,-3.7986,-3.825,-3.8815,-3.9345,-3.9874,-4.0391,-4.0403,-4.0667,-4.1172,-4.0655,-4.0403,-4.0391,-3.9862,-3.9473,0.0,0.0,0.0,0.0,-3.9166,-3.927,-3.931,-3.9581,-3.9697,-3.9697,-3.9697,-3.9697,-3.9697,0.0,0.0,0.0,0.0,0.0,0.0,0.0,-0.9175,-0.9596,-1.0402,-1.1057,-1.1393,-1.1306,-1.1678,-1.1795,-1.1515,0.0,0.0,0.0,0.0,0.0,0.0,0.0,0.0,0.0,0.0,-1.334,-1.4928,-1.55,-1.6027,0.0,0.0,0.0,0.0,0.0,0.0,0.0,0.0,0.0,0.0,0.0,0.0,0.0,0.0,0.0,0.0,0.0,0.0,0.0,0.0,0.0,0.0,0.0,0.0,0.0,0.0,0.0,0.0,-2.6104,-2.6437,-2.6327,-2.6621,-2.5858,-2.4757,-2.3622,0.0,0.0,-1.9183,-1.8154,-1.7212,-1.66,-1.6835,-1.735,-1.8091,-1.9409,-2.0932,0.0,0.0,0.0,0.0,0.0,0.0,0.0,0.0,0.0,0.0,0.0,0.0,0.0,-3.8198,-3.8464,-3.8803,-3.8984,-3.9418,-4.0103,-4.0103,-4.0299,-4.0635,-4.0465,-4.0391,-4.0367,-3.9831,0.0,0.0,0.0,0.0,0.0,-3.9231,-3.9387,-3.9581,-3.9697,-3.9697,-3.9697,-3.9697,-3.9697,-3.9697,0.0,0.0,0.0,0.0,0.0,0.0,0.0,-0.881,-0.9096,-0.9473,-1.0069,-1.0425,-1.0338,-1.0657,-1.0862,-1.0787,0.0,0.0,0.0,0.0,0.0,0.0,0.0,0.0,0.0,-1.2621,-1.3452,-1.5199,-1.5806,-1.6366,-1.689,-1.7437,-1.7618,0.0,0.0,0.0,0.0,0.0,0.0,0.0,0.0,0.0,-1.3844,0.0,0.0,0.0,0.0,0.0,0.0,0.0,0.0,0.0,0.0,0.0,0.0,0.0,-2.0322,0.0,0.0,-2.4391,-2.4497,-2.475,-2.4101,0.0,0.0,0.0,0.0,0.0,-1.7689,-1.6948,-1.6563,-1.6986,-1.7626,-1.8368,-1.9723,-2.129,0.0,0.0,0.0,0.0,0.0,0.0,0.0,0.0,0.0,0.0,0.0,0.0,0.0,-3.8461,-3.8632,-3.8759,-3.8771,-3.9133,-3.986,-3.9873,-4.0025,-4.0396,-4.0188,-4.0072,-4.0055,-3.9562,0.0,0.0,0.0,0.0,0.0,-3.9451,-3.9555,-3.9697,-3.9697,-3.9697,-3.9697,-3.9697,-3.9697,-3.9697,0.0,0.0,0.0,0.0,0.0,0.0,0.0,0.0,0.0,0.0,-0.9413,-0.9764,-0.9653,-0.9664,-0.9672,0.0,0.0,0.0,0.0,0.0,0.0,0.0,0.0,0.0,0.0,-1.2636,-1.3479,-1.5267,-1.5833,-1.6444,-1.7068,-1.7504,-1.7699,-1.7699,0.0,0.0,0.0,0.0,0.0,0.0,0.0,0.0,0.0,0.0,0.0,0.0,0.0,0.0,0.0,0.0,0.0,0.0,0.0,0.0,0.0,0.0,0.0,0.0,0.0,0.0,0.0,0.0,0.0,0.0,0.0,0.0,0.0,0.0,0.0,0.0,-1.655,-1.7112,-1.789,-1.8895,-2.0075,-2.1566,0.0,0.0,0.0,0.0,0.0,0.0,0.0,0.0,0.0,0.0,0.0,0.0,0.0,-3.8841,-3.8841,-3.8841,-3.8841,-3.9087,-3.9578,-3.9591,-3.9849,-4.0328,-3.9836,-3.9623,-3.9585,-3.9095,0.0,0.0,0.0,0.0,0.0,-3.9697,-3.9697,-3.9697,-3.9697,-3.9697,-3.9697,-3.9697,-3.9697,-3.9697,0.0,0.0,0.0,0.0,0.0,0.0,0.0,0.0,0.0,0.0,-0.8677,-0.903,-0.8947,-0.9354,0.0,0.0,0.0,0.0,0.0,0.0,0.0,0.0,0.0,0.0,0.0,-1.2678,-1.3727,-1.5888,-1.6019,-1.6647,-1.7698,-1.7794,-1.7801,-1.7699,-1.7679,0.0,0.0,0.0,0.0,0.0,0.0,0.0,0.0,0.0,0.0,0.0,-1.3948,-1.4337,0.0,0.0,0.0,0.0,0.0,0.0,0.0,0.0,-1.7826,-1.8401,-1.895,0.0,-2.0604,-2.1496,0.0,0.0,0.0,0.0,0.0,0.0,0.0,0.0,0.0,0.0,-1.9321,-1.9572,-2.1267,-2.3007,0.0,0.0,0.0,0.0,0.0,0.0,0.0,0.0,0.0,0.0,0.0,0.0,0.0,-3.905,-3.9154,-3.9154,-3.9374,-3.9436,-3.9352,-3.9352,-3.9519,-3.9865,-3.974,-3.969,-3.9675,-3.9553,0.0,0.0,0.0,0.0,-3.9697,-3.9697,-3.9697,-3.9697,-3.9697,-3.9697,-3.9697,-3.9697,-3.9697,-3.9697,0.0,0.0,0.0,0.0,0.0,0.0,0.0,0.0,0.0,0.0,0.0,0.0,0.0,0.0,0.0,0.0,0.0,0.0,0.0,0.0,0.0,0.0,0.0,0.0,-1.272,-1.2719,-1.3828,-1.6146,-1.6123,-1.6864,-1.831,-1.8024,-1.8011,-1.8179,-1.7565,0.0,0.0,0.0,0.0,0.0,0.0,0.0,0.0,0.0,0.0,0.0,-1.3894,-1.4247,0.0,-1.5081,-1.5543,-1.6036,0.0,0.0,0.0,0.0,-1.6846,-1.7316,-1.7316,-1.8291,-1.9497,-2.0394,-2.0048,-1.9551,0.0,0.0,0.0,0.0,0.0,0.0,0.0,0.0,0.0,0.0,-2.2397,0.0,0.0,0.0,0.0,0.0,0.0,0.0,0.0,0.0,0.0,0.0,0.0,0.0,0.0,-3.9374,-3.9478,-3.9478,-3.9633,-3.9633,-3.9478,-3.9478,-3.953,-3.9697,-3.9697,-3.9697,-3.9697,-3.9697,-3.9697,0.0,0.0,0.0,-3.9697,-3.9697,-3.9697,-3.9697,-3.9697,-3.9697,-3.9697,-3.9697,-3.9697,-3.9697,0.0,0.0,0.0,0.0,0.0,0.0,0.0,0.0,0.0,0.0,0.0,0.0,0.0,0.0,0.0,0.0,0.0,0.0,0.0,0.0,0.0,0.0,0.0,-1.1624,-1.2788,-1.283,-1.397,-1.6208,-1.6241,-1.7128,-1.8793,-1.8174,-1.8174,-1.8608,-1.7382,-1.6515,0.0,0.0,0.0,0.0,-1.4,0.0,0.0,0.0,0.0,0.0,0.0,0.0,0.0,-1.4774,-1.5077,-1.5425,-1.553,0.0,0.0,0.0,0.0,0.0,-1.6388,-1.7499,-1.8806,-1.9499,-1.9521,-1.94,0.0,0.0,0.0,0.0,0.0,0.0,0.0,0.0,0.0,0.0,0.0,0.0,0.0,0.0,0.0,0.0,0.0,0.0,0.0,0.0,0.0,0.0,0.0,0.0,0.0,-3.9697,-3.9697,-3.9697,-3.9697,-3.9697,-3.9697,-3.9697,-3.9697,-3.9697,-3.9697,-3.9697,-3.9697,-3.9697,-3.9697,0.0,0.0,0.0,-3.9697,-3.9697,-3.9697,-3.9697,-3.9697,-3.9697,-3.9697,-3.9697,-3.9697,-3.9697,0.0,0.0,0.0,0.0,0.0,0.0,0.0,0.0,0.0,0.0,0.0,0.0,0.0,0.0,0.0,0.0,0.0,0.0,0.0,0.0,0.0,0.0,-1.083,-1.1624,-1.2788,-1.3346,-1.4477,-1.6208,-1.6696,-1.7587,-1.8793,-1.8174,-1.7957,-1.8011,-1.7299,-1.6572,-1.5873,-1.5317,-1.4661,-1.4,-1.4,0.0,0.0,0.0,0.0,0.0,0.0,0.0,0.0,-1.4715,-1.4937,-1.5079,-1.5578,0.0,0.0,0.0,0.0,0.0,-1.6388,-1.6911,-1.7721,-1.878,-1.8679,-1.8542,0.0,0.0,0.0,0.0,0.0,0.0,0.0,0.0,0.0,0.0,0.0,0.0,0.0,0.0,0.0,0.0,0.0,0.0,0.0,0.0,0.0,0.0,0.0,0.0,0.0,0.0,-3.9697,-3.9697,-3.9697,-3.9697,-3.9697,-3.9697,-3.9697,-3.9697,-3.9697,-3.9697,-3.9697,-3.9697,-3.9697,0.0,0.0,-3.9697,-3.9697,-3.9697,-3.9697,-3.9697,-3.9697,-3.9697,-3.9697,-3.9697,-3.9697,-3.9697,0.0,0.0,0.0,0.0,0.0,0.0,0.0,0.0,0.0,0.0,0.0,0.0,0.0,0.0,0.0,0.0,0.0,0.0,0.0,0.0,0.0,-1.0165,-1.1097,-1.2,-1.2885,-1.3808,-1.4925,-1.6244,-1.6829,-1.7846,-1.9288,-1.8995,-1.8506,-1.7861,-1.6932,-1.6325,-1.5946,-1.5049,-1.4479,-1.416,0.0,0.0,0.0,0.0,0.0,0.0,0.0,0.0,0.0,0.0,-1.4476,-1.4466,-1.4746,0.0,0.0,0.0,0.0,0.0,-1.5903,-1.6592,-1.7515,-1.861,-1.8963,-1.9292,-2.0378,0.0,0.0,0.0,0.0,0.0,0.0,0.0,0.0,0.0,0.0,0.0,0.0,0.0,0.0,0.0,0.0,0.0,0.0,0.0,0.0,0.0,0.0,0.0,0.0,0.0,-3.9697,-3.9697,-3.9697,-3.9697,-3.9697,-3.9697,-3.9697,-3.9697,-3.9697,-3.9697,-3.9697,-3.9697,-3.9697,-3.9697,0.0,-3.9929,-3.9942,-4.0044,-4.0044,-3.9929,-3.9929,-3.9839,-3.9697,-3.9697,-3.9697,-3.9697,0.0,0.0,0.0,0.0,0.0,0.0,0.0,0.0,0.0,0.0,0.0,0.0,0.0,0.0,0.0,0.0,0.0,0.0,0.0,0.0,-0.9509,-0.9964,-1.1434,-1.2462,-1.2995,-1.4271,-1.5405,-1.6352,-1.7037,-1.8016,-1.9279,-1.9415,-1.8934,-1.7848,-1.6647,-1.61,-1.6019,-1.4816,-1.43,-1.43,0.0,0.0,0.0,0.0,0.0,0.0,0.0,0.0,0.0,0.0,0.0,0.0,0.0,0.0,0.0,-1.4062,-1.4443,-1.5003,-1.5515,-1.6461,-1.7579,-1.8668,0.0,-2.0296,-2.1446,0.0,0.0,0.0,0.0,0.0,0.0,0.0,0.0,0.0,0.0,0.0,0.0,0.0,0.0,0.0,0.0,0.0,0.0,0.0,0.0,0.0,0.0,0.0,0.0,0.0,-3.9788,-3.9788,-3.9749,-3.9697,-3.9697,-3.9736,-3.9736,-3.9697,-3.9697,-3.9749,-3.9788,-3.9788,-3.9839,-3.989,-4.0083,-4.0185,-4.0236,-4.0402,-4.0402,-4.0185,-4.0121,-3.9929,-3.9697,-3.9697,-3.9697,-3.9697,0.0,0.0,0.0,0.0,0.0,0.0,0.0,0.0,0.0,0.0,0.0,0.0,0.0,0.0,0.0,0.0,0.0,0.0,0.0,0.0,-0.9312,-0.9368,-1.1643,-1.2953,-1.2995,-1.4738,-1.5907,-1.6494,-1.7578,-1.8083,-1.8052,-1.8595,-1.8513,-1.7848,-1.6647,-1.61,-1.6019,-1.4816,-1.43,-1.43,-1.43,0.0,0.0,0.0,0.0,0.0,0.0,0.0,0.0,0.0,0.0,0.0,0.0,0.0,-1.4187,-1.4187,-1.452,-1.5039,-1.5625,-1.6539,-1.7579,-1.8785,0.0,0.0,-2.2088,-2.3184,0.0,0.0,0.0,0.0,0.0,0.0,0.0,0.0,0.0,0.0,0.0,0.0,0.0,0.0,0.0,0.0,0.0,0.0,0.0,0.0,0.0,0.0,0.0,0.0,0.0,-4.0083,-3.9839,-3.9697,-3.9697,-3.9929,-3.9929,-3.9697,-3.9697,-3.9839,-4.0083,-4.0083,-4.0185,-4.0453,-4.0453,-4.0453,-4.0453,-4.0504,-4.0504,-4.0453,-4.0185,-3.9929,-3.9697,-3.9697,-3.9697,-3.9697,0.0,0.0,0.0,0.0,0.0,0.0,0.0,0.0,0.0,0.0,0.0,0.0,0.0,0.0,0.0,0.0,0.0,0.0,0.0,0.0,-0.9298,-0.9298,-1.1277,-1.2574,-1.2995,-1.519,-1.6389,-1.6494,-1.7928,-1.8378,-1.7916,-1.8513,-1.8473,-1.7861,-1.7027,-1.6457,-1.6046,-1.5209,-1.4642,-1.43,-1.43,-1.43,0.0,0.0,0.0,0.0,0.0,0.0,0.0,0.0,-1.43,-1.43,0.0,-1.4284,-1.4268,-1.4268,-1.4397,-1.4725,-1.5627,-1.6695,-1.7895,-1.9301,0.0,0.0,0.0,0.0,0.0,0.0,0.0,0.0,0.0,0.0,0.0,0.0,0.0,0.0,0.0,0.0,0.0,0.0,0.0,0.0,0.0,0.0,0.0,0.0,0.0,0.0,0.0,0.0,0.0,-4.0338,-4.0249,-4.0198,-4.0198,-4.03,-4.03,-4.0211,-4.0198,-4.0236,-4.0338,-4.0325,-4.0389,-4.0504,-4.0694,-4.0744,-4.0744,-4.0909,-4.0909,-4.0744,-4.044,-4.0185,-3.9929,-3.9929,-3.9612,-3.9182,0.0,0.0,0.0,0.0,0.0,0.0,0.0,0.0,0.0,0.0,0.0,0.0,0.0,0.0,0.0,0.0,0.0,0.0,0.0,-0.8467,-0.911,-0.9283,-1.0844,-1.2012,-1.2672,-1.4936,-1.6137,-1.6253,-1.7705,-1.8268,-1.7942,-1.8337,-1.8324,-1.7875,-1.7258,-1.6661,-1.6059,-1.5457,-1.486,-1.43,-1.43,-1.43,0.0,0.0,0.0,0.0,0.0,0.0,0.0,0.0,-1.3866,0.0,0.0,0.0,0.0,0.0,-1.4422,-1.4802,-1.5717,-1.694,-1.8336,0.0,0.0,0.0,0.0,0.0,0.0,0.0,0.0,0.0,0.0,0.0,0.0,0.0,0.0,0.0,0.0,0.0,0.0,0.0,0.0,0.0,0.0,0.0,0.0,0.0,0.0,0.0,0.0,0.0,0.0,0.0,-4.0555,-4.0504,-4.0504,-4.0605,-4.0643,-4.0643,-4.0695,-4.0695,-4.0643,-4.0642,-4.0642,-4.0757,-4.0946,-4.1047,-4.1047,-4.1211,-4.1147,-4.0883,-4.0694,-4.0325,-3.9956,-3.9956,-3.9461,-3.8855,0.0,0.0,0.0,0.0,0.0,0.0,0.0,0.0,0.0,0.0,0.0,0.0,0.0,0.0,0.0,0.0,0.0,0.0,-0.7602,-0.8109,-0.8667,-0.9269,-1.0447,-1.138,-1.1998,-1.3839,-1.5087,-1.5719,-1.6836,-1.7611,-1.7988,-1.7988,-1.7962,-1.7875,-1.7291,-1.6674,-1.6059,-1.5471,-1.486,-1.43,-1.43,-1.43,-1.43,0.0,0.0,0.0,0.0,0.0,0.0,0.0,-1.2902,0.0,0.0,0.0,0.0,-1.4287,-1.4724,-1.5335,-1.5942,-1.7309,0.0,0.0,0.0,0.0,0.0,0.0,0.0,0.0,0.0,0.0,0.0,0.0,0.0,0.0,0.0,0.0,0.0,0.0,0.0,0.0,0.0,0.0,0.0,0.0,0.0,0.0,0.0,0.0,0.0,0.0,0.0,0.0,-4.0643,-4.0504,-4.0504,-4.0795,-4.0883,-4.0883,-4.1147,-4.1147,-4.0883,-4.0922,-4.1023,-4.1311,-4.1311,-4.1311,-4.1311,-4.1311,-4.1147,-4.087,-4.087,-4.0371,-3.962,-3.962,-3.9224,-3.8777,0.0,0.0,0.0,0.0,0.0,0.0,0.0,0.0,0.0,0.0,0.0,0.0,0.0,0.0,0.0,0.0,0.0,0.0,0.0,-0.8097,-0.867,-0.9269,-1.0049,-1.0956,-1.1984,-1.301,-1.4442,-1.625,-1.6595,-1.7024,-1.7515,-1.7515,-1.7677,-1.7962,-1.7784,-1.7118,-1.6086,-1.5915,-1.5236,-1.43,-1.43,-1.43,-1.43,0.0,0.0,0.0,0.0,0.0,0.0,0.0,0.0,0.0,0.0,0.0,0.0,-1.3676,-1.4382,-1.5335,-1.5942,-1.7387,0.0,0.0,0.0,0.0,0.0,0.0,0.0,0.0,0.0,0.0,0.0,0.0,0.0,0.0,0.0,0.0,0.0,0.0,0.0,0.0,0.0,0.0,0.0,0.0,0.0,0.0,0.0,0.0,0.0,0.0,0.0,0.0,-4.111,-4.106,-4.106,-4.1161,-4.1161,-4.1198,-4.0814,-4.084,-4.1161,-4.1161,-4.1224,-4.1311,-4.1311,-4.1311,-4.1285,-4.0853,-4.0634,-4.0483,-4.0106,-3.9699,-3.93,-3.93,-3.8843,-3.8162,0.0,0.0,0.0,0.0,0.0,0.0,0.0,0.0,0.0,0.0,0.0,0.0,0.0,0.0,0.0,0.0,0.0,0.0,0.0,0.0,-0.8459,-0.9294,-0.966,-1.0517,-1.197,-1.2405,-1.3544,-1.5457,-1.5708,-1.6341,-1.7334,-1.7334,-1.7595,-1.8075,-1.8075,-1.7397,-1.6227,-1.6227,-1.5503,-1.4385,-1.4385,-1.4233,-1.4026,0.0,0.0,0.0,0.0,0.0,0.0,0.0,0.0,0.0,0.0,0.0,0.0,-1.3322,-1.4246,-1.5335,-1.5942,0.0,0.0,0.0,0.0,0.0,0.0,0.0,0.0,0.0,0.0,0.0,0.0,0.0,0.0,0.0,0.0,0.0,0.0,0.0,0.0,0.0,0.0,0.0,0.0,0.0,0.0,0.0,0.0,0.0,0.0,0.0,0.0,0.0,-4.0644,-4.0644,-4.0644,-4.0644,-4.0644,-4.0631,-4.0243,-4.0252,-4.0599,-4.0599,-4.0641,-4.0601,-4.0621,-4.0644,-4.0605,-4.0239,-4.0095,-4.0069,-3.9743,-3.9359,-3.8995,-3.8995,-3.8536,-3.7916,0.0,0.0,0.0,0.0,0.0,0.0,0.0,0.0,0.0,0.0,0.0,0.0,0.0,0.0,0.0,0.0,0.0,0.0,0.0,0.0,-0.8138,-0.9347,-0.945,-1.0246,-1.1886,-1.1914,-1.2504,-1.3741,-1.4387,-1.5616,-1.7348,-1.7348,-1.7654,-1.8208,-1.8208,-1.7545,-1.6393,-1.6393,-1.5661,-1.4501,-1.4446,-1.4084,-1.36,-1.3545,0.0,0.0,0.0,0.0,0.0,0.0,0.0,0.0,0.0,0.0,-1.2564,-1.3162,-1.418,-1.5267,0.0,0.0,0.0,0.0,0.0,0.0,0.0,0.0,0.0,0.0,0.0,0.0,0.0,0.0,0.0,0.0,0.0,0.0,0.0,0.0,0.0,0.0,0.0,0.0,0.0,0.0,0.0,0.0,0.0,0.0,0.0,0.0,0.0,-3.9625,-3.9612,-3.9612,-3.9612,-3.9612,-3.9612,0.0,-3.955,-3.9503,-3.9517,-3.9557,-3.959,-3.9592,-3.9581,-3.9612,-3.9612,-3.9547,-3.9534,-3.952,-3.9468,-3.9115,-3.8645,-3.8645,-3.8331,-3.79,0.0,0.0,0.0,0.0,0.0,0.0,0.0,0.0,0.0,0.0,0.0,0.0,0.0,0.0,0.0,0.0,0.0,0.0,0.0,0.0,-0.8163,-0.9427,-1.0324,-1.098,-1.1365,-1.1331,-1.1661,-1.242,-1.3544,-1.5047,-1.6856,-1.6856,-1.7357,-1.8279,-1.8279,-1.7588,-1.6393,-1.6393,-1.5661,-1.446,-1.3973,-1.371,-1.3559,-1.3077,-1.2513,0.0,0.0,0.0,0.0,0.0,0.0,0.0,-1.1054,-1.1454,-1.2073,-1.2664,-1.3677,-1.482,0.0,0.0,0.0,0.0,0.0,0.0,0.0,0.0,0.0,0.0,0.0,0.0,0.0,0.0,0.0,0.0,0.0,0.0,0.0,0.0,0.0,0.0,0.0,0.0,0.0,0.0,0.0,0.0,0.0,0.0,0.0,0.0,0.0,-3.9612,-3.9612,-3.9612,-3.9612,-3.9612,-3.9612,0.0,-3.912,-3.8911,-3.8911,-3.9398,-3.9577,-3.9607,-3.9594,-3.9612,-3.9573,-3.9102,-3.8906,-3.8867,-3.8436,-3.8187,-3.807,-3.807,-3.8004,-3.79,0.0,0.0,0.0,0.0,0.0,0.0,0.0,0.0,0.0,0.0,0.0,0.0,0.0,0.0,0.0,0.0,0.0,0.0,0.0,0.0,0.0,-0.9446,-1.0624,-1.125,-1.125,-1.1215,-1.149,-1.2101,-1.3022,0.0,0.0,0.0,0.0,-1.8392,0.0,-1.7702,-1.655,-1.655,-1.5811,-1.4599,-1.3999,-1.3567,-1.3234,-1.2608,-1.1982,-1.1465,-1.1465,0.0,0.0,0.0,0.0,0.0,0.0,0.0,-1.149,-1.2084,-1.3105,-1.4282,0.0,0.0,0.0,0.0,0.0,0.0,0.0,0.0,0.0,0.0,0.0,0.0,0.0,0.0,0.0,0.0,0.0,0.0,0.0,0.0,0.0,0.0,0.0,0.0,0.0,0.0,0.0,0.0,0.0,0.0,0.0,-3.9657,-3.938,-3.9116,-3.9103,-3.9103,-3.9103,-3.9103,-3.9057,-3.895,-3.8622,-3.8424,-3.8316,-3.8624,-3.8783,-3.8805,-3.8783,-3.8789,-3.8762,-3.8449,-3.8331,-3.8292,-3.8018,-3.79,-3.79,-3.79,-3.79,-3.79,0.0,0.0,0.0,0.0,0.0,0.0,0.0,0.0,0.0,0.0,0.0,0.0,0.0,0.0,0.0,0.0,0.0,0.0,0.0,0.0,0.0,0.0,-1.0724,-1.1319,-1.1319,-1.1307,-1.1539,-1.2029,0.0,0.0,0.0,0.0,0.0,-1.8498,0.0,-1.7829,-1.6708,-1.6708,-1.596,-1.4752,-1.4134,-1.36,-1.308,-1.242,-1.1788,-1.1266,-1.1266,-1.1195,-1.1085,-1.1038,0.0,0.0,0.0,0.0,-1.1057,-1.1667,-1.2609,-1.3725,0.0,0.0,0.0,0.0,0.0,0.0,0.0,0.0,0.0,0.0,0.0,0.0,0.0,0.0,0.0,0.0,0.0,0.0,0.0,0.0,0.0,0.0,0.0,0.0,0.0,0.0,0.0,0.0,0.0,0.0,-3.9408,-3.9335,-3.9082,-3.8615,-3.8602,-3.8602,-3.8602,-3.8602,-3.8498,-3.8258,-3.8258,-3.8181,-3.7933,-3.7959,-3.7913,-3.79,-3.79,-3.79,-3.79,-3.79,-3.79,-3.79,-3.79,-3.79,-3.79,-3.79,-3.79,-3.79,0.0,0.0,0.0,0.0,0.0,0.0,0.0,0.0,0.0,0.0,0.0,0.0,0.0,0.0,0.0,0.0,0.0,0.0,-0.7687,0.0,0.0,-1.0333,-1.1024,-1.1387,-1.1387,-1.133,-1.135,-1.141,0.0,0.0,0.0,0.0,0.0,-1.8498,0.0,0.0,-1.6708,-1.6708,-1.596,-1.4752,-1.4134,-1.3853,-1.3713,-1.3094,-1.2461,-1.1886,-1.1886,-1.1535,-1.1097,-1.1085,-1.1085,0.0,0.0,0.0,-1.1188,-1.1805,-1.2425,0.0,0.0,0.0,0.0,0.0,0.0,0.0,0.0,0.0,0.0,0.0,0.0,0.0,0.0,0.0,0.0,0.0,0.0,0.0,0.0,0.0,0.0,0.0,0.0,0.0,0.0,0.0,0.0,0.0,0.0,0.0,-3.9428,-3.8975,-3.8682,-3.8602,-3.8602,-3.8602,-3.8602,-3.8602,-3.8602,-3.8557,-3.8557,-3.8408,-3.8167,-3.8149,-3.807,-3.79,-3.79,-3.79,-3.79,-3.79,-3.79,-3.79,-3.79,-3.79,-3.79,-3.79,-3.79,-3.79,0.0,0.0,0.0,0.0,0.0,0.0,0.0,0.0,0.0,0.0,0.0,0.0,0.0,0.0,0.0,-0.779,-0.7768,-0.7901,-0.8244,-0.9096,-0.987,-1.0473,-1.1111,-1.1455,-1.1455,-1.1433,-1.141,0.0,0.0,0.0,0.0,-1.6101,-1.745,0.0,0.0,0.0,0.0,0.0,0.0,-1.5214,-1.4274,-1.391,-1.3825,-1.3234,-1.2813,-1.2559,-1.2559,-1.2391,-1.2152,-1.2152,-1.1913,-1.1605,-1.1605,0.0,0.0,0.0,-1.1903,0.0,0.0,0.0,0.0,0.0,0.0,0.0,0.0,0.0,0.0,0.0,0.0,0.0,0.0,0.0,0.0,0.0,0.0,0.0,0.0,0.0,0.0,0.0,0.0,0.0,0.0,0.0,0.0,0.0,0.0,-3.946,-3.9357,-3.9128,-3.8993,-3.8993,-3.8993,-3.8993,-3.8993,-3.8993,-3.8904,-3.8756,-3.8634,-3.8557,-3.8408,-3.8267,-3.8083,-3.79,-3.79,-3.79,-3.79,-3.79,-3.79,-3.79,-3.79,-3.79,-3.79,-3.79,-3.79,-3.79,0.0,0.0,0.0,0.0,0.0,0.0,0.0,0.0,0.0,0.0,0.0,0.0,0.0,0.0,0.0,0.0,-0.8317,-0.8559,-0.9169,-0.9629,-1.0142,-1.0751,-1.1264,-1.1526,-1.1489,-1.1489,0.0,0.0,0.0,0.0,-1.427,-1.6106,-1.753,0.0,-1.8664,0.0,0.0,0.0,0.0,0.0,0.0,0.0,0.0,-1.4152,-1.3869,-1.3728,-1.3699,-1.3586,-1.3431,-1.3291,-1.2897,-1.2434,-1.2098,-1.1689,0.0,0.0,0.0,0.0,0.0,0.0,0.0,0.0,0.0,0.0,0.0,0.0,0.0,0.0,0.0,0.0,0.0,0.0,0.0,0.0,0.0,0.0,0.0,0.0,0.0,0.0,0.0,0.0,0.0,0.0,0.0,0.0,0.0,-3.9305,-3.9305,-3.9305,-3.9305,-3.9305,-3.9305,-3.9305,-3.9305,-3.9305,-3.9203,-3.9011,-3.8859,-3.8724,-3.8679,-3.8487,-3.8214,-3.7965,-3.7933,-3.79,-3.79,-3.79,-3.79,-3.79,-3.79,-3.79,-3.79,-3.79,-3.79,-3.79,0.0,0.0,0.0,0.0,0.0,0.0,0.0,0.0,0.0,0.0,0.0,0.0,-0.9734,-0.9785,-0.9785,-0.9785,-0.9728,-0.9951,-1.0554,-1.0628,-1.0917,-1.152,-1.1578,0.0,-1.1489,-1.1489,0.0,0.0,0.0,0.0,-1.4341,-1.6284,-1.7493,-1.8068,-1.8564,-1.846,-1.7873,0.0,0.0,0.0,0.0,0.0,0.0,0.0,0.0,0.0,0.0,0.0,-1.4626,-1.405,-1.3825,-1.3586,-1.2378,-1.1984,-1.1844,0.0,0.0,0.0,0.0,0.0,0.0,0.0,0.0,0.0,0.0,0.0,0.0,0.0,0.0,0.0,0.0,0.0,0.0,0.0,0.0,0.0,0.0,0.0,0.0,0.0,0.0,0.0,0.0,0.0,0.0,0.0,0.0,-3.9305,-3.9305,-3.9305,-3.9305,-3.9305,-3.9305,-3.9305,-3.9305,-3.9305,-3.9305,-3.9305,-3.9261,-3.9114,-3.8863,-3.8863,-3.8639,-3.816,-3.7965,-3.79,-3.79,-3.79,-3.79,-3.79,-3.79,-3.79,-3.79,-3.79,-3.79,-3.79,0.0,0.0,0.0,0.0,0.0,0.0,0.0,0.0,0.0,0.0,0.0,0.0,0.0,-0.989,-0.989,-0.989,-0.9881,-1.0098,-1.0668,-1.0702,-1.0962,-1.1579,-1.1601,-1.1593,-1.156,-1.1526,0.0,0.0,0.0,-1.309,-1.3759,-1.5269,-1.6282,-1.6917,-1.8298,-1.876,-1.8445,-1.8049,0.0,0.0,0.0,0.0,0.0,0.0,0.0,0.0,0.0,0.0,0.0,-1.6515,-1.5736,-1.4921,-1.4064,-1.2968,-1.1886,-1.128,-1.1535,0.0,0.0,0.0,0.0,0.0,0.0,0.0,0.0,0.0,0.0,0.0,0.0,0.0,0.0,0.0,0.0,0.0,0.0,0.0,0.0,0.0,0.0,0.0,0.0,0.0,0.0,0.0,0.0,0.0,0.0,0.0,-3.9305,-3.9305,-3.9305,-3.9305,-3.9305,-3.9305,-3.9305,-3.9305,-3.9305,-3.9305,-3.9305,-3.9247,-3.9145,-3.8997,-3.8738,-3.8439,-3.8206,-3.8011,-3.79,-3.79,-3.79,-3.79,-3.79,-3.79,-3.79,-3.79,-3.79,-3.79,0.0,0.0,0.0,0.0,0.0,0.0,0.0,0.0,0.0,0.0,0.0,0.0,0.0,0.0,-1.1132,-1.0902,-1.0678,-1.0693,-1.1045,-1.1075,-1.1247,-1.1623,-1.163,-1.1623,-1.1601,-1.1567,0.0,0.0,0.0,0.0,0.0,-1.4369,-1.5298,-1.595,-1.7407,-1.8148,0.0,0.0,0.0,-1.8011,0.0,0.0,-1.8672,0.0,0.0,0.0,0.0,0.0,0.0,0.0,0.0,0.0,-1.5766,-1.4007,-1.2209,-1.1589,-1.1535,0.0,0.0,0.0,0.0,0.0,0.0,0.0,0.0,0.0,0.0,0.0,0.0,0.0,0.0,0.0,0.0,0.0,0.0,0.0,0.0,0.0,0.0,0.0,0.0,0.0,0.0,0.0,0.0,0.0,0.0,0.0,-3.9007,-3.9197,-3.9305,-3.9305,-3.9305,-3.9305,-3.9305,-3.9305,-3.9305,-3.9305,-3.9305,-3.9305,-3.9292,-3.9114,-3.8917,-3.8666,-3.845,-3.8194,-3.79,-3.79,-3.79,-3.79,-3.79,-3.79,-3.79,-3.79,-3.79,-3.79,0.0,0.0,0.0,0.0,0.0,0.0,0.0,0.0,0.0,-1.1091,0.0,0.0,0.0,0.0,0.0,-1.2891,-1.222,-1.1835,-1.1835,-1.1805,-1.1768,-1.1703,-1.1703,-1.167,-1.159,-1.159,0.0,0.0,0.0,0.0,0.0,0.0,-1.4602,-1.5269,-1.5864,-1.6503,-1.7154,0.0,-1.8201,-1.8317,0.0,-2.0117,-2.0271,0.0,0.0,0.0,-2.248,-2.2672,0.0,0.0,0.0,0.0,0.0,0.0,-1.2925,-1.2264,0.0,0.0,0.0,0.0,0.0,0.0,0.0,0.0,0.0,0.0,0.0,0.0,0.0,0.0,0.0,0.0,0.0,0.0,0.0,0.0,0.0,0.0,0.0,0.0,0.0,0.0,0.0,0.0,0.0,0.0,0.0,-3.8383,-3.8383,-3.8952,-3.9278,-3.9278,-3.9292,-3.9305,-3.9305,-3.9305,-3.9305,-3.9305,-3.9305,-3.9305,-3.9305,-3.9305,-3.9135,-3.8894,-3.8684,-3.8344,-3.79,-3.79,-3.79,-3.79,-3.79,-3.79,-3.79,-3.79,-3.79,-3.79,0.0,0.0,0.0,0.0,0.0,0.0,0.0,0.0,0.0,0.0,0.0,0.0,-1.3676,-1.3809,-1.3792,-1.3553,-1.2909,-1.2519,-1.2519,-1.2059,-1.1794,-1.1768,-1.1725,-1.1692,-1.167,-1.1626,0.0,0.0,0.0,0.0,0.0,0.0,0.0,0.0,-1.412,-1.4529,-1.524,-1.733,0.0,0.0,-1.9595,-2.0654,0.0,0.0,0.0,0.0,0.0,-2.4398,-2.4585,0.0,-2.2034,-2.0633,0.0,0.0,0.0,0.0,0.0,0.0,-1.2672,0.0,0.0,0.0,0.0,0.0,0.0,0.0,0.0,0.0,0.0,0.0,0.0,0.0,0.0,0.0,0.0,0.0,0.0,0.0,0.0,0.0,0.0,0.0,0.0,0.0,0.0,0.0,-3.8142,-3.8239,-3.8239,-3.863,-3.8798,-3.8654,-3.9074,-3.9305,-3.9305,-3.9305,-3.9305,-3.9305,-3.9305,-3.9305,-3.9305,-3.9305,-3.9135,-3.8894,-3.8684,-3.8408,-3.8109,-3.7979,-3.79,-3.79,-3.79,-3.79,-3.79,-3.79,-3.79,-3.79,0.0,0.0,0.0,0.0,0.0,0.0,0.0,0.0,0.0,0.0,0.0,0.0,-1.5688,-1.5405,-1.5051,-1.4701,-1.4068,-1.3557,-1.3238,-1.2594,-1.222,-1.222,-1.1907,-1.1736,-1.1736,-1.1703,0.0,0.0,0.0,0.0,0.0,0.0,0.0,0.0,0.0,0.0,0.0,0.0,0.0,0.0,-1.9478,0.0,0.0,-2.3287,-2.4776,0.0,0.0,0.0,-2.6688,-2.5304,-2.3607,0.0,0.0,0.0,0.0,0.0,0.0,0.0,0.0,0.0,0.0,0.0,0.0,0.0,0.0,-1.8526,0.0,0.0,0.0,0.0,0.0,0.0,0.0,0.0,0.0,0.0,0.0,0.0,0.0,0.0,0.0,0.0,0.0,0.0,0.0,-3.7054,-3.7524,-3.7924,-3.8186,-3.8265,-3.8396,-3.854,-3.8793,-3.9061,-3.9305,-3.9305,-3.9305,-3.9305,-3.9305,-3.9305,-3.9305,-3.9305,-3.922,-3.9064,-3.881,-3.8594,-3.8376,-3.8103,-3.7979,-3.79,-3.79,-3.79,-3.79,-3.79,-3.79,-3.79,0.0,0.0,0.0,0.0,0.0,0.0,0.0,0.0,0.0,0.0,-1.6639,-1.7669,-1.8282,-1.7746,-1.7061,-1.6306,-1.5625,-1.4903,-1.4092,-1.3415,-1.2951,-1.2816,-1.2235,-1.188,-1.1805,-1.1805,0.0,0.0,0.0,0.0,0.0,0.0,0.0,0.0,0.0,0.0,0.0,0.0,0.0,-1.7374,-1.9319,-2.0901,0.0,0.0,-2.5763,0.0,-2.7521,-2.8187,-2.8579,-2.7122,-2.493,0.0,0.0,0.0,0.0,0.0,-1.6432,0.0,0.0,0.0,0.0,0.0,0.0,0.0,-1.7613,-1.8447,-1.9431,0.0,0.0,0.0,0.0,0.0,0.0,0.0,0.0,0.0,0.0,0.0,0.0,0.0,0.0,0.0,0.0,-3.5328,-3.5614,-3.5394,-3.6417,-3.7302,-3.791,-3.7772,-3.7949,-3.8536,-3.8417,-3.86,-3.9241,-3.921,-3.9237,-3.9305,-3.9305,-3.9305,-3.9305,-3.9305,-3.9305,-3.9292,-3.9006,-3.8792,-3.8591,-3.833,-3.8089,-3.79,-3.79,-3.79,-3.79,-3.79,-3.79,-3.79,-1.3452,0.0,0.0,0.0,0.0,0.0,0.0,0.0,0.0,0.0,-1.8361,-1.9114,-1.9722,-1.9659,-1.9273,-1.8458,-1.7775,-1.6849,-1.5569,-1.486,-1.3973,-1.2846,-1.2669,-1.2355,-1.1805,-1.1805,0.0,0.0,0.0,0.0,0.0,0.0,0.0,0.0,0.0,0.0,0.0,0.0,0.0,-1.7374,-1.9319,0.0,-2.2881,-2.4341,-2.6341,-2.826,-2.784,-2.8435,-2.9131,0.0,-2.5698,-2.4144,0.0,0.0,0.0,0.0,0.0,0.0,0.0,0.0,0.0,0.0,0.0,0.0,-1.7737,-1.793,-1.8365,0.0,0.0,0.0,0.0,0.0,0.0,0.0,0.0,0.0,0.0,0.0,0.0,0.0,0.0,0.0,0.0,-3.4933,-3.5297,-3.526,-3.5484,-3.5791,-3.6225,-3.6672,-3.7107,-3.7552,-3.7812,-3.8218,-3.8803,-3.8673,-3.883,-3.9305,-3.9305,-3.9305,-3.9305,-3.9305,-3.9305,-3.9305,-3.9029,-3.8787,-3.857,-3.8317,-3.8089,-3.79,-3.79,-3.79,-3.79,-3.79,-3.79,-3.79,-1.3984,0.0,0.0,0.0,0.0,0.0,0.0,0.0,0.0,0.0,0.0,-2.0901,-2.1218,-2.1246,-2.0952,-2.0157,-1.9791,-1.8978,-1.7498,-1.6774,-1.5764,-1.436,-1.3985,-1.3328,-1.2325,-1.2295,0.0,0.0,0.0,0.0,0.0,0.0,0.0,0.0,0.0,0.0,0.0,0.0,-1.552,-1.7379,-1.8975,0.0,-2.3033,-2.4346,-2.6445,-2.8665,-2.8318,-2.8811,-2.9407,-2.8158,-2.6866,0.0,0.0,-2.3438,-2.2257,0.0,-2.0901,-2.022,0.0,0.0,0.0,-1.8917,0.0,0.0,0.0,-1.8812,-1.8821,0.0,0.0,0.0,0.0,0.0,0.0,0.0,0.0,0.0,0.0,0.0,0.0,0.0,0.0,0.0,0.0,-3.3424,-3.4028,-3.466,-3.4688,-3.4933,-3.5489,-3.5966,-3.6462,-3.6993,-3.7386,-3.7922,-3.8712,-3.8583,-3.8795,-3.9305,-3.9305,-3.9305,-3.9305,-3.9305,-3.9305,-3.9305,-3.9158,-3.8966,-3.8711,-3.8485,-3.8272,-3.8057,-3.7946,-3.79,-3.79,-3.79,-3.807,-3.8305,-1.4474,0.0,0.0,0.0,0.0,0.0,0.0,0.0,0.0,0.0,0.0,0.0,0.0,0.0,0.0,-2.2053,-2.1991,-2.1289,0.0,0.0,0.0,-1.6278,-1.5558,-1.4568,-1.3208,-1.2936,-1.2534,0.0,0.0,0.0,0.0,0.0,0.0,0.0,0.0,0.0,0.0,0.0,0.0,-1.78,0.0,-2.0756,-2.3033,-2.4307,-2.6405,-2.8738,-2.8985,-2.929,-2.9494,-2.8884,0.0,-2.6837,-2.6039,-2.5081,0.0,0.0,0.0,0.0,0.0,0.0,0.0,0.0,0.0,-2.0618,0.0,0.0,0.0,0.0,0.0,0.0,0.0,0.0,0.0,0.0,0.0,0.0,0.0,0.0,0.0,0.0,0.0,0.0,0.0,-3.1612,-3.2469,-3.348,-3.3649,-3.4028,-3.4795,-3.5143,-3.5701,-3.6551,-3.6855,-3.7496,-3.8484,-3.8523,-3.8749,-3.9173,-3.9251,-3.9305,-3.9305,-3.9305,-3.9305,-3.9305,-3.9305,-3.9145,-3.8908,-3.8711,-3.8498,-3.8258,-3.7979,-3.79,-3.79,-3.79,-3.824,-3.871,-1.458,-1.5149,0.0,0.0,0.0,0.0,0.0,0.0,0.0,0.0,0.0,0.0,0.0,0.0,0.0,0.0,0.0,0.0,-2.195,0.0,0.0,-1.7769,-1.7015,-1.6005,-1.4601,-1.3403,-1.2771,0.0,0.0,0.0,0.0,0.0,0.0,0.0,-1.2478,0.0,0.0,0.0,-1.6954,0.0,-1.9825,-2.121,0.0,-2.4307,-2.6405,-2.8854,-2.9987,-3.0045,-2.9494,0.0,-2.8216,-2.7376,0.0,-2.5716,-2.5444,0.0,0.0,0.0,0.0,0.0,0.0,0.0,-2.1417,0.0,0.0,0.0,0.0,0.0,0.0,0.0,0.0,0.0,0.0,0.0,0.0,0.0,0.0,0.0,0.0,0.0,0.0,0.0,0.0,0.0,-3.0839,-3.1162,-3.156,-3.2314,-3.3466,-3.3571,-3.4385,-3.6121,-3.6046,-3.6517,-3.77,-3.7841,-3.8193,-3.8778,-3.9135,-3.9305,-3.9305,-3.9305,-3.9305,-3.9305,-3.9305,-3.9145,-3.8908,-3.8863,-3.8756,-3.8512,-3.8083,-3.79,-3.79,-3.79,-3.824,-3.871,-1.4612,-1.5453,0.0,0.0,0.0,0.0,0.0,0.0,0.0,0.0,0.0,0.0,0.0,0.0,0.0,0.0,0.0,-2.6366,0.0,0.0,0.0,0.0,0.0,0.0,0.0,-1.5297,-1.4412,-1.4031,-1.2917,0.0,0.0,0.0,0.0,0.0,-1.3077,0.0,-1.5441,0.0,0.0,0.0,0.0,0.0,0.0,-2.4525,-2.6405,-2.8883,-3.0147,-3.0438,-3.0074,0.0,-2.8811,0.0,0.0,0.0,0.0,0.0,0.0,0.0,0.0,0.0,0.0,0.0,0.0,0.0,-2.1743,0.0,-2.1346,0.0,0.0,0.0,0.0,0.0,0.0,0.0,0.0,0.0,0.0,0.0,0.0,0.0,0.0,0.0,0.0,0.0,0.0,0.0,0.0,-3.0783,-3.162,-3.2701,-3.3677,-3.445,-3.5442,-3.6322,-3.7058,-3.784,-3.8347,-3.8719,-3.9275,-3.9452,-3.9305,-3.9305,-3.9305,-3.9305,-3.9305,-3.9247,-3.91,-3.8953,-3.8877,-3.8756,-3.8421,-3.8194,-3.8044,-3.8044,-3.8319,-3.8762,-1.4916,0.0,0.0,0.0,0.0,0.0,0.0,0.0,0.0,0.0,0.0,0.0,-2.7565,-2.8165,0.0,0.0,0.0,-2.8695,0.0,0.0,-2.59,0.0,0.0,0.0,0.0,0.0,-1.6349,-1.5471,-1.4089,0.0,0.0,0.0,0.0,0.0,0.0,-1.4977,-1.6159,0.0,0.0,-2.0374,-2.2496,-2.3939,-2.4902,-2.5641,-2.7108,-2.8911,-3.0147,-3.0598,-3.051,-2.9842,-2.9319,0.0,-2.7956,0.0,0.0,0.0,0.0,0.0,-2.5462,0.0,0.0,0.0,0.0,0.0,0.0,0.0,0.0,0.0,0.0,0.0,0.0,0.0,0.0,0.0,0.0,0.0,0.0,0.0,0.0,0.0,0.0,0.0,0.0,0.0,0.0,-2.7536,-2.835,-2.9195,-2.995,-3.1471,-3.2589,-3.3262,-3.4787,-3.5877,-3.6521,-3.7668,-3.8407,-3.8643,-3.9202,-3.9434,-3.9407,-3.9349,-3.9305,-3.9305,-3.9305,-3.9305,-3.9292,-3.91,-3.9011,-3.9011,-3.8859,-3.8634,-3.8381,-3.8349,-3.8582,-3.895,-1.5686,-1.5645,0.0,0.0,0.0,0.0,0.0,0.0,0.0,0.0,0.0,0.0,0.0,0.0,0.0,0.0,0.0,-3.1012,-3.0309,0.0,-2.8323,0.0,0.0,-2.4065,0.0,0.0,-1.8324,-1.6924,-1.5601,-1.4559,0.0,0.0,0.0,0.0,0.0,-1.6084,-1.6801,-1.8822,-2.0423,-2.1754,-2.2995,-2.4555,-2.6331,0.0,-2.8819,-2.9052,-3.0177,0.0,0.0,-2.9842,-2.9581,0.0,0.0,0.0,0.0,0.0,0.0,0.0,0.0,0.0,0.0,-2.5009,0.0,0.0,0.0,0.0,-2.2707,0.0,0.0,0.0,0.0,0.0,0.0,0.0,0.0,0.0,0.0,0.0,0.0,0.0,0.0,0.0,0.0,0.0,0.0,-2.4847,-2.6105,-2.7439,-2.8675,-2.9378,-3.0839,-3.3206,-3.3922,-3.4871,-3.6131,-3.7107,-3.792,-3.8505,-3.8679,-3.9068,-3.97,-3.9407,-3.9305,-3.9305,-3.9305,-3.9305,-3.9305,-3.9305,-3.9305,-3.9305,-3.9305,-3.9114,-3.8863,-3.8679,-3.8903,-3.9382,0.0,0.0,0.0,0.0,0.0,0.0,0.0,-2.3509,0.0,0.0,0.0,0.0,0.0,0.0,-3.2428,0.0,0.0,-3.3165,-3.2444,-3.2182,0.0,0.0,0.0,-2.7026,0.0,0.0,-2.1155,-1.9794,-1.7898,-1.6392,0.0,0.0,0.0,0.0,0.0,-1.6428,0.0,0.0,0.0,0.0,0.0,-2.6186,-2.7259,0.0,0.0,-2.9206,-3.0485,-3.0925,0.0,-3.0513,-3.0134,-2.9638,-2.8651,-2.8071,-2.7579,-2.6968,-2.6806,0.0,0.0,0.0,-2.6326,-2.5672,0.0,0.0,0.0,0.0,0.0,0.0,0.0,0.0,0.0,0.0,0.0,0.0,0.0,0.0,0.0,0.0,0.0,0.0,0.0,0.0,0.0,0.0,0.0,-2.3635,-2.4867,-2.5961,0.0,-2.8215,-2.9749,-3.1382,-3.3234,-3.4632,-3.5498,-3.7013,-3.8027,-3.8505,-3.8935,-3.9343,-3.97,-3.9598,-3.9452,-3.9305,-3.9305,-3.9305,-3.9305,-3.9305,-3.9305,-3.9305,-3.9305,-3.9247,-3.9158,-3.8877,-3.8831,-3.8935,-1.9506,0.0,0.0,0.0,0.0,0.0,0.0,0.0,0.0,0.0,-2.9228,0.0,-3.2295,0.0,-3.4039,0.0,-3.4998,-3.4767,-3.4522,-3.406,0.0,-3.1524,-3.0828,0.0,0.0,0.0,0.0,-2.2302,-2.0212,-1.8342,0.0,0.0,0.0,0.0,0.0,0.0,0.0,0.0,-2.1719,0.0,0.0,-2.7001,0.0,0.0,-2.903,-2.933,0.0,-3.1117,-3.1087,-3.0955,-3.0646,-3.0147,-2.9084,-2.8474,-2.7937,-2.7053,-2.6806,-2.6806,-2.6806,-2.6806,0.0,-2.5977,-2.5803,0.0,-2.4457,0.0,0.0,0.0,0.0,0.0,0.0,0.0,0.0,0.0,0.0,0.0,0.0,-1.8451,0.0,0.0,0.0,0.0,0.0,0.0,-2.1805,-2.2395,-2.3411,-2.4462,0.0,0.0,-2.8792,-3.0441,-3.2476,-3.4084,-3.5175,-3.6581,-3.7714,-3.867,-3.8936,-3.9407,-3.9963,-3.9862,-3.9672,-3.9452,-3.9452,-3.9394,-3.9305,-3.9305,-3.9305,-3.9305,-3.9305,-3.9305,-3.9305,-3.9114,-3.898,-3.8912,0.0,0.0,0.0,0.0,-2.0242,0.0,0.0,0.0,-2.7491,0.0,-3.1299,-3.287,-3.2788,-3.457,-3.5966,-3.6538,-3.6014,0.0,-3.6584,-3.5383,0.0,0.0,-3.2906,-3.1905,-3.0525,0.0,0.0,0.0,0.0,0.0,0.0,0.0,0.0,0.0,-1.741,0.0,-1.7994,-2.0677,-2.2199,-2.3062,-2.5593,-2.7001,-2.7675,-2.8338,-2.8875,-2.9438,-3.0644,-3.1087,-3.1102,-3.1073,-3.1058,-3.0793,-2.9326,-2.8845,-2.8583,-2.7222,-2.6806,-2.6806,-2.6806,-2.6806,-2.666,-2.6021,0.0,0.0,0.0,0.0,-2.4853,0.0,0.0,0.0,0.0,0.0,0.0,0.0,0.0,0.0,0.0,0.0,0.0,0.0,0.0,0.0,0.0,-1.9957,-2.0583,-2.1153,-2.18,0.0,0.0,0.0,-2.7846,-3.0273,-3.1668,-3.3241,-3.5119,-3.578,-3.7031,-3.886,-3.8642,-3.9173,-4.0343,-4.0126,-3.9892,-3.97,-3.97,-3.9554,-3.9305,-3.9305,-3.9305,-3.9305,-3.9305,-3.9305,-3.9305,-3.9305,-3.9305,-3.9305,-2.2653,-2.3065,-2.3613,0.0,-2.4097,-2.4511,0.0,0.0,0.0,0.0,-3.2285,-3.3584,-3.4989,-3.6065,-3.6907,-3.7577,-3.7824,0.0,0.0,0.0,0.0,-3.5722,-3.5045,-3.3814,-3.1936,-3.0386,0.0,-2.5857,0.0,0.0,-1.8992,0.0,0.0,0.0,0.0,0.0,-1.8121,-2.0818,-2.3135,-2.5108,-2.6171,-2.7001,0.0,0.0,-2.867,-2.8931,-3.0201,-3.0963,-3.132,-3.0699,-3.0508,-3.0257,-2.8761,-2.824,-2.7998,-2.7185,-2.6873,-2.6806,-2.6806,-2.6806,-2.6762,-2.6602,-2.6559,-2.6358,0.0,0.0,0.0,0.0,0.0,0.0,0.0,0.0,0.0,0.0,0.0,0.0,0.0,0.0,0.0,-1.8522,0.0,0.0,-1.8756,-1.9298,-1.9719,-1.9873,-2.0914,0.0,0.0,0.0,0.0,-2.8422,-3.0586,-3.2609,-3.445,-3.5531,-3.6806,-3.8159,-3.8596,-3.9103,-3.966,-4.009,-4.0154,-3.9922,-3.9774,-3.9656,-3.9598,-3.9394,-3.9305,-3.9305,-3.9305,-3.9305,-3.9305,-3.9305,-3.9305,-3.9305,-2.4906,0.0,0.0,-2.7924,0.0,0.0,-2.7952,0.0,0.0,-3.2399,-3.3711,0.0,-3.6369,-3.7136,-3.7919,-3.8856,-3.8932,0.0,-3.9334,0.0,0.0,-3.711,-3.643,-3.5226,-3.3365,-3.169,0.0,-2.7272,0.0,0.0,-1.9703,0.0,0.0,0.0,0.0,-1.8113,0.0,-2.1497,-2.4052,-2.5961,-2.6793,0.0,0.0,-2.806,-2.8338,-2.8697,-2.9415,-3.0103,-3.0599,-3.0142,-2.998,-2.9801,-2.8598,-2.8166,-2.798,-2.7284,-2.6989,-2.6899,-2.6899,-2.6846,-2.6806,-2.6806,-2.6806,-2.6704,-2.6326,-2.6253,-2.6126,0.0,0.0,0.0,0.0,0.0,0.0,0.0,0.0,0.0,0.0,0.0,0.0,0.0,-1.9726,0.0,-1.9098,-1.912,-1.9242,-1.9511,0.0,0.0,0.0,0.0,0.0,-2.7779,-2.9943,-3.1963,-3.3782,-3.5054,-3.6314,-3.7512,-3.8466,-3.9157,-3.9592,-4.0221,-4.0414,-4.0154,-4.0051,-3.995,-3.9804,-3.9659,-3.9571,-3.9452,-3.9349,-3.9305,-3.9305,-3.9305,-3.9305,-3.9305,0.0,0.0,0.0,0.0,0.0,0.0,0.0,-3.1415,0.0,-3.362,0.0,-3.6758,-3.7317,-3.8119,-3.9031,-4.0077,0.0,-3.9654,-4.0214,-3.9605,-3.8886,-3.8136,-3.7375,-3.6228,-3.4688,-3.273,0.0,0.0,0.0,0.0,0.0,0.0,0.0,0.0,0.0,0.0,0.0,-2.2513,-2.48,0.0,-2.724,-2.774,-2.7815,-2.77,-2.8,-2.8498,-2.8498,-2.8978,-2.9592,-2.9517,-2.9487,-2.934,-2.8535,-2.8286,-2.8129,-2.7421,-2.7144,-2.7029,-2.7029,-2.6925,-2.6832,-2.6832,-2.6806,-2.6806,-2.6806,-2.6806,-2.6806,-2.6806,-2.6341,-2.5905,0.0,0.0,0.0,0.0,0.0,0.0,0.0,0.0,0.0,0.0,0.0,0.0,0.0,-1.9294,-1.9117,0.0,0.0,0.0,0.0,0.0,0.0,-2.7583,-2.9454,-3.1302,-3.315,0.0,-3.5766,-3.688,-3.8185,-3.9113,-3.9676,-4.0308,-4.0546,-4.0442,-4.0399,-4.0255,-4.0053,-3.9996,-3.9892,-3.973,-3.9482,-3.9394,-3.9349,-3.9349,-3.9349,-3.9305,0.0,0.0,0.0,0.0,0.0,-3.4168,-3.386,-3.4043,-3.4648,-3.586,-3.6761,-3.7559,-3.8178,-3.9408,-4.0276,-4.048,-4.0759,0.0,0.0,0.0,0.0,-3.9696,-3.8465,-3.7079,-3.5532,-3.4045,-3.1948,0.0,0.0,0.0,0.0,0.0,0.0,0.0,0.0,0.0,-2.1683,-2.3427,0.0,-2.6222,-2.6883,-2.7464,-2.7955,-2.793,-2.7916,-2.7946,-2.7946,-2.8651,-2.9532,-2.8951,-2.8771,-2.8652,-2.7964,-2.7652,-2.755,-2.7405,-2.7258,-2.7155,-2.7155,-2.7067,-2.6951,-2.6951,-2.6873,-2.6806,-2.6806,-2.6806,-2.6806,-2.6806,-2.6718,-2.6471,-2.5905,0.0,0.0,0.0,0.0,0.0,0.0,0.0,0.0,0.0,0.0,0.0,0.0,0.0,0.0,0.0,0.0,0.0,0.0,0.0,0.0,0.0,-2.8714,0.0,0.0,0.0,-3.5555,-3.6286,-3.7484,-3.8397,-3.9085,-3.9662,-4.0224,-4.0616,-4.0471,-4.0356,-4.0298,-4.0097,-3.9966,-3.9966,-3.9922,-3.9804,-3.9642,-3.9642,-3.9496,-3.9305,0.0,0.0,0.0,0.0,0.0,0.0,0.0,-3.7179,0.0,-3.7304,-3.8203,-3.9052,-3.9612,-4.0293,-4.0816,-4.1083,-4.1349,-4.1456,-4.1456,-4.1091,-4.0662,-4.0203,-3.9218,0.0,-3.641,-3.4683,-3.2575,-3.0031,0.0,0.0,0.0,0.0,0.0,0.0,0.0,-2.0793,0.0,0.0,0.0,-2.6888,-2.778,-2.8341,-2.8652,-2.891,-2.8784,-2.842,-2.8328,-2.8473,-2.8606,-2.8199,-2.8094,-2.8034,-2.7705,-2.7549,-2.7499,-2.7499,-2.7412,-2.7284,-2.7284,-2.7222,-2.7093,-2.7093,-2.7067,-2.6989,-2.6925,-2.6899,-2.6873,-2.6806,-2.7041,-2.7171,-2.6852,-2.5995,0.0,0.0,0.0,0.0,0.0,0.0,0.0,0.0,0.0,0.0,0.0,0.0,0.0,0.0,0.0,0.0,0.0,0.0,0.0,0.0,0.0,0.0,0.0,0.0,0.0,-3.5653,-3.7161,-3.8243,-3.893,-3.9535,-4.0112,-4.0702,-4.0587,-4.0544,-4.0544,-4.0284,-4.0198,-4.0198,-4.0053,-3.9922,-3.9848,-3.9848,-3.9791,-3.9645,0.0,-3.6022,0.0,0.0,-3.8003,0.0,-3.8845,-3.9812,-4.0047,-3.8598,-3.953,-4.0447,-4.0801,-4.0976,-4.1182,-4.1623,-4.1621,-4.1588,-4.1588,-4.1588,-4.127,-4.0604,-3.977,-3.8686,-3.7309,-3.5245,-3.3146,0.0,0.0,0.0,0.0,0.0,0.0,0.0,0.0,0.0,0.0,0.0,-2.6472,-2.7719,-2.878,-2.9337,-2.9496,-2.9922,-2.9722,-2.9214,-2.896,-2.8515,-2.7971,-2.7735,-2.7625,-2.76,-2.76,-2.76,-2.76,-2.76,-2.7539,-2.7437,-2.7437,-2.7335,-2.7233,-2.7233,-2.7233,-2.7181,-2.7067,-2.7055,-2.7059,-2.7085,-2.7557,-2.7953,-2.7953,-2.7111,0.0,0.0,0.0,0.0,0.0,0.0,0.0,0.0,0.0,0.0,0.0,0.0,0.0,0.0,0.0,0.0,0.0,0.0,0.0,0.0,0.0,-2.8873,-3.0662,0.0,-3.4584,-3.5217,-3.6933,-3.8032,-3.8719,-3.9352,-3.9929,-4.0519,-4.0631,-4.0702,-4.0702,-4.0515,-4.0471,-4.0428,-4.0227,-4.014,-4.0097,-4.0097,-4.0053,-3.9952,0.0,0.0,0.0,0.0,0.0,0.0,0.0,-4.0966,-4.1132,-4.0192,-4.0633,-4.1021,-4.1054,-4.1502,-4.1835,-4.1866,-4.1703,-4.1588,-4.1588,-4.1588,-4.1557,-4.1494,-4.0214,-3.9062,-3.8199,-3.6142,-3.4297,0.0,0.0,0.0,0.0,0.0,0.0,0.0,0.0,0.0,0.0,-2.638,-2.7626,-2.8381,-2.9095,-2.9756,-3.0283,-3.0345,-3.0252,-3.002,-2.9383,-2.8971,-2.8615,-2.7986,-2.77,-2.76,-2.76,-2.76,-2.76,-2.76,-2.76,-2.7575,-2.7575,-2.7488,-2.7376,-2.7376,-2.7284,-2.7207,-2.7181,-2.7181,-2.7343,-2.7933,-2.8444,-2.8773,-2.8773,-2.8589,-2.8216,0.0,0.0,0.0,0.0,0.0,0.0,0.0,0.0,0.0,0.0,0.0,0.0,0.0,0.0,0.0,0.0,0.0,0.0,-2.5506,0.0,-2.9111,-3.0662,-3.321,-3.4729,-3.5217,-3.6497,-3.7386,-3.8018,-3.8705,-3.9324,-3.9901,-4.0449,-4.0702,-4.0702,-4.0659,-4.0659,-4.0659,-4.0659,-4.0544,-4.0356,-4.0356,-4.0198,-3.9996,0.0,0.0,0.0,0.0,0.0,0.0,0.0,-4.1743,-4.2085,-4.1748,-4.1879,-4.1978,-4.19,-4.2061,-4.2109,-4.1898,-4.1833,-4.1736,-4.1621,-4.1588,-4.1588,-4.1588,-4.0245,-3.9345,-3.903,-3.6981,-3.5147,0.0,0.0,0.0,0.0,0.0,0.0,0.0,0.0,-2.566,-2.6826,-2.7657,-2.8627,-2.9648,-3.0335,-3.0766,-3.1043,-3.1459,-3.1324,-3.0872,-3.0532,-2.9816,-2.8971,-2.8545,-2.8031,-2.76,-2.76,-2.76,-2.76,-2.76,-2.76,-2.76,-2.76,-2.7549,-2.7539,-2.7539,-2.7473,-2.7423,-2.7335,-2.7621,-2.7961,-2.8175,-2.8655,-2.9132,-2.9542,-2.9251,-2.8858,0.0,0.0,0.0,0.0,0.0,0.0,0.0,0.0,0.0,0.0,0.0,0.0,0.0,0.0,0.0,0.0,0.0,0.0,-2.5644,0.0,-2.8886,-3.1025,-3.3115,-3.4612,-3.552,-3.6618,-3.7512,-3.8079,-3.8661,-3.9451,-4.0336,-4.0603,-4.0702,-4.0702,-4.0702,-4.0702,-4.0702,-4.0702,-4.0659,-4.0587,-4.0587,-4.0487,-4.043,-4.1403,0.0,-4.1128,0.0,-4.1549,-4.1889,-4.1889,-4.231,-4.2602,-4.2602,-4.2602,-4.2571,-4.2476,-4.2413,-4.2286,-4.2061,-4.1963,-4.1833,-4.1703,-4.1621,-4.1588,-4.1588,-4.0451,0.0,-3.9503,-3.7686,-3.608,-3.4797,-3.3192,0.0,0.0,0.0,0.0,0.0,-2.6634,-2.7458,-2.8753,-2.8919,-2.9658,-3.0751,-3.1197,-3.1532,-3.1736,-3.2213,-3.209,-3.1659,-3.1351,-3.0639,-2.9719,-2.934,-2.8807,-2.8237,-2.7745,-2.76,-2.76,-2.76,-2.76,-2.76,-2.76,-2.76,-2.76,-2.76,-2.76,-2.7634,-2.7742,-2.8133,-2.8538,-2.8815,-2.9326,-2.9904,-3.0363,-3.001,-2.9613,-2.9422,0.0,0.0,0.0,0.0,0.0,0.0,-2.579,-2.4994,-2.3923,0.0,0.0,0.0,0.0,0.0,0.0,0.0,0.0,0.0,0.0,0.0,0.0,-3.326,-3.4717,-3.5725,-3.6859,-3.7607,-3.8061,-3.8764,-3.9688,-4.0773,-4.0773,-4.073,-4.0702,-4.0702,-4.0702,-4.0702,-4.0702,-4.0702,-4.0702,-4.0702,-4.0702,-4.0702,-4.3524,-4.3055,-4.257,-4.257,-4.2586,-4.2586,-4.2586,-4.2586,-4.2602,-4.2602,-4.2602,-4.2602,-4.2602,-4.2476,-4.2413,-4.2381,-4.2077,-4.1898,-4.1898,-4.1703,-4.1588,0.0,0.0,-4.0245,-3.9518,-3.816,-3.7117,-3.6361,0.0,0.0,-3.2012,0.0,-2.8764,-2.8795,-2.9313,-2.9549,-2.9627,-3.0156,-3.0782,-3.1393,-3.1409,-3.1782,-3.2382,-3.2398,-3.2382,-3.229,-3.1655,-3.1301,-3.106,-3.0402,-3.0079,-2.9705,-2.8106,-2.76,-2.76,-2.76,-2.76,-2.76,-2.76,-2.76,-2.76,-2.76,-2.76,-2.7779,-2.8427,-2.8592,-2.8951,-3.0223,-3.0902,-3.1263,-3.1263,-3.1161,-3.0866,-3.0202,0.0,0.0,0.0,0.0,0.0,0.0,-2.6592,-2.6119,-2.5965,0.0,0.0,0.0,0.0,0.0,0.0,0.0,0.0,-2.6718,-2.8026,0.0,-3.1291,-3.384,-3.5303,-3.5725,-3.701,-3.7586,-3.7629,-3.8924,-4.0044,-4.1001,-4.1001,-4.0887,-4.0702,-4.0702,-4.0702,-4.0702,-4.0702,-4.0702,-4.0702,-4.0702,-4.0702,-4.0702,-4.461,-4.4367,-4.4107,-4.4107,-4.4107,-4.3945,-4.3411,-4.3331,-4.3153,-4.2667,-4.2602,-4.2602,-4.2602,-4.2571,-4.2508,0.0,-4.2286,-4.2141,0.0,-4.1833,-4.1752,-4.1621,-4.0956,-4.0245,-3.9518,-3.8634,-3.7607,-3.6393,0.0,0.0,0.0,-3.1732,-3.0878,-3.0324,-3.0494,-3.0754,-3.112,-3.1181,-3.1623,-3.2199,-3.2129,-3.2198,-3.2398,-3.2398,-3.2398,-3.2367,-3.2151,-3.1755,-3.1286,-3.0964,-3.0544,-3.0033,-2.9436,-2.9169,-2.9106,-2.9106,-2.8711,-2.8263,-2.8263,-2.7959,-2.76,-2.76,-2.7944,-2.8323,-2.8547,-2.928,-3.0148,-3.1002,-3.1317,-3.1438,-3.1438,-3.1395,-3.1291,-3.1097,-3.068,0.0,0.0,0.0,0.0,0.0,-2.6742,-2.6268,0.0,-2.5306,0.0,0.0,0.0,0.0,0.0,0.0,0.0,0.0,-2.9073,0.0,-3.2782,-3.4462,-3.5803,-3.6815,-3.7489,-3.8183,-3.8896,-3.9296,-4.0141,-4.1255,-4.1255,-4.1255,-4.1185,-4.1185,-4.1185,-4.1185,-4.1185,-4.1185,-4.1185,-4.1185,-4.1185,-4.1185,-4.5604,-4.5212,-4.4902,-4.4902,-4.4853,-4.4642,-4.4188,-4.3881,-4.3541,-4.3055,-4.2764,-4.2602,-4.2602,-4.2602,0.0,-4.2476,-4.2413,-4.2318,-4.2109,-4.2012,-4.1915,-4.1703,-4.1307,-4.0594,-3.9518,0.0,0.0,-3.6817,-3.6535,-3.5616,-3.4083,-3.3667,-3.303,-3.2242,-3.2206,-3.2196,-3.2279,-3.2146,-3.2315,-3.2718,-3.2621,-3.2578,-3.2578,-3.2496,-3.248,-3.2453,-3.2425,-3.2121,-3.1767,-3.1673,-3.1355,-3.1002,-3.0922,-3.0815,-3.0603,-3.0034,-2.9478,-2.9045,-2.9045,-2.8704,-2.8349,-2.8349,-2.8678,-2.9026,-2.9265,-3.0133,-3.0972,-3.1406,-3.1511,-3.1511,-3.1511,-3.1511,-3.1511,-3.1511,-3.0956,-3.0283,-2.9669,0.0,0.0,0.0,0.0,0.0,0.0,-2.6849,-2.667,0.0,0.0,0.0,0.0,0.0,0.0,-2.8753,-3.019,0.0,-3.3804,-3.5082,-3.6257,-3.7317,-3.8037,-3.8861,-3.9722,-3.9966,-4.0615,-4.1507,-4.1507,-4.148,-4.1396,-4.1396,-4.1396,-4.1396,-4.1396,-4.1396,-4.1396,-4.1396,-4.1396,-4.1396,-4.6487,-4.5832,0.0,0.0,-4.5114,0.0,-4.4901,-4.4302,-4.3816,-4.3719,-4.3088,-4.2651,-4.2602,-4.2602,-4.2602,-4.2602,0.0,0.0,0.0,-4.2206,-4.2061,-4.1931,-4.1898,-4.1166,-3.9566,-3.9534,-3.887,-3.751,-3.6817,-3.6137,-3.5458,-3.5458,-3.5047,-3.4288,-3.4168,-3.3751,-3.3112,-3.2978,-3.2897,-3.2897,-3.2897,-3.2897,-3.287,-3.2676,-3.2621,-3.2594,-3.2453,-3.2425,-3.2425,-3.2398,-3.2398,-3.2398,-3.2398,-3.2315,-3.1946,-3.0571,-3.0016,-2.9894,-2.9894,-2.9771,-2.9633,-2.9633,-2.9663,-2.9858,-3.046,-3.1076,-3.1511,-3.1511,-3.1511,-3.1511,-3.1511,-3.1511,-3.1511,-3.1511,-3.0883,-3.0238,-2.9696,0.0,0.0,0.0,0.0,0.0,0.0,-2.9089,-2.9379,0.0,0.0,0.0,0.0,0.0,-2.8883,-3.0642,-3.1368,-3.2646,-3.4457,-3.5735,-3.6707,-3.7389,-3.8609,-3.9523,-4.0118,-4.0786,-4.1317,-4.1744,-4.1744,-4.1633,-4.1438,-4.1438,-4.1438,-4.1438,-4.1438,-4.1438,-4.1438,-4.1438,-4.1438,-4.1452,0.0,0.0,-4.6929,-4.6929,-4.6762,-4.6449,-4.5862,-4.5519,-4.4933,-4.3848,-4.3557,-4.3217,-4.2651,-4.2602,-4.2602,-4.2602,-4.2571,-4.2508,-4.2413,-4.2349,-4.2254,-4.2061,-4.2061,-4.131,-3.9753,-3.9737,-3.8994,-3.751,-3.7352,-3.6864,-3.6156,-3.6156,-3.5505,-3.4288,-3.4261,-3.3871,-3.3256,-3.3112,-3.3058,-3.3043,-3.2924,-3.2897,-3.2897,-3.2843,-3.2843,-3.28,-3.2621,-3.2551,-3.2551,-3.2425,-3.2398,-3.2398,-3.2398,-3.237,-3.2253,-3.1809,-3.1229,-3.0713,-3.0713,-3.0319,-2.991,-2.991,-3.0292,-3.0797,-3.1364,-3.1622,-3.1698,-3.1539,-3.1511,-3.1511,-3.1511,-3.1511,-3.1511,-3.1511,-3.0552,-2.9744,-2.9636,-2.8588,0.0,0.0,-2.8502,-2.8801,-2.9268,-2.9786,-3.0089,0.0,0.0,0.0,0.0,-3.1706,-3.1764,-3.1749,-3.3324,-3.4534,-3.5302,-3.6652,-3.7543,-3.7999,-3.8812,-3.9523,-4.0118,-4.0786,-4.1413,-4.1995,-4.1995,-4.1968,-4.1926,-4.1926,-4.1926,-4.1926,-4.1926,-4.1926,-4.1926,-4.1926,-4.1926,-4.1984,-4.7853,-4.7688,-4.7588,-4.7588,-4.7454,-4.7188,-4.6796,-4.6353,-4.5701,-4.4561,-4.4138,-4.365,-4.2917,-4.279,-4.2744,-4.2744,-4.2665,-4.2571,-4.2508,-4.2508,-4.2413,-4.2238,-4.1901,-4.1165,-3.9923,-3.9604,-3.8858,-3.7671,-3.7671,-3.7451,-3.6983,-3.6983,-3.621,-3.4794,-3.4794,-3.4241,-3.3309,-3.3229,-3.3203,-3.3176,-3.3096,-3.3085,-3.3085,-3.3005,-3.3005,-3.2978,-3.28,-3.2746,-3.2746,-3.2648,-3.2621,-3.2621,-3.2523,-3.2496,-3.2468,-3.2315,-3.1931,-3.1561,-3.1561,-3.1232,-3.0916,-3.0916,-3.1204,-3.1513,-3.1836,-3.1898,-3.1841,-3.1655,-3.1641,-3.1597,-3.1511,-3.1511,-3.1511,-3.1511,-3.0432,-2.9606,-2.9606,-2.8723,0.0,-2.8562,-2.9116,-2.9729,-3.0402,-3.0975,-3.1409,-3.1752,-3.2377,0.0,-3.318,-3.3787,-3.3917,-3.345,-3.4454,-3.5539,-3.6637,-3.7636,-3.8385,-3.8804,-3.9459,-4.0022,-4.0583,-4.125,-4.1758,-4.2092,-4.2092,-4.2092,-4.2092,-4.2092,-4.2092,-4.2092,-4.2092,-4.2092,-4.2092,-4.2092,-4.2092,-4.2179,-4.8001,-4.7853,-4.7754,-4.7754,-4.7621,-4.7537,-4.7537,-4.6979,-4.6291,-4.5553,-4.4816,-4.4096,-4.3359,-4.3072,-4.293,-4.293,-4.2759,-4.2634,-4.2602,-4.2602,-4.2539,-4.2445,-4.172,-4.095,-4.0044,-3.9246,-3.8542,-3.7905,-3.7905,-3.7847,-3.773,-3.7618,-3.6829,-3.5478,-3.5324,-3.4564,-3.3346,-3.3346,-3.3361,-3.3319,-3.3319,-3.3335,-3.3282,-3.3176,-3.3123,-3.3096,-3.2978,-3.2924,-3.2924,-3.2912,-3.2897,-3.287,-3.2703,-3.2648,-3.2621,-3.2523,-3.2385,-3.2247,-3.2247,-3.215,-3.2066,-3.2066,-3.2066,-3.2053,-3.2038,-3.2038,-3.1996,-3.187,-3.1841,-3.1756,-3.1568,-3.1539,-3.1539,-3.1511,-3.0507,-2.9756,-2.9756,0.0,-2.8786,-2.8876,-2.9939,-3.0898,-3.1585,-3.2333,-3.3036,-3.3604,-3.3829,-3.4188,-3.4773,-3.5429,-3.5687,-3.5511,-3.5511,-3.6335,-3.8073,-3.8568,-3.9047,-3.9557,-4.0163,-4.0689,-4.116,-4.1828,-4.2133,-4.2092,-4.2092,-4.2092,-4.2092,-4.2092,-4.2092,-4.2092,-4.2092,-4.2092,-4.2092,-4.2092,-4.2192,-4.2366,-4.8001,-4.7968,-4.7968,-4.7968,-4.7787,-4.7671,-4.7671,-4.7472,-4.7077,-4.634,-4.557,-4.4849,-4.4112,-4.3442,-4.3082,-4.3082,-4.2945,-4.2775,-4.2602,-4.2602,-4.2602,-4.2571,-4.1923,-4.115,-4.0275,-3.8825,-3.8001,-3.7905,-3.7905,-3.7905,-3.786,-3.7297,-3.655,-3.5708,-3.5074,-3.4383,-3.3658,-3.3658,-3.3581,-3.3477,-3.3477,-3.3398,-3.3309,-3.3282,-3.3282,-3.3256,-3.3123,-3.3085,-3.3058,-3.2924,-3.2897,-3.2897,-3.287,-3.2843,-3.2843,-3.2843,-3.2691,-3.2523,-3.2398,-3.2342,-3.2342,-3.2342,-3.2342,-3.233,-3.2191,-3.2178,-3.215,-3.1996,-3.1968,-3.1912,-3.1784,-3.1756,-3.1698,-3.1539,-3.0866,-3.0357,-3.0357,0.0,-2.9624,-3.0148,-3.0868,-3.1615,-3.2273,-3.3455,-3.4249,-3.4354,-3.5385,-3.6073,-3.6163,-3.6761,-3.7325,-3.7844,-3.7874,-3.8221,-3.8905,-3.8848,-3.9121,-3.9761,-4.0409,-4.094,-4.1372,-4.2059,-4.2242,-4.2092,-4.2092,-4.2092,-4.2092,-4.2092,-4.2092,-4.2092,-4.2092,-4.2092,-4.2092,-4.2092,-4.2551,-4.3299,-4.8115,-4.8066,-4.8001,-4.8001,-4.7919,-4.7853,-4.7853,-4.7803,-4.7507,-4.6765,-4.6039,-4.5298,-4.4556,-4.3739,-4.3265,-4.3265,-4.3099,-4.2976,-4.2867,-4.268,-4.2424,-4.2083,-4.1371,-4.045,-3.9295,-3.856,-3.8164,-3.8164,-3.8164,-3.8135,-3.8033,-3.7355,-3.6593,-3.5762,-3.5043,-3.434,-3.3694,-3.3694,-3.3668,-3.3607,-3.3607,-3.3581,-3.3529,-3.3529,-3.3477,-3.3398,-3.3319,-3.3282,-3.3203,-3.3139,-3.3112,-3.3096,-3.3032,-3.3005,-3.3005,-3.2924,-3.2746,-3.2578,-3.2425,-3.2398,-3.2398,-3.2398,-3.2398,-3.2398,-3.2315,-3.233,-3.2366,-3.2608,-3.2656,-3.272,-3.2955,-3.2699,-3.2428,-3.2326,-3.1423,0.0,0.0,-3.0847,-3.0998,-3.127,-3.2235,-3.3125,-3.3789,-3.4407,-3.5056,-3.5797,-3.6315,-3.676,-3.7121,-3.7668,-3.8078,-3.8377,-3.8751,-3.9059,-3.925,-3.9534,-3.9929,-4.0497,-4.1119,-4.1691,-4.2126,-4.2434,-4.25,-4.2433,-4.2433,-4.2433,-4.2433,-4.2433,-4.2433,-4.2433,-4.2433,-4.2433,-4.2433,-4.2433,-4.2911,-4.3639,-4.826,-4.8179,-4.8099,-4.8049,-4.8066,-4.8033,-4.8001,-4.8001,-4.7802,-4.7222,-4.6361,-4.5566,-4.5003,-4.4051,-4.3449,-4.3449,-4.3281,-4.3174,-4.3174,-4.2704,-4.2225,-4.1659,-4.0753,-3.9671,-3.8424,-3.8391,-3.8391,-3.8391,-3.8391,-3.8351,-3.825,-3.7335,-3.6543,-3.5872,-3.4974,-3.4284,-3.3797,-3.3797,-3.3771,-3.3761,-3.3761,-3.3736,-3.3694,-3.3694,-3.3633,-3.3555,-3.3555,-3.345,-3.3361,-3.3361,-3.3335,-3.3282,-3.3176,-3.315,-3.3123,-3.3032,-3.2854,-3.2676,-3.2496,-3.2453,-3.2425,-3.2425,-3.2398,-3.2428,-3.2598,-3.2628,-3.2801,-3.3378,-3.3502,-3.3626,-3.3968,-3.3619,-3.3269,-3.3255,0.0,0.0,0.0,-3.2133,-3.2452,-3.2452,-3.3499,-3.441,-3.4957,-3.5154,-3.5732,-3.6917,-3.6995,-3.7273,-3.7903,-3.8412,-3.8687,-3.8631,-3.914,-3.9448,-3.9649,-4.0142,-4.0741,-4.1409,-4.187,-4.2332,-4.2769,-4.2769,-4.2729,-4.2688,-4.2688,-4.2688,-4.2688,-4.2688,-4.2688,-4.2688,-4.2688,-4.2688,-4.2688,-4.2688,-4.3142,-4.3874,-4.8483,-4.8483,-4.842,-4.8227,-4.8195,-4.813,-4.8033,-4.8001,-4.7984,-4.7934,-4.6676,-4.5765,-4.5715,-4.4426,-4.3598,-4.3598,-4.3462,-4.3372,-4.3372,-4.2534,-4.1961,-4.1778,-4.0358,-3.9201,-3.8424,-3.8391,-3.8391,-3.8391,-3.8391,-3.8391,-3.8375,-3.6988,-3.6325,-3.6211,-3.4787,-3.4124,-3.4075,-3.4075,-3.4,-3.3873,-3.3873,-3.3797,-3.3694,-3.3694,-3.3694,-3.3684,-3.3684,-3.3607,-3.3477,-3.3477,-3.3398,-3.3309,-3.3282,-3.3282,-3.3282,-3.3282,-3.3176,-3.2989,-3.2676,-3.2578,-3.2551,-3.2425,-3.2398,-3.2552,-3.3183,-3.3336,-3.3537,-3.4245,-3.4398,-3.434,-3.4223,-3.4133,-3.4073,-3.3939,0.0,0.0,-3.3787,-3.3803,-3.3863,-3.3863,-3.4501,-3.4957,-3.5018,-3.5564,-3.6233,-3.6947,-3.7567,-3.8118,-3.8596,-3.9259,-3.9514,-3.9349,-3.9358,-3.9709,-4.0322,-4.0382,-4.104,-4.2282,-4.2342,-4.2568,-4.2996,-4.2996,-4.2875,-4.2688,-4.2688,-4.2688,-4.2688,-4.2688,-4.2688,-4.2688,-4.2688,-4.2688,-4.2688,-4.2688,-4.3223,-4.4053,-4.8707,-4.8595,-4.8483,-4.8388,-4.8388,-4.8356,-4.8308,-4.8212,-4.8115,-4.8115,-4.717,-4.6295,-4.5847,-4.4887,-4.4108,-4.3631,-4.3568,-4.3522,-4.3522,-4.2252,-4.1251,-4.0651,-3.9613,-3.8933,-3.8655,-3.8655,-3.86,-3.8504,-3.8504,-3.8476,-3.8375,-3.7388,-3.6934,-3.6886,-3.5914,-3.5461,-3.5461,-3.5461,-3.5435,-3.535,-3.4881,-3.4662,-3.4562,-3.4127,-3.3899,-3.3822,-3.3822,-3.4034,-3.4313,-3.4313,-3.4494,-3.4725,-3.4725,-3.4671,-3.4589,-3.4589,-3.4577,-3.4494,-3.4272,-3.3493,-3.2854,-3.3147,-3.3212,-3.337,-3.395,-3.406,-3.4289,-3.4998,-3.5136,-3.5214,-3.5569,-3.5277,-3.5001,-3.4941,0.0,-3.4328,-3.4328,-3.468,-3.4941,-3.4941,-3.5508,-3.5952,-3.5952,-3.6534,-3.7208,-3.7866,-3.844,-3.9025,-3.9675,-3.9703,-3.9841,-4.019,-4.0096,-4.0142,-4.0397,-4.1205,-4.1916,-4.2396,-4.2776,-4.305,-4.321,-4.321,-4.313,-4.305,-4.305,-4.305,-4.305,-4.305,-4.305,-4.305,-4.305,-4.305,-4.305,-4.305,-4.3547,-4.4299,-4.8863,-4.8753,-4.8642,-4.8595,-4.8578,-4.8578,-4.8515,-4.8388,-4.8292,-4.8292,-4.7547,-4.6721,-4.5974,-4.5166,-4.439,-4.3664,-4.3598,-4.3598,-4.3598,-4.2121,-4.0753,-3.9591,-3.9067,-3.8805,-3.8805,-3.8805,-3.875,-3.8655,-3.8655,-3.8616,-3.8516,-3.7801,-3.746,-3.7427,-3.6728,-3.6436,-3.6436,-3.6436,-3.6393,-3.6334,-3.5798,-3.5578,-3.5477,-3.4975,-3.4746,-3.4642,-3.4642,-3.4897,-3.5193,-3.5193,-3.5406,-3.5669,-3.5669,-3.5574,-3.5478,-3.5478,-3.5435,-3.5394,-3.5282,-3.4478,-3.3756,-3.4014,-3.4066,-3.4224,-3.4835,-3.4976,-3.5161,-3.5812,-3.5951,-3.6106,-3.6569,-3.6276,-3.5951,-3.589,-3.5489,-3.5196,-3.5136,-3.5537,-3.5799,-3.5799,-3.6215,-3.6569,-3.6784,-3.723,-3.7877,-3.8769,-3.9097,-3.9596,-4.0266,-4.0178,-4.0281,-4.0697,-4.0987,-4.11,-4.101,-4.1946,-4.2515,-4.2671,-4.312,-4.329,-4.329,-4.329,-4.329,-4.329,-4.329,-4.329,-4.329,-4.329,-4.329,-4.329,-4.329,-4.329,-4.329,-4.3384,-4.3708,-4.4228,-4.9001,-4.9001,-4.894,-4.8801,-4.8818,-4.8738,-4.8547,-4.8515,-4.8515,-4.8515,-4.7755,-4.6943,-4.6193,-4.5275,-4.4406,-4.3664,-4.3598,-4.3598,-4.3598,-4.2237,-4.064,-3.8898,-3.8805,-3.8805,-3.8805,-3.8805,-3.8805,-3.8805,-3.8805,-3.8805,-3.8788,-3.8127,-3.7816,-3.7783,-3.7046,-3.6734,-3.6734,-3.6734,-3.6656,-3.6525,-3.6509,-3.6419,-3.6319,-3.6303,-3.6303,-3.6303,-3.6303,-3.619,-3.6018,-3.6018,-3.591,-3.5817,-3.5817,-3.574,-3.5617,-3.5617,-3.5506,-3.541,-3.541,-3.541,-3.5338,-3.4995,-3.4909,-3.5096,-3.5829,-3.6001,-3.6188,-3.6874,-3.7015,-3.7015,-3.7015,-3.7015,-3.6938,-3.6723,-3.6693,-3.6662,-3.6523,-3.6492,-3.6492,-3.6492,-3.6492,-3.6769,-3.7446,-3.7507,-3.8077,-3.9382,-3.949,-3.9729,-4.0281,-4.0741,-4.0925,-4.0728,-4.2002,-4.2619,-4.241,-4.241,-4.2701,-4.329,-4.329,-4.329,-4.329,-4.329,-4.329,-4.329,-4.329,-4.329,-4.329,-4.329,-4.329,-4.329,-4.329,-4.329,-4.3329,-4.3596,-4.369,-4.382,-4.9001,-4.9001,-4.897,-4.8956,-4.8956,-4.8909,-4.8877,-4.8753,-4.8707,-4.8707,-4.8379,-4.7835,-4.7099,-4.6316,-4.5534,-4.4799,-4.4236,-4.3735,-4.3201,-4.2751,-4.1822,-4.0274,-3.9537,-3.9148,-3.9148,-3.9148,-3.9094,-3.8942,-3.8942,-3.8887,-3.8805,-3.8592,-3.8494,-3.8494,-3.8264,-3.8166,-3.8166,-3.8166,-3.8139,-3.8063,-3.7588,-3.7296,-3.7096,-3.6609,-3.6366,-3.6303,-3.6303,-3.6567,-3.6901,-3.6901,-3.7157,-3.7464,-3.7322,-3.7237,-3.7208,-3.7208,-3.7138,-3.7023,-3.7023,-3.6951,-3.6708,-3.5972,-3.5788,-3.5962,-3.6577,-3.6703,-3.6765,-3.6968,-3.7015,-3.7015,-3.7015,-3.7015,-3.6969,-3.6908,-3.6908,-3.6908,-3.6847,-3.6847,-3.6847,-3.6847,-3.7126,-3.7419,-3.762,-3.8419,-3.9059,-3.9459,-3.992,-4.0505,-4.1177,-4.1214,-4.1589,-4.2498,-4.2773,-4.3099,-4.3529,-4.3202,-4.3135,-4.329,-4.329,-4.329,-4.329,-4.329,-4.329,-4.329,-4.329,-4.329,-4.329,-4.329,-4.3423,-4.3596,-4.3596,-4.3675,-4.3778,-4.3871,-4.391,-4.4001,-4.9001,-4.9001,-4.9001,-4.9001,-4.9001,-4.9001,-4.9001,-4.8925,-4.8894,-4.8894,-4.8738,-4.8341,-4.762,-4.6803,-4.5989,-4.5265,-4.4516,-4.3913,-4.3461,-4.3171,-4.2618,-4.1703,-4.0548,-3.9758,-3.9458,-3.9405,-3.9325,-3.9202,-3.9148,-3.9094,-3.9013,-3.9013,-3.9013,-3.9013,-3.9013,-3.9013,-3.9013,-3.9013,-3.8942,-3.8854,-3.8427,-3.8166,-3.7965,-3.7567,-3.7367,-3.7275,-3.7275,-3.7525,-3.7799,-3.7799,-3.8007,-3.8266,-3.8135,-3.8049,-3.802,-3.802,-3.7905,-3.7788,-3.7788,-3.773,-3.7546,-3.7001,-3.679,-3.6812,-3.7117,-3.7211,-3.7211,-3.7211,-3.7211,-3.7211,-3.7211,-3.7211,-3.7181,-3.7075,-3.7075,-3.7044,-3.7015,-3.7015,-3.7108,-3.7358,-3.7655,-3.8043,-3.8602,-3.9311,-3.98,-3.9995,-4.0589,-4.114,-4.1571,-4.2007,-4.2542,-4.3295,-4.3434,-4.3693,-4.3988,-4.3699,-4.3581,-4.3581,-4.3581,-4.3581,-4.3581,-4.3581,-4.3581,-4.3581,-4.3581,-4.3581,-4.3581,-4.3581,-4.366,-4.3832,-4.3832,-4.391,-4.4026,-4.4104,-4.4127,-4.4188,-4.9032,-4.9001,-4.9001,-4.9001,-4.9001,-4.9001,-4.9001,-4.9001,-4.9001,-4.9001,-4.8894,-4.8548,-4.7888,-4.6996,-4.615,-4.5395,-4.4607,-4.4126,-4.4126,-4.3518,-4.3116,-4.3048,-4.1758,-4.0668,-3.9847,-3.9623,-3.9528,-3.9528,-3.9405,-3.9325,-3.9325,-3.9325,-3.9325,-3.9325,-3.9325,-3.9325,-3.9325,-3.9325,-3.9202,-3.905,-3.9023,-3.8942,-3.8832,-3.8832,-3.8805,-3.8805,-3.8805,-3.8711,-3.8616,-3.8616,-3.8532,-3.842,-3.842,-3.8335,-3.8221,-3.8237,-3.8078,-3.7934,-3.7934,-3.7905,-3.7905,-3.7905,-3.77,-3.7539,-3.751,-3.751,-3.751,-3.751,-3.751,-3.751,-3.751,-3.751,-3.7435,-3.7254,-3.7224,-3.718,-3.706,-3.7092,-3.7357,-3.7982,-3.8154,-3.87,-3.9996,-4.015,-4.0364,-4.0786,-4.1326,-4.1652,-4.1714,-4.2915,-4.3565,-4.3402,-4.3999,-4.4243,-4.4065,-4.4065,-4.4026,-4.3988,-4.3988,-4.3988,-4.3988,-4.3988,-4.3988,-4.3988,-4.3988,-4.3988,-4.3988,-4.3988,-4.4026,-4.4026,-4.4026,-4.4026,-4.4065,-4.4243,-4.432,-4.4358,-4.9168,-4.9063,-4.9001,-4.9001,-4.9001,-4.9001,-4.9001,-4.9001,-4.9001,-4.9001,-4.897,-4.8889,-4.872,-4.8014,-4.7241,-4.6511,-4.5245,-4.4485,-4.4485,-4.4333,-4.3979,-4.3344,-4.3006,-4.2213,-4.0906,-4.0083,-3.9668,-3.9668,-3.9625,-3.9599,-3.9599,-3.9599,-3.9599,-3.9599,-3.9599,-3.9599,-3.9599,-3.9484,-3.9432,-3.9379,-3.9272,-3.9121,-3.8942,-3.8942,-3.8887,-3.8805,-3.8805,-3.8777,-3.8766,-3.8766,-3.8738,-3.8694,-3.8588,-3.8532,-3.8476,-3.8408,-3.825,-3.8135,-3.8135,-3.802,-3.7905,-3.7905,-3.7847,-3.7788,-3.7671,-3.7569,-3.751,-3.751,-3.751,-3.751,-3.751,-3.751,-3.748,-3.7435,-3.7435,-3.7405,-3.7391,-3.7848,-3.8227,-3.8369,-3.9235,-3.9925,-4.0239,-4.0622,-4.0912,-4.1018,-4.1484,-4.1999,-4.2525,-4.3198,-4.3818,-4.4303,-4.4472,-4.4496,-4.4473,-4.4473,-4.432,-4.3988,-4.3988,-4.3988,-4.3988,-4.3988,-4.3988,-4.3988,-4.3988,-4.3988,-4.3988,-4.3988,-4.4104,-4.4243,-4.4243,-4.432,-4.4473,-4.4511,-4.4534,-4.4549,-4.935,-4.9199,-4.9094,-4.9094,-4.9032,-4.9001,-4.9001,-4.9001,-4.9001,-4.9001,-4.9001,-4.9001,-4.9001,-4.8359,-4.7479,-4.6363,-4.5568,-4.4976,-4.4632,-4.4615,-4.4401,-4.3995,-4.3606,-4.3037,-4.2286,-4.104,-4.0211,-3.9798,-3.9729,-3.9703,-3.9703,-3.9703,-3.9703,-3.9703,-3.9703,-3.9703,-3.9703,-3.9642,-3.959,-3.959,-3.9537,-3.9388,-3.9228,-3.9228,-3.9148,-3.904,-3.904,-3.8985,-3.8936,-3.9242,-3.9313,-3.935,-3.967,-3.9511,-3.9205,-3.9149,-3.878,-3.8391,-3.8391,-3.825,-3.8135,-3.8135,-3.8078,-3.7992,-3.7847,-3.773,-3.77,-3.77,-3.77,-3.77,-3.77,-3.77,-3.7812,-3.8162,-3.8209,-3.8291,-3.8564,-3.8898,-3.9232,-3.9471,-4.0071,-4.0574,-4.0889,-4.1102,-4.1187,-4.1187,-4.1937,-4.2528,-4.2777,-4.3716,-4.4331,-4.461,-4.461,-4.461,-4.461,-4.461,-4.4496,-4.4281,-4.4281,-4.4281,-4.4281,-4.4281,-4.4281,-4.4281,-4.4281,-4.4281,-4.4281,-4.4281,-4.4358,-4.4435,-4.4435,-4.4511,-4.461,-4.461,-4.4648,-4.4723,-4.9577,-4.9381,-4.926,-4.926,-4.9155,-4.9094,-4.9094,-4.9094,-4.9094,-4.9094,-4.9094,-4.9094,-4.9094,-4.8419,-4.7437,-4.6094,-4.5857,-4.5467,-4.4732,-4.4682,-4.4682,-4.4682,-4.4027,-4.3593,-4.3474,-4.2298,-4.117,-4.0112,-3.9874,-3.9781,-3.9781,-3.9781,-3.9781,-3.9781,-3.9781,-3.9781,-3.9781,-3.9755,-3.9729,-3.9729,-3.9703,-3.9625,-3.9537,-3.9537,-3.9475,-3.9369,-3.9501,-3.9466,-3.9484,-3.9982,-4.0167,-4.0266,-4.0845,-4.0615,-4.0139,-4.0082,-3.9588,-3.9019,-3.9019,-3.8934,-3.8849,-3.8849,-3.8735,-3.8592,-3.8447,-3.8139,-3.7905,-3.7905,-3.8001,-3.8081,-3.8081,-3.8176,-3.8494,-3.9086,-3.9182,-3.9344,-3.9782,-3.9942,-4.0166,-4.0594,-4.0736,-4.0988,-4.1541,-4.1456,-4.1404,-4.1529,-4.2535,-4.3125,-4.3071,-4.4266,-4.4874,-4.4701,-4.4648,-4.4648,-4.4648,-4.4625,-4.461,-4.461,-4.461,-4.461,-4.461,-4.461,-4.461,-4.461,-4.461,-4.461,-4.461,-4.461,-4.461,-4.461,-4.461,-4.461,-4.4663,-4.4701,-4.4814,-4.4964,-4.9679,-4.956,-4.9458,-4.9458,-4.9458,-4.9428,-4.9428,-4.9428,-4.9428,-4.9428,-4.9428,-4.9428,-4.9428,-4.8762,-4.7977,-4.7062,-4.6408,-4.5725,-4.4975,-4.4968,-4.4968,-4.4968,-4.4838,-4.448,-4.3849,-4.3627,-4.2694,-4.1026,-4.0383,-4.0062,-4.0062,-4.0062,-4.0062,-4.0062,-4.0062,-4.0062,-4.0037,-3.991,-3.9875,-3.9875,-3.9755,-3.9677,-3.9677,-3.9677,-3.9651,-3.9709,-4.0244,-4.0696,-4.1087,-4.1187,-4.122,-4.1191,-4.1177,-4.1115,-4.1004,-4.0894,-4.077,-4.0676,-4.0676,-4.066,-4.0647,-4.0647,-4.0547,-4.0447,-4.0417,-3.9124,-3.7905,-3.7905,-3.843,-3.8846,-3.8846,-3.9358,-3.9836,-3.9932,-3.9948,-3.998,-4.0046,-4.0558,-4.0895,-4.0785,-4.118,-4.1494,-4.1573,-4.1588,-4.1824,-4.2455,-4.3041,-4.3612,-4.4136,-4.4804,-4.5145,-4.5129,-4.4964,-4.4874,-4.4874,-4.4685,-4.461,-4.461,-4.461,-4.461,-4.461,-4.461,-4.461,-4.461,-4.461,-4.461,-4.461,-4.461,-4.461,-4.461,-4.461,-4.4685,-4.4874,-4.5055,-4.5145,-4.5182,-4.986,-4.9725,-4.9619,-4.9619,-4.9547,-4.9518,-4.9518,-4.9518,-4.9518,-4.9518,-4.9518,-4.9518,-4.9518,-4.9227,-4.8514,-4.7318,-4.6908,-4.6225,-4.5091,-4.5005,-4.5005,-4.5005,-4.5005,-4.4851,-4.4526,-4.4116,-4.3507,-4.2694,-4.1529,-4.0729,-4.032,-4.032,-4.032,-4.032,-4.032,-4.032,-4.0296,-4.0163,-4.013,-4.0104,-3.9986,-3.9884,-3.9857,-4.026,-4.0376,-4.0397,-4.108,-4.1411,-4.1632,-4.2048,-4.2095,-4.2075,-4.2431,-4.2266,-4.1906,-4.1882,-4.1482,-4.1111,-4.1111,-4.107,-4.0983,-4.0983,-4.0971,-4.0912,-4.0912,-4.019,-3.9473,-3.9398,-3.961,-3.9836,-3.9836,-4.0093,-4.0462,-4.0865,-4.0929,-4.1044,-4.1353,-4.1627,-4.1741,-4.155,-4.1724,-4.1866,-4.1784,-4.1784,-4.202,-4.2665,-4.3242,-4.3815,-4.4349,-4.5013,-4.5331,-4.5182,-4.5092,-4.5092,-4.5092,-4.4889,-4.4761,-4.4761,-4.4648,-4.461,-4.461,-4.461,-4.461,-4.461,-4.461,-4.461,-4.461,-4.4723,-4.4761,-4.4761,-4.4889,-4.498,-4.5092,-4.5182,-4.5257,-4.5368]},{"header":{"parameterUnit":"m.s-1","parameterCategory":1,"la1":30.6,"la2":28.766,"lo1":-90.7593,"lo2":-88.6598,"dy":0.0162,"dx":0.0183,"nx":116,"ny":114,"refTime":"2023-07-17T00:00:00:Z","depth":0,"parameterNumber":3,"parameterNumberName":"V-component_of_WINDS"},"data":[0.0,0.0,0.0,0.0,0.0,0.0,0.0,0.0,0.0,0.0,0.0,0.0,0.0,0.0,0.0,0.0,0.0,0.0,0.0,0.0,0.0,0.0,0.0,0.0,0.0,0.0,0.0,0.0,0.0,0.0,0.0,0.0,0.0,0.0,0.0,0.0,0.0,0.0,0.0,0.0,0.0,0.0,0.0,0.0,0.0,0.0,0.0,0.0,0.0,0.0,0.0,0.0,0.0,0.0,0.0,0.0,0.0,0.0,0.0,0.0,0.0,0.0,0.0,0.0,0.0,0.0,0.0,0.0,0.0,0.0,0.0,0.0,0.0,0.0,0.0,0.0,0.0,0.0,0.0,0.0,0.0,0.0,0.0,0.0,0.0,0.0,0.0,0.0,0.0,0.0,0.0,0.0,0.0,0.0,0.0,0.0,0.0,0.0,0.0,0.0,0.0,0.0,0.0,0.0,0.0,0.0,0.0,0.0,0.0,0.0,0.0,0.0,0.0,0.0,0.0,0.0,0.0,0.0,0.0,0.0,0.0,0.0,0.0,0.0,0.0,0.0,0.0,0.0,0.0,0.0,0.0,0.0,0.0,0.0,0.0,0.0,0.0,0.0,0.0,0.0,0.0,0.0,0.0,0.0,0.0,0.0,0.0,0.0,0.0,0.0,0.0,0.0,0.0,0.0,0.0,0.0,0.0,0.0,0.0,0.0,0.0,0.0,0.0,0.0,0.0,0.0,0.0,0.0,0.0,0.0,0.0,0.0,0.0,0.0,0.0,0.0,0.0,0.0,0.0,0.0,0.0,0.0,0.0,0.0,0.0,0.0,0.0,0.0,0.0,0.0,0.0,0.0,0.0,0.0,0.0,0.0,0.0,0.0,0.0,0.0,0.0,0.0,0.0,0.0,0.0,0.0,0.0,0.0,0.0,0.0,0.0,0.0,0.0,0.0,0.0,0.0,0.0,0.0,0.0,0.0,0.0,0.0,0.0,0.0,0.0,0.0,0.0,0.0,0.0,0.0,0.0,0.0,0.0,0.0,0.0,0.0,0.0,0.0,0.0,0.0,0.0,0.0,0.0,0.0,0.0,0.0,0.0,0.0,0.0,0.0,0.0,0.0,0.0,0.0,0.0,0.0,0.0,0.0,0.0,0.0,0.0,0.0,0.0,0.0,0.0,0.0,0.0,0.0,0.0,0.0,0.0,0.0,0.0,0.0,0.0,0.0,0.0,0.0,0.0,0.0,0.0,0.0,0.0,0.0,0.0,0.0,0.0,0.0,0.0,0.0,0.0,0.0,0.0,0.0,0.0,0.0,0.0,0.0,0.0,0.0,0.0,0.0,0.0,0.0,0.0,0.0,0.0,0.0,0.0,0.0,0.0,0.0,0.0,0.0,0.0,0.0,0.0,0.0,0.0,0.0,0.0,0.0,0.0,0.0,0.0,0.0,0.0,0.0,0.0,0.0,0.0,0.0,0.0,0.0,0.0,0.0,0.0,0.0,0.0,0.0,0.0,0.0,0.0,0.0,0.0,0.0,0.0,0.0,0.0,0.0,0.0,0.0,0.0,0.0,0.0,0.0,0.0,0.0,0.0,0.0,0.0,0.0,0.0,0.0,0.0,0.0,0.0,0.0,0.0,0.0,0.0,0.0,0.0,0.0,0.0,0.0,0.0,0.0,0.0,0.0,0.0,0.0,0.0,0.0,0.0,0.0,0.0,0.0,0.0,0.0,0.0,0.0,0.0,0.0,0.0,0.0,0.0,0.0,0.0,0.0,0.0,0.0,0.0,0.0,0.0,0.0,0.0,0.0,0.0,0.0,0.0,0.0,0.0,0.0,0.0,0.0,0.0,0.0,0.0,0.0,0.0,0.0,0.0,0.0,0.0,0.0,0.0,0.0,0.0,0.0,0.0,0.0,0.0,0.0,0.0,0.0,0.0,0.0,0.0,0.0,0.0,0.0,0.0,0.0,0.0,0.0,0.0,0.0,0.0,0.0,0.0,0.0,0.0,0.0,0.0,0.0,0.0,0.0,0.0,0.0,0.0,0.0,0.0,0.0,0.0,0.0,0.0,0.0,0.0,0.0,0.0,0.0,0.0,0.0,0.0,0.0,0.0,0.0,0.0,0.0,0.0,0.0,0.0,0.0,0.0,0.0,0.0,0.0,0.0,0.0,0.0,0.0,0.0,0.0,0.0,0.0,0.0,0.0,0.0,0.0,0.0,0.0,0.0,0.0,0.0,0.0,0.0,0.0,0.0,0.0,0.0,0.0,0.0,0.0,0.0,0.0,0.0,0.0,0.0,0.0,0.0,0.0,0.0,0.0,0.0,0.0,0.0,0.0,0.0,0.0,0.0,0.0,0.0,0.0,0.0,0.0,0.0,0.0,0.0,0.0,0.0,0.0,0.0,0.0,0.0,0.0,0.0,0.0,0.0,0.0,0.0,0.0,0.0,0.0,0.0,0.0,0.0,0.0,0.0,0.0,0.0,0.0,0.0,0.0,0.0,0.0,0.0,0.0,0.0,0.0,0.0,0.0,0.0,0.0,0.0,0.0,0.0,0.0,0.0,0.0,0.0,0.0,0.0,0.0,0.0,0.0,0.0,0.0,0.0,0.0,0.0,0.0,0.0,0.0,0.0,0.0,0.0,0.0,0.0,0.0,0.0,0.0,0.0,0.0,0.0,0.0,0.0,0.0,0.0,0.0,0.0,0.0,0.0,0.0,0.0,0.0,0.0,0.0,0.0,0.0,0.0,0.0,0.0,0.0,0.0,0.0,0.0,0.0,0.0,0.0,0.0,0.0,0.0,0.0,0.0,0.0,0.0,0.0,0.0,0.0,0.0,0.0,0.0,0.0,0.0,0.0,0.0,0.0,0.0,0.0,0.0,0.0,0.0,0.0,0.0,0.0,0.0,0.0,0.0,0.0,0.0,0.0,0.0,0.0,0.0,0.0,0.0,0.0,0.0,0.0,0.0,0.0,0.0,0.0,0.0,0.0,0.0,0.0,0.0,0.0,0.0,0.0,0.0,0.0,0.0,0.0,0.0,0.0,0.0,0.0,0.0,0.0,0.0,0.0,0.0,0.0,0.0,0.0,0.0,0.0,0.0,0.0,0.0,0.0,0.0,0.0,0.0,0.0,0.0,0.0,0.0,0.0,0.0,0.0,0.0,0.0,0.0,0.0,0.0,0.0,0.0,0.0,0.0,0.0,0.0,0.0,0.0,0.0,0.0,0.0,0.0,0.0,0.0,0.0,0.0,0.0,0.0,0.0,0.0,0.0,0.0,0.0,0.0,0.0,0.0,0.0,0.0,0.0,0.0,0.0,0.0,0.0,0.0,0.0,0.0,0.0,0.0,0.0,0.0,0.0,0.0,0.0,0.0,0.0,0.0,0.0,0.0,0.0,0.0,0.0,0.0,0.0,0.0,0.0,0.0,0.0,0.0,0.0,0.0,0.0,0.0,0.0,0.0,0.0,0.0,0.0,0.0,0.0,0.0,0.0,0.0,0.0,0.0,0.0,0.0,0.0,0.0,0.0,0.0,0.0,0.0,0.0,0.0,0.0,0.0,0.0,0.0,0.0,0.0,0.0,0.0,0.0,0.0,0.0,0.0,0.0,0.0,0.0,0.0,0.0,0.0,0.0,0.0,0.0,0.0,0.0,0.0,0.0,0.0,0.0,0.0,0.0,0.0,0.0,0.0,0.0,0.0,0.0,0.0,0.0,0.0,0.0,0.0,0.0,0.0,0.0,0.0,0.0,0.0,0.0,0.0,0.0,0.0,0.0,0.0,0.0,0.0,0.0,0.0,0.0,0.0,0.0,0.0,0.0,0.0,0.0,0.0,0.0,0.0,0.0,0.0,0.0,0.0,0.0,0.0,0.0,0.0,0.0,0.0,0.0,0.0,0.0,0.0,0.0,0.0,0.0,0.0,0.0,0.0,0.0,0.0,0.0,0.0,0.0,0.0,0.0,0.0,0.0,0.0,0.0,0.0,0.0,0.0,0.0,0.0,0.0,0.0,0.0,0.0,0.0,0.0,0.0,0.0,0.0,0.0,0.0,0.0,0.0,0.0,0.0,0.0,0.0,0.0,0.0,0.0,0.0,0.0,0.0,0.0,0.0,0.0,0.0,0.0,0.0,0.0,0.0,0.0,0.0,0.0,0.0,0.0,0.0,0.0,0.0,0.0,0.0,0.0,0.0,0.0,0.0,0.0,0.0,0.0,0.0,0.0,0.0,0.0,0.0,0.0,0.0,0.0,0.0,0.0,0.0,0.0,0.0,0.0,0.0,0.0,0.0,0.0,0.0,0.0,0.0,0.0,0.0,0.0,0.0,0.0,0.0,0.0,0.0,0.0,0.0,0.0,0.0,0.0,0.0,0.0,0.0,0.0,0.0,0.0,0.0,0.0,0.0,0.0,0.0,0.0,0.0,0.0,0.0,0.0,0.0,0.0,0.0,0.0,0.0,0.0,0.0,0.0,0.0,0.0,0.0,0.0,0.0,0.0,0.0,0.0,0.0,0.0,0.0,0.0,0.0,0.0,0.0,0.0,0.0,0.0,0.0,0.0,0.0,0.0,0.0,0.0,0.0,0.0,0.0,0.0,0.0,0.0,0.0,0.0,0.0,0.0,0.0,0.0,0.0,0.0,0.0,0.0,0.0,0.0,0.0,0.0,0.0,0.0,0.0,0.0,0.0,0.0,0.0,0.0,0.0,0.0,0.0,0.0,0.0,0.0,0.0,0.0,0.0,0.0,0.0,0.0,0.0,0.0,0.0,0.0,0.0,0.0,0.0,0.0,0.0,0.0,0.0,0.0,0.0,0.0,0.0,0.0,0.0,0.0,0.0,0.0,0.0,0.0,0.0,0.0,0.0,0.0,0.0,0.0,0.0,0.0,0.0,0.0,0.0,0.0,0.0,0.0,0.0,0.0,0.0,0.0,0.0,0.0,0.0,0.0,0.0,0.0,0.0,0.0,0.0,0.0,0.0,0.0,0.0,0.0,0.0,0.0,0.0,0.0,0.0,0.0,0.0,0.0,0.0,0.0,0.0,0.0,0.0,0.0,0.0,0.0,0.0,0.0,0.0,0.0,0.0,0.0,0.0,0.0,0.0,0.0,0.0,0.0,0.0,0.0,0.0,0.0,0.0,0.0,0.0,0.0,0.0,0.0,0.0,0.0,0.0,0.0,0.0,0.0,0.0,0.0,0.0,0.0,0.0,0.0,0.0,0.0,0.0,0.0,0.0,0.0,0.0,0.0,0.0,0.0,0.0,0.0,0.0,0.0,0.0,0.0,0.0,0.0,0.0,0.0,0.0,0.0,0.0,0.0,0.0,0.0,0.0,0.0,0.0,0.0,0.0,0.0,0.0,0.0,0.0,0.0,0.0,0.0,0.0,0.0,0.0,0.0,0.0,0.0,0.0,0.0,0.0,0.0,0.0,0.0,0.0,0.0,0.0,0.0,0.0,0.0,0.0,0.0,0.0,0.0,0.0,0.0,0.0,0.0,0.0,0.0,0.0,0.0,0.0,0.0,0.0,0.0,0.0,0.0,0.0,0.0,0.0,0.0,0.0,0.0,0.0,0.0,0.0,0.0,0.0,0.0,0.0,0.0,0.0,0.0,0.0,0.0,0.0,0.0,0.0,0.0,0.0,0.0,0.0,0.0,0.0,0.0,0.0,0.0,0.0,0.0,0.0,0.0,0.0,0.0,0.0,0.0,0.0,0.0,0.0,0.0,0.0,0.0,0.0,0.0,0.0,0.0,0.0,0.0,0.0,0.0,0.0,0.0,0.0,0.0,0.0,0.0,0.0,0.0,0.0,0.0,0.0,0.0,0.0,0.0,0.0,0.0,0.0,0.0,0.0,0.0,0.0,0.0,0.0,0.0,0.0,0.0,0.0,0.0,0.0,0.0,0.0,0.0,0.0,0.0,0.0,0.0,0.0,0.0,0.0,0.0,0.0,0.0,0.0,0.0,0.0,0.0,0.0,0.0,0.0,0.0,0.0,0.0,0.0,0.0,0.0,0.0,0.0,0.0,0.0,0.0,0.0,0.0,0.0,0.0,0.0,0.0,0.0,0.0,0.0,0.0,0.0,0.0,0.0,0.0,0.0,-2.1721,0.0,0.0,0.0,0.0,0.0,0.0,0.0,0.0,0.0,0.0,0.0,0.0,0.0,0.0,0.0,0.0,0.0,0.0,0.0,0.0,0.0,0.0,0.0,0.0,0.0,0.0,0.0,0.0,0.0,0.0,0.0,0.0,0.0,0.0,0.0,0.0,0.0,0.0,0.0,0.0,0.0,0.0,0.0,0.0,0.0,0.0,0.0,0.0,0.0,0.0,0.0,0.0,0.0,0.0,0.0,0.0,0.0,0.0,0.0,0.0,0.0,0.0,0.0,0.0,0.0,0.0,0.0,0.0,0.0,0.0,0.0,0.0,0.0,0.0,0.0,0.0,0.0,0.0,0.0,0.0,0.0,0.0,0.0,0.0,0.0,0.0,0.0,0.0,0.0,0.0,0.0,0.0,0.0,0.0,0.0,0.0,0.0,0.0,0.0,0.0,0.0,0.0,0.0,0.0,0.0,0.0,0.0,0.0,0.0,0.0,0.0,0.0,0.0,0.0,0.0,0.0,-2.3646,0.0,0.0,0.0,0.0,0.0,0.0,0.0,0.0,0.0,0.0,0.0,0.0,0.0,0.0,0.0,0.0,0.0,0.0,0.0,0.0,0.0,0.0,0.0,0.0,0.0,0.0,0.0,0.0,0.0,0.0,0.0,0.0,0.0,0.0,0.0,0.0,0.0,0.0,0.0,0.0,0.0,0.0,0.0,0.0,0.0,0.0,0.0,0.0,0.0,0.0,0.0,0.0,0.0,0.0,0.0,0.0,0.0,0.0,0.0,0.0,0.0,0.0,0.0,0.0,0.0,0.0,0.0,0.0,0.0,0.0,0.0,0.0,0.0,0.0,0.0,0.0,0.0,0.0,0.0,0.0,0.0,0.0,0.0,0.0,0.0,0.0,0.0,0.0,0.0,0.0,0.0,0.0,0.0,0.0,0.0,0.0,0.0,0.0,0.0,0.0,0.0,0.0,0.0,0.0,0.0,0.0,0.0,0.0,-2.8904,-2.9643,-3.0335,-3.1551,-3.2194,-3.2121,-2.926,-2.7308,-2.6153,0.0,0.0,0.0,0.0,0.0,0.0,0.0,0.0,0.0,0.0,0.0,0.0,0.0,0.0,0.0,0.0,0.0,0.0,0.0,0.0,0.0,0.0,0.0,0.0,0.0,0.0,0.0,0.0,0.0,0.0,0.0,0.0,0.0,0.0,0.0,0.0,0.0,0.0,0.0,-2.5106,-2.5854,-2.6342,-2.6462,0.0,0.0,0.0,0.0,0.0,0.0,0.0,0.0,0.0,0.0,0.0,0.0,0.0,0.0,0.0,0.0,0.0,0.0,0.0,0.0,0.0,0.0,0.0,0.0,0.0,0.0,0.0,0.0,0.0,0.0,0.0,0.0,0.0,0.0,0.0,0.0,0.0,0.0,0.0,0.0,0.0,0.0,0.0,0.0,-1.5103,-1.5964,0.0,0.0,0.0,0.0,0.0,0.0,0.0,0.0,0.0,0.0,0.0,0.0,0.0,-2.7088,-2.7857,-2.9095,-3.012,-3.09,-3.2136,-3.3121,-3.3858,-3.4599,-3.529,-3.5784,-3.5353,0.0,-3.0357,-2.9776,0.0,0.0,0.0,0.0,0.0,0.0,0.0,0.0,0.0,0.0,0.0,0.0,0.0,0.0,0.0,0.0,0.0,0.0,0.0,0.0,0.0,0.0,0.0,0.0,0.0,0.0,0.0,0.0,0.0,0.0,0.0,0.0,0.0,0.0,0.0,0.0,-2.4335,-2.5974,-2.7305,-2.8323,-2.8951,-2.916,-2.7993,-2.6662,-2.5211,-2.4283,0.0,0.0,0.0,0.0,0.0,0.0,0.0,0.0,0.0,0.0,0.0,0.0,0.0,0.0,0.0,0.0,0.0,0.0,0.0,0.0,0.0,0.0,0.0,0.0,0.0,0.0,0.0,0.0,0.0,0.0,0.0,0.0,0.0,0.0,0.0,0.0,0.0,0.0,0.0,-1.5334,-1.7008,-1.8854,-1.9916,-2.0931,0.0,0.0,0.0,0.0,0.0,0.0,0.0,0.0,0.0,-2.7695,-2.935,-3.072,-3.184,-3.2782,-3.3598,-3.4275,-3.5245,-3.5861,-3.6199,-3.6876,-3.7353,-3.7631,-3.7631,-3.6753,-3.517,-3.3343,-3.1949,-3.0865,0.0,0.0,0.0,0.0,-2.8406,-2.8381,0.0,0.0,0.0,0.0,0.0,0.0,0.0,0.0,0.0,0.0,0.0,0.0,0.0,0.0,0.0,-1.9262,0.0,0.0,0.0,0.0,0.0,0.0,0.0,0.0,0.0,0.0,0.0,0.0,-2.6632,-2.8038,-2.9385,-3.0492,-3.1106,-3.127,-3.127,-2.9894,-2.753,-2.6722,-2.56,0.0,0.0,0.0,0.0,0.0,0.0,0.0,0.0,0.0,0.0,0.0,0.0,0.0,0.0,0.0,0.0,0.0,0.0,0.0,0.0,0.0,0.0,0.0,0.0,0.0,0.0,0.0,0.0,0.0,0.0,0.0,0.0,0.0,0.0,0.0,0.0,0.0,0.0,-1.75,-1.9146,-2.1535,-2.2736,-2.381,0.0,0.0,0.0,0.0,0.0,0.0,-2.835,-2.9396,-3.0428,-3.1428,-3.2752,-3.4029,-3.526,-3.5922,-3.6599,-3.7277,-3.8138,-3.8554,-3.8569,-3.9247,-3.9554,-3.9554,-3.9554,-3.9354,-3.8831,-3.6292,-3.4659,-3.3629,-3.298,-3.269,-3.2628,-3.2026,-3.1707,-3.1542,0.0,0.0,0.0,0.0,0.0,0.0,0.0,0.0,0.0,0.0,0.0,0.0,0.0,0.0,-1.9796,-2.1062,-2.1936,-2.2149,0.0,0.0,0.0,0.0,0.0,0.0,0.0,0.0,0.0,-2.6497,-2.8498,-3.0103,-3.1376,-3.2064,-3.2751,-3.335,-3.335,-3.2213,-3.0223,-2.8981,-2.7679,-2.6318,0.0,0.0,0.0,0.0,0.0,0.0,0.0,0.0,0.0,0.0,0.0,0.0,0.0,0.0,0.0,0.0,0.0,0.0,0.0,0.0,0.0,0.0,0.0,0.0,0.0,0.0,0.0,0.0,0.0,0.0,0.0,0.0,0.0,0.0,0.0,0.0,0.0,0.0,0.0,-2.3025,-2.4964,0.0,0.0,0.0,0.0,-2.9125,-2.9771,-3.0432,-3.1151,-3.3103,-3.4227,-3.4289,-3.5584,-3.663,-3.7338,-3.8015,-3.8708,-3.9385,-4.0739,-4.1386,-4.1417,-4.2094,-4.2402,-4.2402,-4.2402,-4.1648,-4.0228,-3.82,-3.7307,-3.7184,-3.6507,-3.623,-3.623,-3.6199,-3.5784,-3.523,0.0,0.0,0.0,0.0,0.0,0.0,0.0,0.0,0.0,0.0,0.0,0.0,0.0,-1.9085,-2.0859,-2.1814,-2.2942,-2.3572,-2.3469,0.0,0.0,0.0,0.0,0.0,0.0,0.0,-2.7113,-2.9101,-3.0268,-3.1509,-3.2811,-3.3469,-3.3903,-3.4159,-3.4159,-3.3755,-3.3006,-3.1674,-3.0118,-2.8442,-2.7545,-2.5989,0.0,0.0,0.0,0.0,0.0,0.0,0.0,0.0,0.0,0.0,0.0,0.0,0.0,0.0,0.0,0.0,0.0,0.0,0.0,0.0,0.0,0.0,0.0,0.0,0.0,0.0,0.0,0.0,0.0,0.0,0.0,0.0,0.0,0.0,0.0,0.0,0.0,-2.5718,-2.775,0.0,0.0,-3.0582,-3.1443,-3.261,-3.289,-3.3506,-3.4614,-3.5784,-3.6615,-3.7061,-3.8385,-3.9431,-4.0124,-4.0801,-4.1278,-4.1509,-4.1985,-4.2232,-4.2263,-4.2493,-4.26,-4.2602,-4.2602,-4.2325,-4.1817,-4.1093,-3.9739,-3.8123,-3.7877,-3.78,-3.78,-3.78,-3.7646,-3.743,0.0,0.0,0.0,0.0,0.0,0.0,0.0,0.0,0.0,0.0,0.0,-1.5569,-1.7708,-2.0192,-2.2095,-2.3055,-2.4193,-2.483,-2.4812,0.0,0.0,0.0,0.0,0.0,0.0,-2.7388,-2.9028,-3.0766,-3.1944,-3.3095,-3.4188,-3.4846,-3.5297,-3.5459,-3.5459,-3.5459,-3.54,-3.4307,-3.2587,-3.0492,-2.9594,-2.8323,-2.6707,0.0,0.0,0.0,0.0,0.0,0.0,0.0,0.0,0.0,0.0,0.0,0.0,0.0,0.0,0.0,0.0,0.0,0.0,0.0,0.0,0.0,0.0,0.0,0.0,0.0,0.0,0.0,0.0,0.0,0.0,0.0,0.0,0.0,0.0,0.0,-2.6457,-2.8504,-3.0551,-3.2044,-3.2733,-3.3383,-3.4245,-3.5429,-3.5521,-3.6091,-3.7446,-3.8154,-3.8846,-3.9524,-4.0647,-4.1463,-4.194,-4.2674,-4.305,-4.305,-4.334,-4.3485,-4.3463,-4.3424,-4.3371,-4.3374,-4.33,-4.314,-4.294,-4.294,-4.174,-3.9862,-3.9631,-3.9554,-3.9524,-3.9277,-3.9013,-3.8816,0.0,0.0,0.0,0.0,0.0,0.0,0.0,0.0,0.0,0.0,-1.406,-1.6262,-1.8892,-2.1388,-2.3426,-2.484,-2.5662,-2.5882,-2.5443,-2.5543,0.0,0.0,0.0,0.0,-2.7106,-2.9101,-3.0525,-3.1411,-3.3498,-3.4861,-3.5549,-3.6207,-3.6836,-3.7404,-3.7404,-3.7404,-3.7375,-3.6776,-3.5011,-3.2527,-3.115,-3.0223,-2.9355,0.0,0.0,0.0,0.0,0.0,0.0,0.0,0.0,0.0,0.0,0.0,0.0,0.0,0.0,0.0,0.0,0.0,0.0,0.0,0.0,0.0,0.0,0.0,0.0,0.0,0.0,0.0,0.0,0.0,0.0,0.0,0.0,0.0,-2.4441,-2.6795,-2.9258,-3.127,-3.3334,-3.4859,-3.5506,-3.6153,-3.6846,-3.7538,-3.7584,-3.8185,-3.9521,-4.0197,-4.0924,-4.1632,-4.2294,-4.2648,-4.2663,-4.3525,-4.3975,-4.3975,-4.4828,-4.5266,-4.5213,-4.5033,-4.4942,-4.4874,-4.4685,-4.424,-4.3639,-4.3639,-4.3233,-4.2602,-4.1909,-4.1632,-4.154,-4.0812,-4.0136,-3.9459,0.0,0.0,0.0,0.0,0.0,0.0,0.0,0.0,0.0,0.0,-1.3661,-1.5558,-1.8115,-2.0664,-2.2714,-2.408,-2.5289,-2.5932,-2.5897,0.0,0.0,0.0,0.0,0.0,-2.971,-3.0324,-3.1529,-3.3386,-3.4473,-3.5419,-3.6237,-3.6866,-3.724,-3.7404,-3.7404,-3.7404,-3.7404,-3.7225,-3.6462,-3.5235,-3.341,-3.2003,-3.0793,0.0,0.0,0.0,0.0,0.0,0.0,0.0,0.0,0.0,0.0,0.0,0.0,0.0,0.0,0.0,0.0,0.0,0.0,0.0,0.0,0.0,0.0,0.0,0.0,0.0,0.0,0.0,0.0,0.0,0.0,0.0,0.0,-2.7842,-2.7349,-2.9597,-3.1874,-3.3473,-3.543,-3.6738,-3.6923,-3.7569,-3.8431,-3.9582,-3.9659,-4.0259,-4.1678,-4.194,-4.234,-4.3039,-4.3239,-4.3578,-4.4033,-4.4786,-4.5202,-4.5354,-4.61,-4.6253,-4.5921,-4.5884,-4.549,-4.4911,-4.4836,-4.4615,-4.4348,-4.4348,-4.424,-4.3925,-4.2771,-4.234,-4.2309,-4.2109,-4.1698,-4.1194,0.0,0.0,0.0,0.0,0.0,0.0,0.0,0.0,0.0,0.0,-1.3695,-1.5624,-1.8193,-2.0536,-2.2429,-2.3777,-2.4899,-2.5568,-2.5701,0.0,0.0,0.0,0.0,-2.9479,-3.0703,-3.1581,-3.2803,-3.4407,-3.5236,-3.6138,-3.7197,-3.7624,-3.7973,-3.8257,-3.8257,-3.8257,-3.8227,-3.7943,-3.7614,-3.7135,-3.5429,-3.3948,-3.2587,-3.1001,-2.9909,-2.9026,-2.7425,-2.6617,-2.6069,-2.4762,0.0,0.0,0.0,0.0,0.0,0.0,0.0,0.0,0.0,0.0,0.0,0.0,0.0,0.0,0.0,0.0,0.0,0.0,0.0,0.0,0.0,0.0,0.0,0.0,-2.9294,-3.1151,-3.1351,-3.2705,-3.4198,-3.5584,-3.7277,-3.8462,-3.8739,-3.94,-4.0247,-4.1289,-4.1366,-4.1878,-4.2956,-4.3017,-4.331,-4.4009,-4.4302,-4.4641,-4.5041,-4.5758,-4.6237,-4.647,-4.691,-4.7063,-4.6906,-4.6517,-4.6059,0.0,-4.5111,-4.4836,-4.4723,-4.4648,-4.461,0.0,0.0,0.0,0.0,0.0,-4.2258,-4.2145,0.0,0.0,0.0,0.0,0.0,0.0,0.0,0.0,0.0,0.0,0.0,-1.5901,-1.8488,-2.0459,-2.2152,-2.3543,-2.4341,-2.4904,0.0,0.0,0.0,-2.7885,-2.9697,-3.0772,-3.0932,-3.2715,-3.4069,-3.48,-3.5784,-3.6887,-3.8103,-3.8376,-3.879,-3.9388,-3.9388,-3.9388,-3.9379,-3.8766,-3.8467,-3.8287,-3.7075,-3.5789,-3.4429,-3.2557,-3.1705,-3.1271,-2.9564,-2.8831,-2.8532,-2.7335,0.0,0.0,0.0,0.0,0.0,0.0,0.0,0.0,0.0,0.0,0.0,0.0,0.0,0.0,0.0,0.0,0.0,0.0,0.0,0.0,0.0,0.0,0.0,0.0,-3.2105,-3.4245,-3.563,-3.5891,-3.6384,-3.7584,-3.8923,-3.9951,-4.0551,-4.1294,-4.1986,-4.2663,-4.2709,-4.3002,-4.3685,0.0,0.0,0.0,0.0,-4.5634,-4.5695,-4.6569,-4.7146,-4.7341,-4.7597,-4.7822,-4.7988,-4.7136,-4.6683,-4.6457,-4.5472,-4.5011,-4.4874,-4.4685,-4.461,-4.4548,-4.3963,-4.3716,-4.3587,-4.2573,-4.2477,-4.274,0.0,0.0,0.0,0.0,0.0,0.0,0.0,0.0,0.0,-1.1976,-1.3093,-1.46,-1.712,-1.8693,-2.0307,-2.2128,-2.2944,-2.3901,0.0,0.0,-2.8369,-2.9059,-3.0536,-3.183,-3.2922,-3.3333,-3.4155,-3.5429,-3.6172,-3.7052,-3.8103,-3.8695,-3.913,-3.9388,-3.9388,-3.9388,-3.9373,-3.9239,-3.8901,-3.8317,-3.7539,-3.6462,-3.5205,-3.4262,-3.2916,-3.1451,-3.1077,-3.0298,-2.9382,-2.9112,-2.8562,-2.7904,-2.724,0.0,0.0,0.0,0.0,0.0,0.0,0.0,0.0,0.0,0.0,0.0,0.0,0.0,0.0,0.0,0.0,0.0,0.0,0.0,0.0,-3.3211,-3.4845,-3.6368,-3.7738,-3.84,-3.8831,-3.9059,-4.0355,-4.1247,-4.1386,-4.2017,-4.2679,-4.3377,-4.3424,-4.3716,-4.4379,-4.4425,0.0,-4.5372,-4.5526,-4.5849,-4.6388,-4.7336,-4.7891,-4.8105,0.0,0.0,-4.8683,-4.8502,-4.7709,-4.6489,-4.6272,-4.5687,-4.4911,-4.4874,-4.4761,-4.461,-4.4471,-4.4425,-4.4394,-4.4172,-4.413,-4.413,0.0,0.0,0.0,0.0,0.0,0.0,0.0,0.0,0.0,0.0,-1.2658,-1.3953,-1.5834,-1.7279,-1.8728,-2.0321,-2.1727,0.0,0.0,-2.6732,-2.804,-2.8915,-3.0836,-3.226,-3.2977,-3.3616,-3.4627,-3.5962,-3.6403,-3.7239,-3.847,-3.8905,-3.9228,-3.9388,-3.9388,-3.9388,-3.9388,-3.9388,-3.902,-3.8332,-3.7674,-3.6851,-3.5893,-3.4893,-3.3664,-3.2452,-3.2108,-3.139,-3.0507,-3.0163,-2.9819,-2.9445,-2.8813,-2.769,-2.6452,0.0,0.0,0.0,0.0,0.0,0.0,0.0,0.0,0.0,0.0,0.0,0.0,0.0,0.0,-2.9383,0.0,0.0,-3.4027,-3.5707,-3.7123,-3.8246,-3.8923,-3.9567,-3.9982,-3.9982,-4.0955,-4.174,-4.2063,-4.2709,-4.3371,-4.4055,-4.4117,-4.4255,-4.4594,-4.501,-4.5387,-4.5727,-4.6539,-4.7105,-4.7446,-4.8249,-4.8751,-4.8951,-4.94,-4.9544,-4.9394,-4.9047,-4.8471,-4.7646,-4.684,-4.615,-4.5506,-4.4976,-4.4685,-4.461,-4.461,-4.461,-4.461,-4.461,-4.4608,-4.4545,0.0,0.0,0.0,0.0,0.0,0.0,0.0,0.0,0.0,0.0,0.0,-1.3313,-1.4607,-1.5873,-1.7213,0.0,0.0,0.0,0.0,-2.6123,-2.7413,-2.8541,-3.0746,-3.215,-3.2637,-3.367,-3.4849,-3.6127,-3.6399,-3.7235,-3.8568,-3.8884,-3.9141,-3.9337,-3.9388,-3.9349,-3.923,-3.923,-3.8826,-3.8138,-3.7494,-3.6851,-3.6163,-3.4968,-3.4068,-3.341,-3.2751,-3.2064,-3.1421,-3.0896,-3.0702,-3.0597,-2.9968,-2.9037,-2.8094,-2.7705,-2.6437,0.0,0.0,0.0,0.0,0.0,0.0,0.0,0.0,0.0,-2.8811,-2.9765,-3.1028,-3.2588,-3.4677,-3.5537,-3.6322,-3.7677,-3.8816,-3.9536,-3.9659,-4.0151,-4.0489,-4.0489,-4.1278,-4.2017,-4.2556,-4.331,-4.4024,-4.4579,-4.461,-4.4671,-4.4833,-4.551,-4.6044,-4.6361,-4.7621,-4.8355,-4.8495,-4.905,-4.9437,-4.9597,-4.9637,-4.9757,-4.986,-4.9347,-4.9015,-4.8825,-4.728,-4.6504,-4.6266,-4.5202,-4.4772,-4.4756,-4.4671,-4.461,-4.461,-4.461,-4.461,-4.461,0.0,0.0,0.0,0.0,0.0,0.0,0.0,0.0,0.0,0.0,0.0,0.0,0.0,0.0,0.0,0.0,0.0,0.0,-2.3248,-2.5125,-2.7031,-2.8864,-3.0004,-3.1394,-3.3081,-3.3434,-3.423,-3.5508,-3.606,-3.6822,-3.7754,-3.8495,-3.8943,-3.9141,-3.9301,-3.908,-3.8497,-3.8497,-3.8123,-3.7464,-3.6851,-3.6193,-3.5534,-3.4788,-3.4068,-3.341,-3.2751,-3.2064,-3.1496,-3.1406,-3.1391,-3.1271,-3.0612,-3.0298,-2.9834,-2.8109,0.0,-2.7136,-2.6527,-2.6761,-2.73,-2.7889,-2.8098,-2.8457,0.0,0.0,-3.1536,-3.3107,-3.4045,-3.5095,-3.6829,-3.723,-3.7723,-3.9077,-3.9382,-3.9705,-4.029,-4.0443,-4.0489,-4.0489,-4.1694,-4.2525,-4.2602,-4.3741,-4.4533,-4.4572,-4.461,-4.4948,-4.5703,-4.585,-4.6532,-4.7988,-4.8214,-4.8589,-4.9166,-4.9446,-4.9557,-4.9597,-4.9757,-4.9876,-4.9876,-4.9797,-4.9473,-4.8841,-4.7629,-4.7029,-4.6733,-4.5874,-4.548,-4.5418,-4.4818,-4.461,-4.461,-4.461,-4.461,-4.461,0.0,0.0,0.0,0.0,0.0,0.0,0.0,0.0,0.0,0.0,0.0,0.0,0.0,0.0,0.0,0.0,0.0,0.0,-2.189,-2.385,-2.5661,-2.723,-2.9093,-3.0575,-3.1536,-3.2728,-3.3806,-3.4806,-3.5444,-3.6189,-3.7023,-3.7344,-3.7676,-3.8011,-3.8082,-3.8003,-3.7823,-3.7823,-3.7225,-3.6282,-3.6013,-3.528,-3.4218,-3.317,-3.2587,-3.2288,-3.2004,-3.1481,0.0,0.0,-3.0387,-3.0357,-3.0058,-2.9699,-2.931,-2.8903,-2.8498,0.0,-2.8742,-2.9071,0.0,0.0,-3.1165,-3.1689,-3.2617,-3.3649,-3.4625,-3.5403,-3.6213,-3.7086,-3.8279,-3.8596,-3.8985,0.0,-4.0074,-4.0166,-4.0459,-4.0489,-4.0489,-4.0489,-4.1417,-4.2171,-4.2571,-4.3448,-4.4194,-4.4594,-4.4685,-4.5093,-4.585,-4.6515,-4.7395,-4.8443,-4.8985,-4.937,-4.9637,-4.9717,-4.9757,-4.9773,-4.9876,-4.9876,-4.9876,-4.9876,-4.9474,-4.871,-4.7965,-4.737,-4.6849,-4.6374,-4.6172,-4.6111,-4.5434,-4.5172,-4.511,-4.4726,-4.461,-4.461,0.0,0.0,0.0,0.0,0.0,0.0,0.0,0.0,0.0,0.0,0.0,0.0,0.0,0.0,0.0,0.0,0.0,0.0,0.0,-2.245,-2.4191,-2.5745,-2.7768,0.0,-3.0233,-3.1677,-3.2883,-3.3825,-3.4704,-3.5412,-3.6018,-3.6403,-3.6652,-3.6788,-3.6891,-3.6786,-3.6529,-3.6563,-3.5968,-3.4936,-3.4756,-3.3993,-3.2826,-3.166,-3.1002,-3.0718,-3.0898,-3.0567,0.0,0.0,-2.9487,-2.934,-2.9547,-2.9277,-2.8966,-2.9472,-2.9505,-2.9609,-3.0537,0.0,0.0,-3.3051,-3.3829,-3.4487,-3.5145,-3.6178,-3.7083,-3.7236,-3.7948,-3.874,-3.9387,-3.9649,0.0,-4.0413,-4.0489,-4.0489,-4.0489,-4.0489,-4.0489,-4.0489,-4.0986,-4.1648,-4.2525,-4.3223,-4.3886,-4.4564,-4.4799,-4.5299,-4.626,-4.7113,-4.8019,-4.8946,-4.9584,-5.001,-5.0216,-5.0216,-5.0216,-5.0216,-5.0216,-5.0121,-4.9876,-4.9836,-4.945,-4.8772,-4.8429,-4.7917,-4.7327,-4.7022,-4.688,-4.6803,-4.6126,-4.5757,-4.5526,-4.5033,-4.4779,-4.461,0.0,0.0,0.0,0.0,0.0,0.0,0.0,0.0,0.0,0.0,0.0,0.0,0.0,0.0,0.0,0.0,0.0,0.0,0.0,-2.1058,-2.2948,-2.495,-2.5789,-2.7371,-2.987,-3.0305,-3.1092,-3.2378,-3.3752,-3.4443,-3.4501,-3.591,-3.6277,-3.5761,-3.6088,-3.5495,-3.431,-3.4498,-3.4173,-3.3499,-3.2856,-3.2168,-3.1496,-3.0806,-2.9759,-2.8771,-2.94,0.0,0.0,0.0,-2.916,-2.8742,-2.9412,-2.9592,0.0,-2.9606,-3.0462,0.0,0.0,0.0,-3.4548,-3.5235,-3.5908,-3.6552,-3.718,-3.7838,-3.8402,-3.8607,-3.9325,-4.0021,-4.0246,-4.037,-4.0474,-4.0489,-4.0489,-4.0489,-4.0489,-4.0489,-4.0489,-4.0489,-4.0505,-4.1074,0.0,-4.3223,-4.3886,-4.4564,-4.4799,-4.5592,-4.7169,-4.7456,-4.8278,-4.9797,-4.9876,-5.0247,-5.0967,-5.0983,-5.0983,-5.0983,-5.0983,-5.0579,-4.9876,-4.9677,-4.9477,-4.9259,-4.9072,-4.8811,-4.8496,-4.785,-4.7573,-4.7511,-4.6834,-4.6157,-4.5588,-4.5572,-4.5141,-4.461,0.0,0.0,0.0,0.0,0.0,0.0,0.0,0.0,0.0,0.0,0.0,0.0,0.0,0.0,0.0,0.0,0.0,0.0,0.0,-1.9127,-2.1052,-2.2944,-2.4149,-2.5592,-2.7343,-2.8382,-2.9402,-3.0371,-3.1811,-3.2498,-3.2513,-3.3449,-3.362,-3.312,-3.3248,-3.2904,-3.2273,-3.2363,-3.2035,-3.1495,-3.127,-3.0537,-2.952,-2.8816,-2.8023,-2.723,0.0,0.0,0.0,0.0,0.0,0.0,-2.7555,-2.8203,-2.919,-3.0492,-3.1809,-3.3036,0.0,0.0,-3.6178,-3.7719,-3.8272,-3.8601,-3.9245,-3.9574,-3.9505,-3.8657,-3.8833,-3.9052,-3.8819,-3.8913,-3.9066,-3.9152,-3.9536,-3.9828,-3.9828,-4.0213,-4.0489,-4.0489,-4.094,0.0,0.0,0.0,0.0,-4.4533,-4.5178,-4.6074,-4.7232,-4.7911,-4.8765,-4.986,-5.0374,-5.0737,-5.1015,-5.1433,-5.1654,-5.1654,-5.1199,-5.0866,-5.0611,-4.9799,-4.9378,-4.9275,-4.8908,-4.8661,-4.8604,-4.8373,-4.8266,-4.8204,-4.7527,-4.7127,-4.6865,-4.6419,-4.6111,-4.5788,0.0,0.0,0.0,0.0,0.0,0.0,0.0,0.0,0.0,0.0,0.0,0.0,0.0,0.0,0.0,0.0,0.0,0.0,0.0,0.0,-1.9315,-2.0974,-2.2152,-2.3607,-2.5337,-2.6319,-2.7283,-2.8283,-2.9724,-3.0435,-3.0524,-3.1409,-3.1413,-3.0689,-3.0748,-3.0396,-2.977,-2.9868,-2.9699,-2.9364,-2.9179,-2.8622,-2.7784,-2.6871,-2.6093,0.0,0.0,0.0,0.0,0.0,0.0,0.0,-2.6821,-2.8188,-2.9939,-3.1421,-3.2991,-3.4502,0.0,-3.6851,-3.7898,-3.9394,-3.9948,-4.0172,-4.0367,-4.0217,-3.9738,-3.8616,-3.8157,-3.7926,-3.7701,-3.7626,-3.7698,-3.8075,-3.8508,-3.897,-3.9413,-3.9859,-4.032,-4.0812,-4.1324,0.0,0.0,0.0,0.0,-4.4533,-4.5395,-4.6322,-4.7247,-4.813,-4.9001,-4.986,-5.0611,-5.1141,-5.1338,-5.2049,-5.2396,-5.2396,-5.1706,-5.1373,-5.1322,-5.0285,-4.9753,-4.9618,-4.9017,-4.8702,-4.862,-4.862,-4.862,-4.8573,-4.8142,-4.7819,-4.7558,-4.7111,-4.6803,-4.648,0.0,0.0,0.0,0.0,0.0,0.0,0.0,0.0,0.0,0.0,0.0,0.0,0.0,0.0,0.0,0.0,0.0,0.0,0.0,0.0,0.0,-1.9091,-1.9894,-2.1426,-2.3853,-2.4063,-2.4799,-2.6114,-2.7564,-2.8365,-2.8534,-2.9813,-2.974,-2.8564,-2.8674,-2.804,-2.6865,-2.7136,-2.7223,-2.7174,-2.6643,-2.6422,-2.6258,-2.4978,0.0,0.0,0.0,0.0,0.0,0.0,0.0,0.0,0.0,0.0,-3.1705,-3.2452,-3.4083,-3.5923,-3.7165,-3.8497,-3.9679,-4.0337,-4.0935,-4.1205,-4.0546,-3.9858,-3.9155,-3.8392,-3.735,-3.6597,0.0,0.0,-3.6381,-3.7152,-3.7384,-3.7908,-3.9198,-3.9444,-4.0031,0.0,0.0,0.0,0.0,0.0,0.0,-4.461,0.0,-4.633,-4.7294,-4.8177,-4.9048,-4.9908,-5.0658,-5.1353,-5.2065,-5.2791,-5.3155,-5.3155,-5.2428,-5.2065,-5.2033,-5.1124,-5.0589,-5.0289,-4.945,-4.8934,-4.8666,-4.8666,-4.8635,-4.862,-4.862,-4.8219,-4.765,-4.765,-4.725,-4.6696,0.0,0.0,0.0,0.0,0.0,0.0,0.0,0.0,0.0,0.0,0.0,0.0,0.0,0.0,0.0,0.0,0.0,0.0,0.0,0.0,0.0,0.0,0.0,0.0,0.0,-2.1923,-2.2648,-2.355,0.0,-2.5745,-2.5905,-2.7183,-2.7343,-2.6544,-2.657,-2.5933,-2.4848,-2.4976,-2.4813,-2.4491,0.0,-2.4088,-2.3661,0.0,0.0,0.0,0.0,0.0,0.0,0.0,0.0,0.0,0.0,-3.0911,-3.2557,-3.4262,-3.6118,-3.7838,-3.8676,-3.9873,-4.104,-4.1737,-4.1647,-4.1205,-4.0546,-3.9499,-3.8197,-3.6567,-3.5207,-3.4253,0.0,0.0,0.0,-3.44,-3.5737,0.0,-3.7892,-3.8893,0.0,0.0,0.0,-4.2679,-4.3531,-4.4517,0.0,0.0,-4.5996,-4.6848,-4.7758,-4.8667,-4.9555,-5.0479,-5.1319,-5.2096,-5.2823,-5.3502,-5.385,-5.3834,-5.3155,-5.2833,-5.278,-5.1675,-5.1085,-5.1022,-5.0483,-4.9924,-4.942,-4.942,-4.9097,-4.862,-4.862,-4.8512,-4.8358,-4.8358,-4.825,-4.8055,0.0,0.0,0.0,0.0,0.0,0.0,0.0,0.0,0.0,0.0,0.0,0.0,0.0,0.0,0.0,0.0,0.0,0.0,0.0,0.0,0.0,0.0,0.0,0.0,0.0,-1.9837,-2.0529,0.0,0.0,0.0,0.0,-2.4607,-2.4747,-2.4123,-2.4123,-2.3603,-2.2739,-2.2893,0.0,0.0,0.0,0.0,0.0,0.0,0.0,0.0,0.0,0.0,0.0,0.0,0.0,-2.8368,-3.0342,-3.2063,-3.3724,-3.5429,0.0,-3.905,-4.0023,-4.1025,-4.1931,-4.2306,-4.2126,-4.1527,-4.0247,-3.8721,-3.7075,-3.54,-3.3305,0.0,0.0,0.0,0.0,0.0,0.0,0.0,-3.6876,-3.8231,-3.9693,0.0,-4.2186,0.0,-4.3963,-4.501,-4.5711,0.0,-4.6665,-4.7299,-4.7973,-4.873,-4.9618,-5.0681,-5.1448,-5.2424,-5.3534,-5.3828,-5.399,-5.3931,-5.3463,-5.3242,-5.3227,-5.2246,-5.1713,-5.1595,0.0,-5.0398,-4.9682,-4.9682,-4.9266,-4.862,-4.862,-4.862,-4.862,-4.862,-4.8521,-4.8423,0.0,0.0,0.0,0.0,0.0,0.0,0.0,0.0,0.0,0.0,0.0,0.0,0.0,0.0,0.0,0.0,0.0,0.0,0.0,0.0,0.0,0.0,0.0,0.0,0.0,0.0,0.0,0.0,0.0,0.0,0.0,0.0,0.0,0.0,0.0,0.0,0.0,0.0,0.0,0.0,0.0,0.0,0.0,0.0,0.0,0.0,0.0,0.0,0.0,0.0,-2.7545,-2.9071,-3.1017,-3.3021,-3.4908,-3.6207,-3.8063,-3.9933,-4.107,-4.1961,-4.2515,-4.2425,-4.2276,-4.1617,-3.9604,-3.7569,-3.5716,-3.4279,0.0,-2.9387,-2.955,0.0,-2.9246,-3.0729,0.0,-3.386,-3.5938,-3.7461,-3.9139,-4.1217,-4.214,-4.3094,-4.4363,-4.5218,-4.5957,-4.6557,-4.7296,-4.7824,-4.8072,-4.867,-4.9558,-5.0749,-5.1502,-5.2618,-5.3985,-5.3817,-5.3746,-5.373,-5.3533,-5.3403,-5.3393,-5.2794,-5.2384,-5.2097,0.0,0.0,-4.982,-4.982,-4.9343,-4.862,-4.862,-4.862,-4.862,-4.8578,-4.8423,-4.8198,0.0,0.0,0.0,0.0,0.0,0.0,0.0,0.0,0.0,0.0,-0.9168,0.0,0.0,0.0,0.0,0.0,0.0,0.0,0.0,0.0,0.0,0.0,0.0,0.0,0.0,0.0,0.0,0.0,0.0,0.0,0.0,0.0,0.0,0.0,0.0,0.0,0.0,0.0,0.0,0.0,0.0,0.0,0.0,0.0,0.0,0.0,0.0,0.0,0.0,0.0,-2.7869,-2.9786,-3.1719,-3.3724,-3.5579,-3.6866,-3.905,-4.1085,-4.1324,-4.2252,-4.303,-4.253,-4.1587,-4.0217,-3.8212,-3.5818,0.0,0.0,0.0,-2.783,-2.7414,-2.7364,0.0,-2.8593,0.0,0.0,0.0,0.0,-3.8431,0.0,0.0,0.0,0.0,0.0,0.0,0.0,0.0,0.0,-4.8492,-4.8836,-4.9678,-5.1158,-5.2465,-5.3231,-5.3509,-5.3481,-5.3481,-5.3481,-5.3406,-5.3424,-5.3401,-5.3098,-5.2949,-5.2893,-5.2557,0.0,-5.0528,-5.0528,-4.9774,-4.862,-4.862,-4.862,-4.8578,-4.8412,-4.8313,-4.8157,0.0,0.0,0.0,0.0,0.0,0.0,0.0,0.0,0.0,0.0,-1.002,-1.0085,0.0,0.0,0.0,0.0,0.0,0.0,0.0,0.0,0.0,0.0,0.0,0.0,0.0,0.0,0.0,0.0,0.0,0.0,0.0,0.0,0.0,0.0,0.0,0.0,0.0,0.0,0.0,0.0,0.0,0.0,0.0,0.0,0.0,0.0,0.0,0.0,0.0,0.0,-2.6817,-2.8931,-3.1645,-3.3634,-3.5295,-3.6926,-3.8811,-4.0442,-4.0771,-4.1579,-4.2162,-4.1504,-4.0606,-3.9275,-3.6941,0.0,0.0,0.0,0.0,-2.5347,-2.4829,0.0,0.0,0.0,0.0,0.0,0.0,0.0,0.0,0.0,0.0,0.0,0.0,0.0,0.0,0.0,0.0,0.0,-4.862,-4.9506,-5.037,-5.1134,-5.2617,-5.3377,-5.3377,-5.3305,-5.3217,-5.3246,-5.3084,-5.3042,-5.3044,-5.2924,-5.2894,-5.2851,-5.2375,0.0,-5.0667,-5.0313,-4.9558,-4.8578,-4.8495,-4.8438,-4.8381,-4.8202,-4.7946,-4.7731,0.0,0.0,0.0,0.0,0.0,0.0,0.0,-0.81,-0.8724,-1.0467,-1.0763,-1.0669,-1.0328,-1.0392,-1.0456,0.0,0.0,0.0,0.0,0.0,0.0,0.0,0.0,0.0,0.0,0.0,0.0,0.0,0.0,0.0,0.0,0.0,0.0,0.0,0.0,0.0,0.0,0.0,0.0,0.0,0.0,0.0,0.0,0.0,0.0,0.0,0.0,0.0,0.0,0.0,-2.5358,-2.7312,-3.0559,-3.2676,-3.4379,-3.6317,-3.7874,-3.9098,-3.989,-4.0629,-4.101,-4.0352,-3.9589,-3.8302,-3.5669,-3.3021,0.0,0.0,-2.5279,-2.3377,-2.268,0.0,0.0,0.0,0.0,0.0,0.0,0.0,0.0,0.0,0.0,0.0,0.0,0.0,0.0,0.0,0.0,0.0,-4.862,-5.0082,-5.0952,-5.0952,-5.2458,-5.3261,-5.3261,-5.31,-5.3011,-5.2995,-5.2788,-5.2713,-5.2713,-5.2713,-5.2637,-5.2467,-5.1929,0.0,0.0,-4.9854,-4.9166,-4.8537,-4.8328,-4.8172,-4.8084,-4.7949,-4.7634,-4.7345,0.0,0.0,0.0,0.0,0.0,0.0,0.0,-0.81,-0.8724,-1.0467,-1.0763,-1.0834,-1.0905,-1.0987,-1.0833,0.0,0.0,0.0,0.0,0.0,0.0,0.0,0.0,0.0,0.0,0.0,0.0,0.0,0.0,0.0,0.0,0.0,0.0,0.0,0.0,0.0,0.0,0.0,0.0,0.0,0.0,0.0,0.0,0.0,0.0,0.0,0.0,0.0,0.0,0.0,0.0,-2.5041,-2.7731,-3.0304,-3.2698,-3.465,0.0,0.0,-3.8888,-3.9831,-4.0337,-3.9679,-3.8542,-3.6911,-3.4277,0.0,0.0,0.0,-2.4627,-2.3221,-2.2029,-2.1894,0.0,0.0,0.0,0.0,0.0,0.0,0.0,0.0,0.0,0.0,0.0,0.0,0.0,0.0,0.0,0.0,-4.862,-4.9928,-5.0725,-5.0725,-5.205,-5.2758,-5.2758,-5.2758,-5.2758,-5.2758,-5.2713,-5.2713,-5.2713,-5.2713,-5.2375,-5.179,-5.1728,0.0,0.0,-4.9454,-4.894,-4.8286,-4.8091,-4.7888,-4.7728,-4.7664,-4.7505,-4.7302,0.0,0.0,0.0,0.0,0.0,0.0,0.0,-0.81,-0.8724,-1.0467,-1.0721,-1.0818,-1.0982,-1.101,-1.0832,0.0,0.0,0.0,0.0,0.0,0.0,0.0,0.0,0.0,0.0,0.0,0.0,0.0,0.0,0.0,0.0,0.0,0.0,0.0,0.0,0.0,0.0,0.0,0.0,0.0,0.0,0.0,0.0,0.0,0.0,0.0,0.0,0.0,0.0,0.0,0.0,0.0,-2.5067,-2.6594,0.0,0.0,-3.4283,-3.5133,-3.6891,-3.7615,-3.7834,-3.7684,-3.6641,-3.5055,-3.2826,0.0,0.0,-2.4941,-2.3355,-2.2054,-2.0741,-2.085,-2.1458,0.0,0.0,0.0,0.0,0.0,0.0,0.0,0.0,0.0,0.0,0.0,0.0,0.0,0.0,0.0,-4.862,-4.9543,-5.0266,-5.0682,-5.1621,-5.2298,-5.2713,-5.2713,-5.2713,-5.2713,-5.2713,-5.2713,-5.2698,-5.2298,-5.1959,-5.1667,-5.0851,0.0,0.0,-4.8909,-4.8446,-4.8091,-4.7837,-4.7722,-4.7606,-4.7495,-4.7351,-4.7278,0.0,0.0,0.0,0.0,0.0,0.0,-0.7684,-0.8002,-0.8663,-1.0255,-1.0593,-1.0776,-1.0982,-1.0996,-1.0805,-1.0339,0.0,0.0,0.0,0.0,0.0,0.0,0.0,0.0,0.0,0.0,0.0,0.0,0.0,0.0,0.0,0.0,0.0,0.0,0.0,0.0,0.0,0.0,0.0,0.0,0.0,0.0,0.0,0.0,0.0,0.0,0.0,0.0,0.0,0.0,0.0,0.0,0.0,0.0,0.0,0.0,-3.1824,-3.2356,-3.4608,-3.5284,-3.5383,-3.5511,-3.4709,-3.332,0.0,0.0,0.0,-2.3834,-2.2293,-2.1051,-1.9917,-2.0094,-2.0711,0.0,0.0,-2.5349,0.0,0.0,0.0,0.0,0.0,0.0,0.0,0.0,0.0,0.0,0.0,0.0,0.0,-4.9097,-4.9682,-5.0374,-5.1051,-5.1728,-5.2406,-5.2406,-5.2513,-5.2713,-5.2513,-5.2406,-5.239,-5.1713,-5.1238,-5.0949,0.0,0.0,0.0,-4.8316,-4.8007,-4.7837,-4.7596,-4.751,-4.751,-4.7337,-4.7309,-4.7309,0.0,0.0,0.0,0.0,0.0,0.0,0.0,-0.7756,-0.8527,-0.9755,-1.0369,-1.0776,-1.0982,-1.0996,-1.0805,-1.0339,0.0,0.0,0.0,0.0,0.0,0.0,0.0,0.0,0.0,0.0,0.0,-1.4808,0.0,0.0,0.0,0.0,0.0,0.0,0.0,0.0,0.0,0.0,0.0,0.0,0.0,0.0,0.0,0.0,0.0,0.0,0.0,0.0,0.0,0.0,0.0,0.0,0.0,0.0,0.0,0.0,-2.8836,-2.9504,-3.2126,-3.3081,-3.333,-3.3328,-3.2914,-3.1854,0.0,0.0,0.0,-2.3122,-2.1635,-2.0513,-1.9828,-1.9708,-2.0157,-2.147,-2.2891,0.0,-2.7619,0.0,0.0,0.0,0.0,0.0,0.0,0.0,0.0,0.0,0.0,0.0,0.0,-4.862,-4.8958,-4.9682,-5.0359,-5.1036,-5.1698,-5.1713,-5.2052,-5.2698,-5.2036,-5.1713,-5.1698,-5.1021,-5.0184,0.0,0.0,0.0,0.0,-4.7724,-4.7639,-4.7581,-4.7381,-4.7309,-4.7309,-4.7309,-4.7309,-4.7309,0.0,0.0,0.0,0.0,0.0,0.0,0.0,-0.7446,-0.7857,-0.869,-0.9278,-0.9666,-0.9828,-1.0174,-1.0367,-1.03,0.0,0.0,0.0,0.0,0.0,0.0,0.0,0.0,0.0,0.0,-1.3754,-1.5424,-1.6121,-1.6779,0.0,0.0,0.0,0.0,0.0,0.0,0.0,0.0,0.0,0.0,0.0,0.0,0.0,0.0,0.0,0.0,0.0,0.0,0.0,0.0,0.0,0.0,0.0,0.0,0.0,0.0,0.0,0.0,-2.9505,-3.0278,-3.0554,-3.11,-3.0544,-2.9505,-2.8214,0.0,0.0,-2.2912,-2.1635,-2.0513,-1.9828,-2.0064,-2.0677,-2.156,-2.3182,-2.5167,0.0,0.0,0.0,0.0,0.0,0.0,0.0,0.0,0.0,0.0,0.0,0.0,0.0,-4.8453,-4.8791,-4.9666,-4.9897,-5.0227,-5.0756,-5.0756,-5.0776,-5.0857,-5.0644,-5.0552,-5.0522,-4.985,0.0,0.0,0.0,0.0,0.0,-4.7697,-4.7568,-4.7381,-4.7309,-4.7309,-4.7309,-4.7309,-4.7309,-4.7309,0.0,0.0,0.0,0.0,0.0,0.0,0.0,-0.7182,-0.7481,-0.7914,-0.8449,-0.8845,-0.8947,-0.9264,-0.9505,-0.9649,0.0,0.0,0.0,0.0,0.0,0.0,0.0,0.0,0.0,-1.2872,-1.3808,-1.5705,-1.6368,-1.7022,-1.7682,-1.8375,-1.8769,0.0,0.0,0.0,0.0,0.0,0.0,0.0,0.0,0.0,-1.5341,0.0,0.0,0.0,0.0,0.0,0.0,0.0,0.0,0.0,0.0,0.0,0.0,0.0,-2.257,0.0,0.0,-2.763,-2.8057,-2.8535,-2.8218,0.0,0.0,0.0,0.0,0.0,-2.1081,-2.0198,-1.9783,-2.0243,-2.1006,-2.1939,-2.3505,-2.5428,0.0,0.0,0.0,0.0,0.0,0.0,0.0,0.0,0.0,0.0,0.0,0.0,0.0,-4.8244,-4.8458,-4.9055,-4.9071,-4.9307,-4.9776,-4.9792,-4.987,-4.9997,-4.9739,-4.9706,-4.9796,-4.8964,0.0,0.0,0.0,0.0,0.0,-4.754,-4.7454,-4.7309,-4.7309,-4.7309,-4.7309,-4.7309,-4.7309,-4.7309,0.0,0.0,0.0,0.0,0.0,0.0,0.0,0.0,0.0,0.0,-0.7864,-0.8266,-0.8336,-0.8382,-0.8463,0.0,0.0,0.0,0.0,0.0,0.0,0.0,0.0,0.0,0.0,-1.2858,-1.3836,-1.5775,-1.6396,-1.7028,-1.7674,-1.8365,-1.8692,-1.8692,0.0,0.0,0.0,0.0,0.0,0.0,0.0,0.0,0.0,0.0,0.0,0.0,0.0,0.0,0.0,0.0,0.0,0.0,0.0,0.0,0.0,0.0,0.0,0.0,0.0,0.0,0.0,0.0,0.0,0.0,0.0,0.0,0.0,0.0,0.0,0.0,-1.9768,-2.0393,-2.1321,-2.2568,-2.3924,-2.5758,0.0,0.0,0.0,0.0,0.0,0.0,0.0,0.0,0.0,0.0,0.0,0.0,0.0,-4.7964,-4.7964,-4.7964,-4.7964,-4.8268,-4.8875,-4.889,-4.9209,-4.9801,-4.9194,-4.904,-4.9321,-4.8387,0.0,0.0,0.0,0.0,0.0,-4.7309,-4.7309,-4.7309,-4.7309,-4.7309,-4.7309,-4.7309,-4.7309,-4.7309,0.0,0.0,0.0,0.0,0.0,0.0,0.0,0.0,0.0,0.0,-0.7313,-0.7712,-0.7778,-0.8203,0.0,0.0,0.0,0.0,0.0,0.0,0.0,0.0,0.0,0.0,0.0,-1.2817,-1.403,-1.6452,-1.6624,-1.7239,-1.8287,-1.8467,-1.8595,-1.8692,-1.8711,0.0,0.0,0.0,0.0,0.0,0.0,0.0,0.0,0.0,0.0,0.0,-1.5457,-1.5922,0.0,0.0,0.0,0.0,0.0,0.0,0.0,0.0,-1.9798,-2.0436,-2.1046,0.0,-2.334,-2.4297,0.0,0.0,0.0,0.0,0.0,0.0,0.0,0.0,0.0,0.0,-2.3026,-2.3325,-2.5345,-2.748,0.0,0.0,0.0,0.0,0.0,0.0,0.0,0.0,0.0,0.0,0.0,0.0,0.0,-4.7794,-4.7709,-4.7709,-4.7553,-4.7628,-4.7951,-4.7951,-4.794,-4.7932,-4.7782,-4.7722,-4.781,-4.7557,0.0,0.0,0.0,0.0,-4.7309,-4.7309,-4.7309,-4.7309,-4.7309,-4.7309,-4.7309,-4.7309,-4.7309,-4.7309,0.0,0.0,0.0,0.0,0.0,0.0,0.0,0.0,0.0,0.0,0.0,0.0,0.0,0.0,0.0,0.0,0.0,0.0,0.0,0.0,0.0,0.0,0.0,0.0,-1.2692,-1.2775,-1.4041,-1.661,-1.6659,-1.7464,-1.8919,-1.8624,-1.8692,-1.899,-1.8469,0.0,0.0,0.0,0.0,0.0,0.0,0.0,0.0,0.0,0.0,0.0,-1.5163,-1.5582,0.0,-1.6566,-1.7149,-1.7809,0.0,0.0,0.0,0.0,-1.8709,-1.9232,-1.9232,-2.0404,-2.1893,-2.2899,-2.271,-2.2392,0.0,0.0,0.0,0.0,0.0,0.0,0.0,0.0,0.0,0.0,-2.6692,0.0,0.0,0.0,0.0,0.0,0.0,0.0,0.0,0.0,0.0,0.0,0.0,0.0,0.0,-4.7553,-4.7467,-4.7467,-4.7337,-4.7337,-4.7467,-4.7467,-4.7424,-4.7309,-4.7309,-4.7309,-4.7309,-4.7309,-4.7309,0.0,0.0,0.0,-4.7309,-4.7309,-4.7309,-4.7309,-4.7309,-4.7309,-4.7309,-4.7309,-4.7309,-4.7309,0.0,0.0,0.0,0.0,0.0,0.0,0.0,0.0,0.0,0.0,0.0,0.0,0.0,0.0,0.0,0.0,0.0,0.0,0.0,0.0,0.0,0.0,0.0,-1.1299,-1.2567,-1.2802,-1.4093,-1.6494,-1.6708,-1.7698,-1.9376,-1.8779,-1.8779,-1.9228,-1.8158,-1.7365,0.0,0.0,0.0,0.0,-1.5013,0.0,0.0,0.0,0.0,0.0,0.0,0.0,0.0,-1.6053,-1.649,-1.7019,-1.7134,0.0,0.0,0.0,0.0,0.0,-1.8201,-1.9435,-2.0886,-2.1656,-2.1872,-2.1927,0.0,0.0,0.0,0.0,0.0,0.0,0.0,0.0,0.0,0.0,0.0,0.0,0.0,0.0,0.0,0.0,0.0,0.0,0.0,0.0,0.0,0.0,0.0,0.0,0.0,-4.7309,-4.7309,-4.7309,-4.7309,-4.7309,-4.7309,-4.7309,-4.7309,-4.7309,-4.7309,-4.7309,-4.7309,-4.7309,-4.7309,0.0,0.0,0.0,-4.7309,-4.7309,-4.7309,-4.7309,-4.7309,-4.7309,-4.7309,-4.7309,-4.7309,-4.7309,0.0,0.0,0.0,0.0,0.0,0.0,0.0,0.0,0.0,0.0,0.0,0.0,0.0,0.0,0.0,0.0,0.0,0.0,0.0,0.0,0.0,0.0,-1.0435,-1.1299,-1.2567,-1.3115,-1.4414,-1.6494,-1.7028,-1.8014,-1.9376,-1.8779,-1.8554,-1.861,-1.7913,-1.7311,-1.6763,-1.6106,-1.5517,-1.5013,-1.5013,0.0,0.0,0.0,0.0,0.0,0.0,0.0,0.0,-1.5814,-1.6088,-1.6276,-1.6852,0.0,0.0,0.0,0.0,0.0,-1.8201,-1.8782,-1.9682,-2.0857,-2.0791,-2.0729,0.0,0.0,0.0,0.0,0.0,0.0,0.0,0.0,0.0,0.0,0.0,0.0,0.0,0.0,0.0,0.0,0.0,0.0,0.0,0.0,0.0,0.0,0.0,0.0,0.0,0.0,-4.7309,-4.7309,-4.7309,-4.7309,-4.7309,-4.7309,-4.7309,-4.7309,-4.7309,-4.7309,-4.7309,-4.7309,-4.7309,0.0,0.0,-4.7309,-4.7309,-4.7309,-4.7309,-4.7309,-4.7309,-4.7309,-4.7309,-4.7309,-4.7309,-4.7309,0.0,0.0,0.0,0.0,0.0,0.0,0.0,0.0,0.0,0.0,0.0,0.0,0.0,0.0,0.0,0.0,0.0,0.0,0.0,0.0,0.0,-0.9774,-1.0693,-1.1613,-1.2524,-1.348,-1.4795,-1.6458,-1.7088,-1.828,-1.9929,-1.9669,-1.9164,-1.8456,-1.7534,-1.6979,-1.6694,-1.5687,-1.5124,-1.4889,0.0,0.0,0.0,0.0,0.0,0.0,0.0,0.0,0.0,0.0,-1.5423,-1.5513,-1.5813,0.0,0.0,0.0,0.0,0.0,-1.7508,-1.8307,-1.9368,-2.0669,-2.1061,-2.1474,-2.2782,0.0,0.0,0.0,0.0,0.0,0.0,0.0,0.0,0.0,0.0,0.0,0.0,0.0,0.0,0.0,0.0,0.0,0.0,0.0,0.0,0.0,0.0,0.0,0.0,0.0,-4.7309,-4.7309,-4.7309,-4.7309,-4.7309,-4.7309,-4.7309,-4.7309,-4.7309,-4.7309,-4.7309,-4.7309,-4.7309,-4.7309,0.0,-4.7062,-4.7077,-4.699,-4.699,-4.7062,-4.7062,-4.7164,-4.7309,-4.7309,-4.7309,-4.7309,0.0,0.0,0.0,0.0,0.0,0.0,0.0,0.0,0.0,0.0,0.0,0.0,0.0,0.0,0.0,0.0,0.0,0.0,0.0,0.0,-0.9103,-0.956,-1.1018,-1.2034,-1.2494,-1.3872,-1.5171,-1.6352,-1.7186,-1.8414,-1.9964,-2.0105,-1.9564,-1.8442,-1.7239,-1.6708,-1.6624,-1.5342,-1.4808,-1.4808,0.0,0.0,0.0,0.0,0.0,0.0,0.0,0.0,0.0,0.0,0.0,0.0,0.0,0.0,0.0,-1.4981,-1.5454,-1.616,-1.6857,-1.8003,-1.931,-2.0643,0.0,-2.2541,-2.3818,0.0,0.0,0.0,0.0,0.0,0.0,0.0,0.0,0.0,0.0,0.0,0.0,0.0,0.0,0.0,0.0,0.0,0.0,0.0,0.0,0.0,0.0,0.0,0.0,0.0,-4.7207,-4.7207,-4.7266,-4.7309,-4.7309,-4.7251,-4.7251,-4.7309,-4.7309,-4.7266,-4.7207,-4.7207,-4.7164,-4.7121,-4.6931,-4.6844,-4.68,-4.6683,-4.6683,-4.6844,-4.6873,-4.7062,-4.7309,-4.7309,-4.7309,-4.7309,0.0,0.0,0.0,0.0,0.0,0.0,0.0,0.0,0.0,0.0,0.0,0.0,0.0,0.0,0.0,0.0,0.0,0.0,0.0,0.0,-0.8914,-0.8968,-1.1195,-1.2454,-1.2494,-1.4232,-1.5496,-1.6208,-1.7501,-1.8321,-1.8652,-1.9214,-1.9129,-1.8442,-1.7239,-1.6708,-1.6624,-1.5342,-1.4808,-1.4808,-1.4808,0.0,0.0,0.0,0.0,0.0,0.0,0.0,0.0,0.0,0.0,0.0,0.0,0.0,-1.4917,-1.4917,-1.5435,-1.6127,-1.6755,-1.7931,-1.931,-2.059,0.0,0.0,-2.4423,-2.5749,0.0,0.0,0.0,0.0,0.0,0.0,0.0,0.0,0.0,0.0,0.0,0.0,0.0,0.0,0.0,0.0,0.0,0.0,0.0,0.0,0.0,0.0,0.0,0.0,0.0,-4.6931,-4.7164,-4.7309,-4.7309,-4.7062,-4.7062,-4.7309,-4.7309,-4.7164,-4.6931,-4.6931,-4.6844,-4.6639,-4.6639,-4.6639,-4.6639,-4.6594,-4.6594,-4.6639,-4.6844,-4.7062,-4.7309,-4.7309,-4.7309,-4.7309,0.0,0.0,0.0,0.0,0.0,0.0,0.0,0.0,0.0,0.0,0.0,0.0,0.0,0.0,0.0,0.0,0.0,0.0,0.0,0.0,-0.8901,-0.8901,-1.0843,-1.2116,-1.2494,-1.4636,-1.5896,-1.6208,-1.8007,-1.8743,-1.8512,-1.9129,-1.9087,-1.8456,-1.7632,-1.7042,-1.6652,-1.575,-1.5129,-1.4808,-1.4808,-1.4808,0.0,0.0,0.0,0.0,0.0,0.0,0.0,0.0,-1.4808,-1.4808,0.0,-1.4824,-1.4839,-1.4839,-1.504,-1.5483,-1.6539,-1.7786,-1.9232,-2.1017,0.0,0.0,0.0,0.0,0.0,0.0,0.0,0.0,0.0,0.0,0.0,0.0,0.0,0.0,0.0,0.0,0.0,0.0,0.0,0.0,0.0,0.0,0.0,0.0,0.0,0.0,0.0,0.0,0.0,-4.6712,-4.6815,-4.6858,-4.6858,-4.6771,-4.6771,-4.6873,-4.6962,-4.6903,-4.6712,-4.6594,-4.6565,-4.6594,-4.6403,-4.6358,-4.6358,-4.6239,-4.6239,-4.6358,-4.6624,-4.6844,-4.7062,-4.7062,-4.6895,-4.6696,0.0,0.0,0.0,0.0,0.0,0.0,0.0,0.0,0.0,0.0,0.0,0.0,0.0,0.0,0.0,0.0,0.0,0.0,0.0,-0.8017,-0.8701,-0.8887,-1.0449,-1.16,-1.2211,-1.4392,-1.5651,-1.5868,-1.7705,-1.855,-1.8459,-1.8865,-1.8851,-1.847,-1.7871,-1.7253,-1.6666,-1.5972,-1.5354,-1.4808,-1.4808,-1.4808,0.0,0.0,0.0,0.0,0.0,0.0,0.0,0.0,-1.4359,0.0,0.0,0.0,0.0,0.0,-1.4935,-1.5328,-1.6454,-1.7851,-1.9407,0.0,0.0,0.0,0.0,0.0,0.0,0.0,0.0,0.0,0.0,0.0,0.0,0.0,0.0,0.0,0.0,0.0,0.0,0.0,0.0,0.0,0.0,0.0,0.0,0.0,0.0,0.0,0.0,0.0,0.0,0.0,-4.655,-4.6594,-4.6594,-4.6506,-4.6447,-4.6447,-4.6506,-4.6506,-4.6447,-4.6344,-4.6344,-4.6373,-4.618,-4.609,-4.609,-4.597,-4.6001,-4.621,-4.6403,-4.6491,-4.6474,-4.6474,-4.6203,-4.5796,0.0,0.0,0.0,0.0,0.0,0.0,0.0,0.0,0.0,0.0,0.0,0.0,0.0,0.0,0.0,0.0,0.0,0.0,-0.6997,-0.7628,-0.826,-0.8873,-1.0044,-1.099,-1.1587,-1.3364,-1.4602,-1.5213,-1.6473,-1.7496,-1.8305,-1.8305,-1.8358,-1.847,-1.7866,-1.7267,-1.6666,-1.5986,-1.5354,-1.4808,-1.4808,-1.4808,-1.4808,0.0,0.0,0.0,0.0,0.0,0.0,0.0,-1.3389,0.0,0.0,0.0,0.0,-1.4794,-1.5214,-1.5845,-1.6508,-1.812,0.0,0.0,0.0,0.0,0.0,0.0,0.0,0.0,0.0,0.0,0.0,0.0,0.0,0.0,0.0,0.0,0.0,0.0,0.0,0.0,0.0,0.0,0.0,0.0,0.0,0.0,0.0,0.0,0.0,0.0,0.0,0.0,-4.6447,-4.6594,-4.6594,-4.6314,-4.621,-4.621,-4.6001,-4.6001,-4.621,-4.6254,-4.6164,-4.588,-4.588,-4.588,-4.588,-4.588,-4.6001,-4.6195,-4.6195,-4.5933,-4.5577,-4.5577,-4.5222,-4.4706,0.0,0.0,0.0,0.0,0.0,0.0,0.0,0.0,0.0,0.0,0.0,0.0,0.0,0.0,0.0,0.0,0.0,0.0,0.0,-0.7584,-0.8228,-0.8873,-0.9641,-1.0557,-1.1573,-1.2536,-1.3977,-1.5899,-1.6273,-1.6839,-1.7592,-1.7592,-1.7871,-1.8358,-1.8177,-1.7572,-1.6694,-1.648,-1.5778,-1.4808,-1.4808,-1.4808,-1.4808,0.0,0.0,0.0,0.0,0.0,0.0,0.0,0.0,0.0,0.0,0.0,0.0,-1.4162,-1.4893,-1.5845,-1.6508,-1.8045,0.0,0.0,0.0,0.0,0.0,0.0,0.0,0.0,0.0,0.0,0.0,0.0,0.0,0.0,0.0,0.0,0.0,0.0,0.0,0.0,0.0,0.0,0.0,0.0,0.0,0.0,0.0,0.0,0.0,0.0,0.0,0.0,-4.606,-4.6105,-4.6105,-4.6015,-4.6015,-4.5956,-4.5329,-4.5358,-4.6015,-4.6015,-4.5985,-4.588,-4.588,-4.588,-4.5851,-4.5372,-4.5228,-4.5258,-4.4836,-4.4675,-4.4715,-4.4715,-4.4389,-4.3997,0.0,0.0,0.0,0.0,0.0,0.0,0.0,0.0,0.0,0.0,0.0,0.0,0.0,0.0,0.0,0.0,0.0,0.0,0.0,0.0,-0.794,-0.882,-0.9228,-1.0112,-1.156,-1.1953,-1.3107,-1.509,-1.5336,-1.6058,-1.722,-1.722,-1.7595,-1.8274,-1.8274,-1.7626,-1.6585,-1.6585,-1.5845,-1.4671,-1.4671,-1.4547,-1.4367,0.0,0.0,0.0,0.0,0.0,0.0,0.0,0.0,0.0,0.0,0.0,0.0,-1.3825,-1.4752,-1.5845,-1.6508,0.0,0.0,0.0,0.0,0.0,0.0,0.0,0.0,0.0,0.0,0.0,0.0,0.0,0.0,0.0,0.0,0.0,0.0,0.0,0.0,0.0,0.0,0.0,0.0,0.0,0.0,0.0,0.0,0.0,0.0,0.0,0.0,0.0,-4.514,-4.514,-4.514,-4.514,-4.514,-4.5126,-4.4792,-4.4705,-4.4892,-4.4892,-4.5038,-4.5389,-4.5214,-4.514,-4.5097,-4.469,-4.4531,-4.4501,-4.4139,-4.3905,-4.3786,-4.3786,-4.3462,-4.3045,0.0,0.0,0.0,0.0,0.0,0.0,0.0,0.0,0.0,0.0,0.0,0.0,0.0,0.0,0.0,0.0,0.0,0.0,0.0,0.0,-0.7539,-0.8735,-0.8967,-0.983,-1.1478,-1.1505,-1.2075,-1.324,-1.3893,-1.5179,-1.7011,-1.7011,-1.7424,-1.8169,-1.8169,-1.7507,-1.6393,-1.6393,-1.5661,-1.4501,-1.4446,-1.4145,-1.3689,-1.3634,0.0,0.0,0.0,0.0,0.0,0.0,0.0,0.0,0.0,0.0,-1.301,-1.36,-1.4652,-1.5775,0.0,0.0,0.0,0.0,0.0,0.0,0.0,0.0,0.0,0.0,0.0,0.0,0.0,0.0,0.0,0.0,0.0,0.0,0.0,0.0,0.0,0.0,0.0,0.0,0.0,0.0,0.0,0.0,0.0,0.0,0.0,0.0,0.0,-4.4008,-4.3993,-4.3993,-4.3993,-4.3993,-4.3993,0.0,-4.4312,-4.4065,-4.3315,-4.3358,-4.3777,-4.4457,-4.4153,-4.3993,-4.3993,-4.3921,-4.3906,-4.3892,-4.3834,-4.3442,-4.2919,-4.2919,-4.2571,-4.2092,0.0,0.0,0.0,0.0,0.0,0.0,0.0,0.0,0.0,0.0,0.0,0.0,0.0,0.0,0.0,0.0,0.0,0.0,0.0,0.0,-0.7513,-0.8677,-0.9691,-1.0419,-1.0808,-1.0871,-1.1261,-1.1994,-1.3079,-1.4531,-1.6313,-1.6313,-1.6946,-1.8042,-1.8042,-1.7435,-1.6393,-1.6393,-1.5661,-1.446,-1.4035,-1.38,-1.3648,-1.3163,-1.2595,0.0,0.0,0.0,0.0,0.0,0.0,0.0,-1.1126,-1.1554,-1.2179,-1.2775,-1.3888,-1.5147,0.0,0.0,0.0,0.0,0.0,0.0,0.0,0.0,0.0,0.0,0.0,0.0,0.0,0.0,0.0,0.0,0.0,0.0,0.0,0.0,0.0,0.0,0.0,0.0,0.0,0.0,0.0,0.0,0.0,0.0,0.0,0.0,0.0,-4.3993,-4.3993,-4.3993,-4.3993,-4.3993,-4.3993,0.0,-4.3543,-4.331,-4.331,-4.366,-4.3762,-4.3603,-4.3878,-4.3993,-4.395,-4.3427,-4.321,-4.3166,-4.2687,-4.2411,-4.2281,-4.2281,-4.2208,-4.2092,0.0,0.0,0.0,0.0,0.0,0.0,0.0,0.0,0.0,0.0,0.0,0.0,0.0,0.0,0.0,0.0,0.0,0.0,0.0,0.0,0.0,-0.8656,-0.9885,-1.056,-1.056,-1.0597,-1.0903,-1.1508,-1.2466,0.0,0.0,0.0,0.0,-1.7955,0.0,-1.732,-1.6263,-1.6263,-1.5538,-1.4347,-1.3787,-1.3391,-1.3061,-1.2471,-1.1827,-1.1267,-1.1267,0.0,0.0,0.0,0.0,0.0,0.0,0.0,-1.149,-1.2084,-1.3191,-1.4471,0.0,0.0,0.0,0.0,0.0,0.0,0.0,0.0,0.0,0.0,0.0,0.0,0.0,0.0,0.0,0.0,0.0,0.0,0.0,0.0,0.0,0.0,0.0,0.0,0.0,0.0,0.0,0.0,0.0,0.0,0.0,-4.3373,-4.307,-4.2782,-4.2767,-4.2767,-4.2767,-4.2767,-4.281,-4.2881,-4.2519,-4.2487,-4.2742,-4.2991,-4.2979,-4.2721,-4.2979,-4.3079,-4.305,-4.2702,-4.2571,-4.2528,-4.2223,-4.2092,-4.2092,-4.2092,-4.2092,-4.2092,0.0,0.0,0.0,0.0,0.0,0.0,0.0,0.0,0.0,0.0,0.0,0.0,0.0,0.0,0.0,0.0,0.0,0.0,0.0,0.0,0.0,0.0,-0.9892,-1.0486,-1.0486,-1.0498,-1.0737,-1.1242,0.0,0.0,0.0,0.0,0.0,-1.7902,0.0,-1.7217,-1.61,-1.61,-1.5413,-1.4246,-1.3649,-1.3105,-1.2604,-1.1994,-1.1383,-1.0855,-1.0855,-1.0788,-1.0705,-1.0753,0.0,0.0,0.0,0.0,-1.0985,-1.159,-1.2582,-1.3785,0.0,0.0,0.0,0.0,0.0,0.0,0.0,0.0,0.0,0.0,0.0,0.0,0.0,0.0,0.0,0.0,0.0,0.0,0.0,0.0,0.0,0.0,0.0,0.0,0.0,0.0,0.0,0.0,0.0,0.0,-4.2353,-4.2181,-4.191,-4.141,-4.1396,-4.1396,-4.1396,-4.1396,-4.1465,-4.166,-4.166,-4.1758,-4.2036,-4.2065,-4.2107,-4.2092,-4.2092,-4.2092,-4.2092,-4.2092,-4.2092,-4.2092,-4.2092,-4.2092,-4.2092,-4.2092,-4.2092,-4.2092,0.0,0.0,0.0,0.0,0.0,0.0,0.0,0.0,0.0,0.0,0.0,0.0,0.0,0.0,0.0,0.0,0.0,0.0,-0.6816,0.0,0.0,-0.9365,-1.0057,-1.0412,-1.0412,-1.0474,-1.0538,-1.0617,0.0,0.0,0.0,0.0,0.0,-1.7902,0.0,0.0,-1.61,-1.61,-1.5413,-1.4246,-1.3649,-1.3349,-1.3213,-1.2617,-1.2007,-1.1478,-1.1478,-1.1139,-1.0693,-1.0705,-1.0705,0.0,0.0,0.0,-1.0851,-1.145,-1.2157,0.0,0.0,0.0,0.0,0.0,0.0,0.0,0.0,0.0,0.0,0.0,0.0,0.0,0.0,0.0,0.0,0.0,0.0,0.0,0.0,0.0,0.0,0.0,0.0,0.0,0.0,0.0,0.0,0.0,0.0,0.0,-4.2281,-4.1796,-4.1481,-4.1396,-4.1396,-4.1396,-4.1396,-4.1396,-4.1396,-4.1438,-4.1438,-4.1549,-4.1744,-4.1999,-4.2096,-4.2092,-4.2092,-4.2092,-4.2092,-4.2092,-4.2092,-4.2092,-4.2092,-4.2092,-4.2092,-4.2092,-4.2092,-4.2092,0.0,0.0,0.0,0.0,0.0,0.0,0.0,0.0,0.0,0.0,0.0,0.0,0.0,0.0,0.0,-0.6698,-0.6723,-0.6898,-0.7277,-0.8083,-0.8828,-0.9472,-1.0048,-1.0337,-1.0337,-1.0362,-1.0387,0.0,0.0,0.0,0.0,-1.518,-1.6596,0.0,0.0,0.0,0.0,0.0,0.0,-1.4724,-1.3785,-1.3403,-1.3322,-1.2725,-1.2346,-1.2102,-1.2102,-1.1939,-1.1709,-1.1709,-1.1479,-1.1207,-1.1207,0.0,0.0,0.0,-1.1545,0.0,0.0,0.0,0.0,0.0,0.0,0.0,0.0,0.0,0.0,0.0,0.0,0.0,0.0,0.0,0.0,0.0,0.0,0.0,0.0,0.0,0.0,0.0,0.0,0.0,0.0,0.0,0.0,0.0,0.0,-4.1311,-4.1383,-4.1142,-4.1001,-4.1001,-4.1001,-4.1001,-4.1001,-4.1001,-4.1086,-4.1198,-4.1339,-4.1438,-4.1549,-4.1944,-4.2111,-4.2092,-4.2092,-4.2092,-4.2092,-4.2092,-4.2092,-4.2092,-4.2092,-4.2092,-4.2092,-4.2092,-4.2092,-4.2092,0.0,0.0,0.0,0.0,0.0,0.0,0.0,0.0,0.0,0.0,0.0,0.0,0.0,0.0,0.0,0.0,-0.7103,-0.7391,-0.8059,-0.8482,-0.8993,-0.9659,-1.0053,-1.0287,-1.0299,-1.0299,0.0,0.0,0.0,0.0,-1.3076,-1.4889,-1.6312,0.0,-1.7558,0.0,0.0,0.0,0.0,0.0,0.0,0.0,0.0,-1.3518,-1.3276,-1.3141,-1.3171,-1.3091,-1.2942,-1.2779,-1.2427,-1.2007,-1.1708,-1.1288,0.0,0.0,0.0,0.0,0.0,0.0,0.0,0.0,0.0,0.0,0.0,0.0,0.0,0.0,0.0,0.0,0.0,0.0,0.0,0.0,0.0,0.0,0.0,0.0,0.0,0.0,0.0,0.0,0.0,0.0,0.0,0.0,0.0,-4.0702,-4.0702,-4.0702,-4.0702,-4.0702,-4.0702,-4.0702,-4.0702,-4.0702,-4.0773,-4.093,-4.1128,-4.1255,-4.1297,-4.1635,-4.1886,-4.198,-4.2036,-4.2092,-4.2092,-4.2092,-4.2092,-4.2092,-4.2092,-4.2092,-4.2092,-4.2092,-4.2092,-4.2092,0.0,0.0,0.0,0.0,0.0,0.0,0.0,0.0,0.0,0.0,0.0,0.0,-0.815,-0.8211,-0.8211,-0.8211,-0.8217,-0.8499,-0.9175,-0.9239,-0.9532,-1.0147,-1.0199,0.0,-1.0299,-1.0299,0.0,0.0,0.0,0.0,-1.2941,-1.4694,-1.589,-1.6593,-1.7236,-1.7176,-1.6631,0.0,0.0,0.0,0.0,0.0,0.0,0.0,0.0,0.0,0.0,0.0,-1.4124,-1.3539,-1.3322,-1.312,-1.1953,-1.1573,-1.1437,0.0,0.0,0.0,0.0,0.0,0.0,0.0,0.0,0.0,0.0,0.0,0.0,0.0,0.0,0.0,0.0,0.0,0.0,0.0,0.0,0.0,0.0,0.0,0.0,0.0,0.0,0.0,0.0,0.0,0.0,0.0,0.0,-4.0702,-4.0702,-4.0702,-4.0702,-4.0702,-4.0702,-4.0702,-4.0702,-4.0702,-4.0702,-4.0702,-4.0744,-4.0859,-4.1043,-4.1043,-4.1254,-4.1645,-4.198,-4.2092,-4.2092,-4.2092,-4.2092,-4.2092,-4.2092,-4.2092,-4.2092,-4.2092,-4.2092,-4.2092,0.0,0.0,0.0,0.0,0.0,0.0,0.0,0.0,0.0,0.0,0.0,0.0,0.0,-0.8298,-0.8298,-0.8298,-0.8309,-0.8567,-0.9192,-0.9242,-0.9509,-1.011,-1.0173,-1.0212,-1.025,-1.0287,0.0,0.0,0.0,-1.1761,-1.2361,-1.3749,-1.4725,-1.5333,-1.6804,-1.7341,-1.7163,-1.6757,0.0,0.0,0.0,0.0,0.0,0.0,0.0,0.0,0.0,0.0,0.0,-1.5879,-1.5196,-1.4409,-1.3581,-1.2551,-1.1478,-1.0869,-1.1139,0.0,0.0,0.0,0.0,0.0,0.0,0.0,0.0,0.0,0.0,0.0,0.0,0.0,0.0,0.0,0.0,0.0,0.0,0.0,0.0,0.0,0.0,0.0,0.0,0.0,0.0,0.0,0.0,0.0,0.0,0.0,-4.0702,-4.0702,-4.0702,-4.0702,-4.0702,-4.0702,-4.0702,-4.0702,-4.0702,-4.0702,-4.0702,-4.073,-4.0802,-4.0916,-4.1,-4.1041,-4.1603,-4.1939,-4.2092,-4.2092,-4.2092,-4.2092,-4.2092,-4.2092,-4.2092,-4.2092,-4.2092,-4.2092,0.0,0.0,0.0,0.0,0.0,0.0,0.0,0.0,0.0,0.0,0.0,0.0,0.0,0.0,-0.9279,-0.9128,-0.894,-0.9012,-0.9413,-0.9438,-0.9627,-1.0059,-1.011,-1.0148,-1.0173,-1.0211,0.0,0.0,0.0,0.0,0.0,-1.2938,-1.3804,-1.4393,-1.5811,-1.6593,0.0,0.0,0.0,-1.654,0.0,0.0,-1.7148,0.0,0.0,0.0,0.0,0.0,0.0,0.0,0.0,0.0,-1.5192,-1.3527,-1.179,-1.1167,-1.1139,0.0,0.0,0.0,0.0,0.0,0.0,0.0,0.0,0.0,0.0,0.0,0.0,0.0,0.0,0.0,0.0,0.0,0.0,0.0,0.0,0.0,0.0,0.0,0.0,0.0,0.0,0.0,0.0,0.0,0.0,0.0,-4.0393,-4.0589,-4.0702,-4.0702,-4.0702,-4.0702,-4.0702,-4.0702,-4.0702,-4.0702,-4.0702,-4.0702,-4.0688,-4.0859,-4.0831,-4.0746,-4.1323,-4.1773,-4.2092,-4.2092,-4.2092,-4.2092,-4.2092,-4.2092,-4.2092,-4.2092,-4.2092,-4.2092,0.0,0.0,0.0,0.0,0.0,0.0,0.0,0.0,0.0,-0.8803,0.0,0.0,0.0,0.0,0.0,-1.0769,-1.0231,-0.9931,-0.9931,-0.9905,-0.9919,-0.9995,-0.9995,-1.0034,-1.0097,-1.0097,0.0,0.0,0.0,0.0,0.0,0.0,-1.3176,-1.3778,-1.4284,-1.4859,-1.5479,0.0,-1.6388,-1.6493,0.0,-1.8114,-1.8292,0.0,0.0,0.0,-2.0826,-2.105,0.0,0.0,0.0,0.0,0.0,0.0,-1.2427,-1.1818,0.0,0.0,0.0,0.0,0.0,0.0,0.0,0.0,0.0,0.0,0.0,0.0,0.0,0.0,0.0,0.0,0.0,0.0,0.0,0.0,0.0,0.0,0.0,0.0,0.0,0.0,0.0,0.0,0.0,0.0,0.0,-3.9746,-3.9746,-4.0336,-4.0674,-4.0674,-4.0688,-4.0702,-4.0702,-4.0702,-4.0702,-4.0702,-4.0702,-4.0702,-4.0702,-4.0702,-4.0703,-4.0718,-4.1212,-4.1662,-4.2092,-4.2092,-4.2092,-4.2092,-4.2092,-4.2092,-4.2092,-4.2092,-4.2092,-4.2092,0.0,0.0,0.0,0.0,0.0,0.0,0.0,0.0,0.0,0.0,0.0,0.0,-1.1075,-1.1282,-1.1395,-1.1347,-1.0808,-1.0482,-1.0482,-1.0119,-0.9918,-0.9919,-0.997,-1.0008,-1.0034,-1.0084,0.0,0.0,0.0,0.0,0.0,0.0,0.0,0.0,-1.2631,-1.3053,-1.3752,-1.5604,0.0,0.0,-1.7643,-1.8597,0.0,0.0,0.0,0.0,0.0,-2.2406,-2.2577,0.0,-2.0502,-1.9199,0.0,0.0,0.0,0.0,0.0,0.0,-1.2211,0.0,0.0,0.0,0.0,0.0,0.0,0.0,0.0,0.0,0.0,0.0,0.0,0.0,0.0,0.0,0.0,0.0,0.0,0.0,0.0,0.0,0.0,0.0,0.0,0.0,0.0,0.0,-3.8561,-3.8658,-3.8658,-3.9396,-3.9915,-4.0027,-4.0463,-4.0702,-4.0702,-4.0702,-4.0702,-4.0702,-4.0702,-4.0702,-4.0702,-4.0702,-4.0703,-4.0718,-4.1212,-4.1549,-4.1771,-4.1995,-4.2092,-4.2092,-4.2092,-4.2092,-4.2092,-4.2092,-4.2092,-4.2092,0.0,0.0,0.0,0.0,0.0,0.0,0.0,0.0,0.0,0.0,0.0,0.0,-1.2562,-1.2447,-1.2324,-1.2227,-1.1674,-1.125,-1.1084,-1.0545,-1.0231,-1.0231,-1.0057,-0.9957,-0.9957,-0.9995,0.0,0.0,0.0,0.0,0.0,0.0,0.0,0.0,0.0,0.0,0.0,0.0,0.0,0.0,-1.7539,0.0,0.0,-2.1014,-2.2309,0.0,0.0,0.0,-2.4242,-2.3238,-2.1822,0.0,0.0,0.0,0.0,0.0,0.0,0.0,0.0,0.0,0.0,0.0,0.0,0.0,0.0,-1.7929,0.0,0.0,0.0,0.0,0.0,0.0,0.0,0.0,0.0,0.0,0.0,0.0,0.0,0.0,0.0,0.0,0.0,0.0,0.0,-3.7054,-3.7524,-3.7924,-3.8186,-3.8769,-3.9243,-3.9648,-4.0083,-4.0449,-4.0702,-4.0702,-4.0702,-4.0702,-4.0702,-4.0702,-4.0702,-4.0702,-4.0702,-4.0717,-4.0986,-4.1296,-4.1606,-4.1856,-4.1995,-4.2092,-4.2092,-4.2092,-4.2092,-4.2092,-4.2092,-4.2092,0.0,0.0,0.0,0.0,0.0,0.0,0.0,0.0,0.0,0.0,-1.3029,-1.3898,-1.4509,-1.4211,-1.3785,-1.3382,-1.2795,-1.2258,-1.1798,-1.1207,-1.0819,-1.0706,-1.0244,-0.9968,-0.9905,-0.9905,0.0,0.0,0.0,0.0,0.0,0.0,0.0,0.0,0.0,0.0,0.0,0.0,0.0,-1.5644,-1.7395,-1.8819,0.0,0.0,-2.3197,0.0,-2.4835,-2.538,-2.5733,-2.4636,-2.2894,0.0,0.0,0.0,0.0,0.0,-1.5256,0.0,0.0,0.0,0.0,0.0,0.0,0.0,-1.6935,-1.7814,-1.8764,0.0,0.0,0.0,0.0,0.0,0.0,0.0,0.0,0.0,0.0,0.0,0.0,0.0,0.0,0.0,0.0,-3.4717,-3.5151,-3.5317,-3.6338,-3.722,-3.7827,-3.8103,-3.8533,-3.9215,-3.9522,-3.9971,-4.0546,-4.0603,-4.0631,-4.0702,-4.0702,-4.0702,-4.0702,-4.0702,-4.0702,-4.0688,-4.0746,-4.1057,-4.1566,-4.1647,-4.1841,-4.2092,-4.2092,-4.2092,-4.2092,-4.2092,-4.2092,-4.2092,-0.9796,0.0,0.0,0.0,0.0,0.0,0.0,0.0,0.0,0.0,-1.4345,-1.4967,-1.5617,-1.5602,-1.5365,-1.4914,-1.4362,-1.3705,-1.2863,-1.2249,-1.1544,-1.0731,-1.0607,-1.0344,-0.9905,-0.9905,0.0,0.0,0.0,0.0,0.0,0.0,0.0,0.0,0.0,0.0,0.0,0.0,0.0,-1.5644,-1.7395,0.0,-2.0648,-2.1917,-2.3665,-2.5445,-2.5123,-2.5659,-2.6287,0.0,-2.324,-2.1931,0.0,0.0,0.0,0.0,0.0,0.0,0.0,0.0,0.0,0.0,0.0,0.0,-1.6576,-1.6941,-1.7504,0.0,0.0,0.0,0.0,0.0,0.0,0.0,0.0,0.0,0.0,0.0,0.0,0.0,0.0,0.0,0.0,-3.3808,-3.4161,-3.4199,-3.4417,-3.4942,-3.5754,-3.6274,-3.6945,-3.7716,-3.8393,-3.9061,-3.9746,-3.9873,-4.021,-4.0702,-4.0702,-4.0702,-4.0702,-4.0702,-4.0702,-4.0702,-4.0859,-4.1142,-4.1452,-4.1633,-4.1841,-4.2092,-4.2092,-4.2092,-4.2092,-4.2092,-4.2092,-4.2092,-1.016,0.0,0.0,0.0,0.0,0.0,0.0,0.0,0.0,0.0,0.0,-1.6329,-1.6652,-1.6712,-1.6517,-1.6105,-1.5813,-1.5265,-1.4361,-1.3766,-1.2995,-1.1996,-1.1683,-1.1159,-1.0319,-1.0294,0.0,0.0,0.0,0.0,0.0,0.0,0.0,0.0,0.0,0.0,0.0,0.0,-1.3791,-1.5579,-1.7047,0.0,-2.083,-2.1969,-2.3812,-2.5754,-2.5497,-2.5942,-2.6536,-2.5354,-2.4191,0.0,0.0,-2.1197,-2.0173,0.0,-1.911,-1.861,0.0,0.0,0.0,-1.7602,0.0,0.0,0.0,-1.7543,-1.7705,0.0,0.0,0.0,0.0,0.0,0.0,0.0,0.0,0.0,0.0,0.0,0.0,0.0,0.0,0.0,0.0,-3.2277,-3.2861,-3.3471,-3.3498,-3.3808,-3.4496,-3.5266,-3.5987,-3.6672,-3.7468,-3.8422,-3.948,-3.9606,-3.9999,-4.0702,-4.0702,-4.0702,-4.0702,-4.0702,-4.0702,-4.0702,-4.0816,-4.0972,-4.1241,-4.1451,-4.1675,-4.1897,-4.2051,-4.2092,-4.2092,-4.2092,-4.2281,-4.2542,-1.0516,0.0,0.0,0.0,0.0,0.0,0.0,0.0,0.0,0.0,0.0,0.0,0.0,0.0,0.0,-1.7424,-1.7376,-1.6972,0.0,0.0,0.0,-1.3538,-1.2968,-1.2143,-1.1059,-1.0806,-1.0494,0.0,0.0,0.0,0.0,0.0,0.0,0.0,0.0,0.0,0.0,0.0,0.0,-1.5782,0.0,-1.8689,-2.083,-2.1983,-2.3827,-2.5819,-2.6041,-2.6373,-2.6614,-2.6007,0.0,-2.4164,-2.3446,-2.2583,0.0,0.0,0.0,0.0,0.0,0.0,0.0,0.0,0.0,-1.91,0.0,0.0,0.0,0.0,0.0,0.0,0.0,0.0,0.0,0.0,0.0,0.0,0.0,0.0,0.0,0.0,0.0,0.0,0.0,-3.0527,-3.1355,-3.2331,-3.2494,-3.2861,-3.3528,-3.4235,-3.5006,-3.5841,-3.6534,-3.7578,-3.8992,-3.9201,-3.969,-4.0476,-4.0645,-4.0702,-4.0702,-4.0702,-4.0702,-4.0702,-4.0702,-4.0802,-4.1001,-4.1241,-4.1465,-4.166,-4.1995,-4.2092,-4.2092,-4.2092,-4.2469,-4.2992,-1.0569,-1.0981,0.0,0.0,0.0,0.0,0.0,0.0,0.0,0.0,0.0,0.0,0.0,0.0,0.0,0.0,0.0,0.0,-1.746,0.0,0.0,-1.4615,-1.3964,-1.3194,-1.2225,-1.1222,-1.0669,0.0,0.0,0.0,0.0,0.0,0.0,0.0,-1.047,0.0,0.0,0.0,-1.4673,0.0,-1.7502,-1.8972,0.0,-2.1983,-2.3827,-2.5923,-2.6942,-2.7053,-2.6614,0.0,-2.5406,-2.4704,0.0,-2.3104,-2.291,0.0,0.0,0.0,0.0,0.0,0.0,0.0,-1.9326,0.0,0.0,0.0,0.0,0.0,0.0,0.0,0.0,0.0,0.0,0.0,0.0,0.0,0.0,0.0,0.0,0.0,0.0,0.0,0.0,0.0,-2.9781,-2.9896,-3.0411,-3.1205,-3.2318,-3.249,-3.3278,-3.4882,-3.5268,-3.6042,-3.7291,-3.8172,-3.895,-3.9634,-4.0349,-4.0702,-4.0702,-4.0702,-4.0702,-4.0702,-4.0702,-4.0802,-4.1001,-4.1043,-4.1198,-4.148,-4.1926,-4.2092,-4.2092,-4.2092,-4.2469,-4.2992,-1.0592,-1.1228,0.0,0.0,0.0,0.0,0.0,0.0,0.0,0.0,0.0,0.0,0.0,0.0,0.0,0.0,0.0,-2.0692,0.0,0.0,0.0,0.0,0.0,0.0,0.0,-1.261,-1.1933,-1.1566,-1.0767,0.0,0.0,0.0,0.0,0.0,-1.0973,0.0,-1.2986,0.0,0.0,0.0,0.0,0.0,0.0,-2.2034,-2.3827,-2.595,-2.7085,-2.7346,-2.7079,0.0,-2.5942,0.0,0.0,0.0,0.0,0.0,0.0,0.0,0.0,0.0,0.0,0.0,0.0,0.0,-1.9577,0.0,-1.9347,0.0,0.0,0.0,0.0,0.0,0.0,0.0,0.0,0.0,0.0,0.0,0.0,0.0,0.0,0.0,0.0,0.0,0.0,0.0,0.0,-2.9726,-3.0602,-3.1648,-3.2521,-3.3268,-3.4376,-3.5461,-3.6496,-3.7593,-3.8853,-4.0182,-4.0405,-4.0587,-4.0702,-4.0702,-4.0702,-4.0702,-4.0702,-4.073,-4.0845,-4.0958,-4.1057,-4.1198,-4.1564,-4.1773,-4.1883,-4.1883,-4.2371,-4.305,-1.0738,0.0,0.0,0.0,0.0,0.0,0.0,0.0,0.0,0.0,0.0,0.0,-2.1536,-2.2005,0.0,0.0,0.0,-2.2469,0.0,0.0,-2.0556,0.0,0.0,0.0,0.0,0.0,-1.3328,-1.2612,-1.1588,0.0,0.0,0.0,0.0,0.0,0.0,-1.2567,-1.3559,0.0,0.0,-1.7286,-1.9341,-2.0719,-2.1695,-2.2836,-2.4301,-2.5918,-2.7085,-2.749,-2.7411,-2.687,-2.6399,0.0,-2.5227,0.0,0.0,0.0,0.0,0.0,-2.2977,0.0,0.0,0.0,0.0,0.0,0.0,0.0,0.0,0.0,0.0,0.0,0.0,0.0,0.0,0.0,0.0,0.0,0.0,0.0,0.0,0.0,0.0,0.0,0.0,0.0,0.0,-2.665,-2.7437,-2.8193,-2.8986,-3.0391,-3.1539,-3.2191,-3.3593,-3.4798,-3.5732,-3.7017,-3.8407,-3.9929,-4.0067,-4.0304,-4.063,-4.0659,-4.0702,-4.0702,-4.0702,-4.0702,-4.0688,-4.0845,-4.093,-4.093,-4.1128,-4.1339,-4.1521,-4.1577,-4.2105,-4.2881,-1.1138,-1.1263,0.0,0.0,0.0,0.0,0.0,0.0,0.0,0.0,0.0,0.0,0.0,0.0,0.0,0.0,0.0,-2.423,-2.3734,0.0,-2.2278,0.0,0.0,-1.9099,0.0,0.0,-1.4707,-1.3643,-1.2577,-1.1816,0.0,0.0,0.0,0.0,0.0,-1.3496,-1.4191,-1.5793,-1.7137,-1.8254,-1.951,-2.1111,-2.2939,0.0,-2.5553,-2.576,-2.7052,0.0,0.0,-2.687,-2.6693,0.0,0.0,0.0,0.0,0.0,0.0,0.0,0.0,0.0,0.0,-2.2518,0.0,0.0,0.0,0.0,-2.0491,0.0,0.0,0.0,0.0,0.0,0.0,0.0,0.0,0.0,0.0,0.0,0.0,0.0,0.0,0.0,0.0,0.0,0.0,-2.4205,-2.532,-2.6497,-2.7691,-2.837,-2.9781,-3.2137,-3.283,-3.3675,-3.4816,-3.6306,-3.7346,-3.8004,-3.9018,-3.9842,-4.0399,-4.063,-4.0702,-4.0702,-4.0702,-4.0702,-4.0702,-4.0702,-4.0702,-4.0702,-4.0702,-4.0859,-4.1043,-4.1297,-4.181,-4.2324,0.0,0.0,0.0,0.0,0.0,0.0,0.0,-1.7515,0.0,0.0,0.0,0.0,0.0,0.0,-2.5336,0.0,0.0,-2.5853,-2.5348,-2.5143,0.0,0.0,0.0,-2.121,0.0,0.0,-1.6827,-1.5745,-1.4364,-1.3245,0.0,0.0,0.0,0.0,0.0,-1.3693,0.0,0.0,0.0,0.0,0.0,-2.2119,-2.3179,0.0,0.0,-2.5556,-2.6734,-2.718,0.0,-2.7115,-2.6836,-2.6395,-2.5741,-2.5275,-2.4887,-2.4282,-2.4083,0.0,0.0,0.0,-2.3652,-2.3065,0.0,0.0,0.0,0.0,0.0,0.0,0.0,0.0,0.0,0.0,0.0,0.0,0.0,0.0,0.0,0.0,0.0,0.0,0.0,0.0,0.0,0.0,0.0,-2.2873,-2.3393,-2.4368,0.0,-2.7128,-2.8603,-3.0371,-3.2164,-3.3444,-3.4206,-3.5899,-3.7125,-3.7921,-3.8681,-3.9515,-4.0399,-4.0471,-4.0587,-4.0702,-4.0702,-4.0702,-4.0702,-4.0702,-4.0702,-4.0702,-4.0702,-4.073,-4.0816,-4.1057,-4.1369,-4.1753,-1.3343,0.0,0.0,0.0,0.0,0.0,0.0,0.0,0.0,0.0,-2.2226,0.0,-2.5062,0.0,-2.6415,0.0,-2.7282,-2.7102,-2.6971,-2.661,0.0,-2.4685,-2.4085,0.0,0.0,0.0,0.0,-1.7581,-1.6005,-1.4622,0.0,0.0,0.0,0.0,0.0,0.0,0.0,0.0,-1.8144,0.0,0.0,-2.2606,0.0,0.0,-2.5014,-2.5384,0.0,-2.699,-2.7024,-2.7146,-2.6935,-2.6497,-2.5901,-2.547,-2.5045,-2.4305,-2.4083,-2.4083,-2.4083,-2.4083,0.0,-2.3339,-2.3182,0.0,-2.2021,0.0,0.0,0.0,0.0,0.0,0.0,0.0,0.0,0.0,0.0,0.0,0.0,-1.7243,0.0,0.0,0.0,0.0,0.0,0.0,-2.1057,-2.1627,-2.1975,-2.2911,0.0,0.0,-2.7683,-2.9461,-3.1431,-3.2915,-3.3894,-3.5249,-3.6579,-3.7753,-3.8262,-3.9064,-4.0138,-4.0211,-4.0371,-4.0587,-4.0587,-4.0616,-4.0702,-4.0702,-4.0702,-4.0702,-4.0702,-4.0702,-4.0702,-4.0859,-4.0986,-4.1185,0.0,0.0,0.0,0.0,-1.4538,0.0,0.0,0.0,-2.0342,0.0,-2.3372,-2.4825,-2.5159,-2.6526,-2.7722,-2.8419,-2.8074,0.0,-2.8519,-2.7582,0.0,0.0,-2.5709,-2.4927,-2.3902,0.0,0.0,0.0,0.0,0.0,0.0,0.0,0.0,0.0,-1.4067,0.0,-1.4834,-1.7045,-1.8422,-1.9309,-2.1428,-2.2606,-2.317,-2.3778,-2.4444,-2.5198,-2.6463,-2.6964,-2.6977,-2.6952,-2.6939,-2.6768,-2.5775,-2.5464,-2.5288,-2.435,-2.4083,-2.4083,-2.4083,-2.4083,-2.3952,-2.3378,0.0,0.0,0.0,0.0,-2.2427,0.0,0.0,0.0,0.0,0.0,0.0,0.0,0.0,0.0,0.0,0.0,0.0,0.0,0.0,0.0,0.0,-1.9315,-1.9876,-2.0382,-2.1006,0.0,0.0,0.0,-2.6891,-2.9298,-3.0581,-3.2101,-3.384,-3.4477,-3.5683,-3.7445,-3.7725,-3.8495,-3.9645,-3.9865,-4.0154,-4.0399,-4.0399,-4.0515,-4.0702,-4.0702,-4.0702,-4.0702,-4.0702,-4.0702,-4.0702,-4.0702,-4.0702,-4.0702,-1.5279,-1.5889,-1.6572,0.0,-1.7307,-1.7768,0.0,0.0,0.0,0.0,-2.3944,-2.5078,-2.6426,-2.7239,-2.7938,-2.8509,-2.8958,0.0,0.0,0.0,0.0,-2.7909,-2.738,-2.6418,-2.4951,-2.3794,0.0,-2.0201,0.0,0.0,-1.4838,0.0,0.0,0.0,0.0,0.0,-1.4772,-1.6934,-1.8945,-2.0789,-2.1863,-2.2606,0.0,0.0,-2.4111,-2.4438,-2.5567,-2.627,-2.6573,-2.6278,-2.6171,-2.6014,-2.5056,-2.4821,-2.4771,-2.4157,-2.4037,-2.4083,-2.4083,-2.4083,-2.4044,-2.39,-2.3861,-2.3733,0.0,0.0,0.0,0.0,0.0,0.0,0.0,0.0,0.0,0.0,0.0,0.0,0.0,0.0,0.0,-1.731,0.0,0.0,-1.8113,-1.8676,-1.9084,-1.9233,-2.0152,0.0,0.0,0.0,0.0,-2.7447,-2.9536,-3.149,-3.3268,-3.4312,-3.5466,-3.6849,-3.7353,-3.8092,-3.9059,-3.9568,-3.9892,-4.0097,-4.0298,-4.0442,-4.0471,-4.0616,-4.0702,-4.0702,-4.0702,-4.0702,-4.0702,-4.0702,-4.0702,-4.0702,-1.676,0.0,0.0,-1.9507,0.0,0.0,-2.0308,0.0,0.0,-2.3756,-2.4775,0.0,-2.7158,-2.7731,-2.838,-2.9214,-2.947,0.0,-2.991,0.0,0.0,-2.8669,-2.8144,-2.7275,-2.6009,-2.4759,0.0,-2.1308,0.0,0.0,-1.5325,0.0,0.0,0.0,0.0,-1.4408,0.0,-1.7369,-1.952,-2.1259,-2.2185,0.0,0.0,-2.3441,-2.3778,-2.4079,-2.4682,-2.5259,-2.5732,-2.5517,-2.5436,-2.5284,-2.4587,-2.443,-2.4376,-2.3927,-2.3878,-2.4008,-2.4008,-2.4067,-2.4083,-2.4083,-2.4083,-2.3992,-2.3652,-2.3587,-2.3524,0.0,0.0,0.0,0.0,0.0,0.0,0.0,0.0,0.0,0.0,0.0,0.0,0.0,-1.8195,0.0,-1.8123,-1.8184,-1.834,-1.8596,0.0,0.0,0.0,0.0,0.0,-2.6651,-2.8853,-3.0866,-3.2694,-3.3851,-3.4992,-3.6225,-3.7065,-3.7896,-3.8653,-3.9267,-3.9628,-3.9892,-4.0051,-4.0124,-4.0241,-4.0357,-4.0443,-4.0587,-4.0659,-4.0702,-4.0702,-4.0702,-4.0702,-4.0702,0.0,0.0,0.0,0.0,0.0,0.0,0.0,-2.272,0.0,-2.437,0.0,-2.6829,-2.7487,-2.8078,-2.8881,-2.9995,0.0,-2.9746,-3.0235,-2.9777,-2.9369,-2.9065,-2.8485,-2.7798,-2.698,-2.5457,0.0,0.0,0.0,0.0,0.0,0.0,0.0,0.0,0.0,0.0,0.0,-1.8069,-1.9993,0.0,-2.2256,-2.2816,-2.2878,-2.2987,-2.3391,-2.386,-2.386,-2.4261,-2.4775,-2.4713,-2.4687,-2.4619,-2.421,-2.4052,-2.4024,-2.368,-2.37,-2.3861,-2.3861,-2.3979,-2.4054,-2.4054,-2.4083,-2.4083,-2.4083,-2.4083,-2.4083,-2.4083,-2.3665,-2.3274,0.0,0.0,0.0,0.0,0.0,0.0,0.0,0.0,0.0,0.0,0.0,0.0,0.0,-1.7914,-1.7788,0.0,0.0,0.0,0.0,0.0,0.0,-2.629,-2.8319,-3.0228,-3.2083,0.0,-3.4463,-3.5615,-3.6794,-3.7689,-3.8315,-3.8925,-3.9326,-3.9656,-3.97,-3.9818,-3.9966,-3.9996,-4.0154,-4.0342,-4.053,-4.0616,-4.0659,-4.0659,-4.0659,-4.0702,0.0,0.0,0.0,0.0,0.0,-2.3869,-2.3764,-2.4115,-2.4714,-2.5638,-2.6525,-2.7288,-2.7865,-2.8763,-2.9397,-2.9614,-3.0092,0.0,0.0,0.0,0.0,-2.9981,-2.9051,-2.8132,-2.7326,-2.6183,-2.4681,0.0,0.0,0.0,0.0,0.0,0.0,0.0,0.0,0.0,-1.6978,-1.8551,0.0,-2.0905,-2.1673,-2.229,-2.2739,-2.2769,-2.291,-2.3088,-2.3088,-2.3829,-2.4725,-2.4293,-2.4142,-2.4042,-2.3464,-2.3409,-2.353,-2.3458,-2.3539,-2.3658,-2.3658,-2.3789,-2.3949,-2.3949,-2.4037,-2.4083,-2.4083,-2.4083,-2.4083,-2.4083,-2.4005,-2.3783,-2.3274,0.0,0.0,0.0,0.0,0.0,0.0,0.0,0.0,0.0,0.0,0.0,0.0,0.0,0.0,0.0,0.0,0.0,0.0,0.0,0.0,0.0,-2.7368,0.0,0.0,0.0,-3.426,-3.4965,-3.6198,-3.708,-3.7662,-3.8301,-3.8844,-3.9394,-3.9598,-3.9744,-3.9774,-3.9922,-4.0053,-4.0053,-4.0097,-4.0241,-4.0428,-4.0428,-4.0544,-4.0702,0.0,0.0,0.0,0.0,0.0,0.0,0.0,-2.5732,0.0,-2.6303,-2.7061,-2.7856,-2.8516,-2.9007,-2.9451,-2.9848,-3.018,-3.0397,-3.0397,-3.0267,-3.0157,-3.0021,-2.9219,0.0,-2.7624,-2.6314,-2.4827,-2.32,0.0,0.0,0.0,0.0,0.0,0.0,0.0,-1.6245,0.0,0.0,0.0,-2.1197,-2.2147,-2.2695,-2.2995,-2.3359,-2.336,-2.322,-2.33,-2.3524,-2.3792,-2.3609,-2.3521,-2.3471,-2.3195,-2.3168,-2.3228,-2.3228,-2.336,-2.3509,-2.3509,-2.3611,-2.376,-2.376,-2.3789,-2.3878,-2.3979,-2.4008,-2.4037,-2.4083,-2.4347,-2.4465,-2.4178,-2.3406,0.0,0.0,0.0,0.0,0.0,0.0,0.0,0.0,0.0,0.0,0.0,0.0,0.0,0.0,0.0,0.0,0.0,0.0,0.0,0.0,0.0,0.0,0.0,0.0,0.0,-3.4355,-3.5886,-3.6931,-3.7512,-3.8095,-3.8735,-3.9305,-3.9452,-3.9496,-3.9496,-3.976,-3.9848,-3.9848,-3.9966,-4.0097,-4.0198,-4.0198,-4.0227,-4.0343,0.0,-2.424,0.0,0.0,-2.5633,0.0,-2.6201,-2.7107,-2.7524,-2.6839,-2.7551,-2.8387,-2.8969,-2.9161,-2.9511,-3.0102,-3.017,-3.0216,-3.0216,-3.0216,-3.0122,-2.9908,-2.9294,-2.8626,-2.7924,-2.6379,-2.4978,0.0,0.0,0.0,0.0,0.0,0.0,0.0,0.0,0.0,0.0,0.0,-2.0682,-2.1656,-2.274,-2.3232,-2.3409,-2.3908,-2.3908,-2.3604,-2.3608,-2.335,-2.3058,-2.3067,-2.3078,-2.3108,-2.3108,-2.3108,-2.3108,-2.3108,-2.321,-2.333,-2.333,-2.345,-2.3569,-2.3569,-2.3569,-2.3628,-2.3789,-2.3832,-2.3887,-2.4122,-2.4649,-2.5114,-2.5114,-2.4357,0.0,0.0,0.0,0.0,0.0,0.0,0.0,0.0,0.0,0.0,0.0,0.0,0.0,0.0,0.0,0.0,0.0,0.0,0.0,0.0,0.0,-2.74,-2.9288,0.0,-3.3325,-3.3935,-3.5588,-3.6727,-3.7309,-3.7919,-3.8559,-3.9129,-3.9237,-3.9305,-3.9305,-3.9554,-3.9598,-3.9642,-3.9791,-3.9878,-3.9922,-3.9922,-3.9966,-4.0039,0.0,0.0,0.0,0.0,0.0,0.0,0.0,-2.7632,-2.7875,-2.7623,-2.8188,-2.8656,-2.8746,-2.9398,-2.984,-2.9931,-3.0091,-3.0216,-3.0216,-3.0216,-3.0193,-3.0147,-2.9217,-2.8576,-2.8266,-2.6744,-2.5494,0.0,0.0,0.0,0.0,0.0,0.0,0.0,0.0,0.0,0.0,-2.061,-2.1584,-2.2173,-2.2782,-2.33,-2.3767,-2.3815,-2.3902,-2.3879,-2.3425,-2.3408,-2.3536,-2.307,-2.2987,-2.3108,-2.3108,-2.3108,-2.3108,-2.3108,-2.3108,-2.3138,-2.3138,-2.3271,-2.3433,-2.3433,-2.3509,-2.3599,-2.3628,-2.3628,-2.3769,-2.4282,-2.4944,-2.5456,-2.5456,-2.5517,-2.5406,0.0,0.0,0.0,0.0,0.0,0.0,0.0,0.0,0.0,0.0,0.0,0.0,0.0,0.0,0.0,0.0,0.0,0.0,-2.3423,0.0,-2.7147,-2.9288,-3.1653,-3.3174,-3.3935,-3.5168,-3.6103,-3.6714,-3.7296,-3.7892,-3.8532,-3.9061,-3.9305,-3.9305,-3.9349,-3.9349,-3.9349,-3.9349,-3.9496,-3.9744,-3.9744,-3.9848,-3.9996,0.0,0.0,0.0,0.0,0.0,0.0,0.0,-2.8156,-2.8453,-2.8358,-2.8582,-2.8783,-2.8932,-2.9247,-2.9554,-2.9886,-2.9977,-3.0045,-3.017,-3.0216,-3.0216,-3.0216,-2.924,-2.8651,-2.8553,-2.7054,-2.5889,0.0,0.0,0.0,0.0,0.0,0.0,0.0,0.0,-1.9913,-2.0959,-2.1608,-2.2366,-2.3216,-2.3701,-2.4037,-2.4254,-2.4578,-2.4528,-2.4283,-2.4177,-2.3823,-2.3408,-2.3374,-2.3261,-2.3108,-2.3108,-2.3108,-2.3108,-2.3108,-2.3108,-2.3108,-2.3108,-2.3168,-2.321,-2.321,-2.3258,-2.3318,-2.345,-2.3747,-2.404,-2.4331,-2.491,-2.5492,-2.5794,-2.5653,-2.5419,0.0,0.0,0.0,0.0,0.0,0.0,0.0,0.0,0.0,0.0,0.0,0.0,0.0,0.0,0.0,0.0,0.0,0.0,-2.3242,0.0,-2.6643,-2.8932,-3.1015,-3.256,-3.356,-3.4901,-3.5831,-3.6453,-3.7172,-3.8014,-3.8952,-3.921,-3.9305,-3.9305,-3.9305,-3.9305,-3.9305,-3.9305,-3.9349,-3.9452,-3.9452,-3.9526,-3.9557,-2.7927,0.0,-2.7741,0.0,-2.8025,-2.8254,-2.8254,-2.8538,-2.8803,-2.8803,-2.8803,-2.885,-2.8989,-2.9082,-2.9266,-2.9657,-2.9794,-2.9977,-3.0091,-3.017,-3.0216,-3.0216,-2.9389,0.0,-2.87,-2.738,-2.6334,-2.5573,-2.4393,0.0,0.0,0.0,0.0,0.0,-2.0345,-2.1164,-2.2363,-2.2594,-2.3171,-2.4025,-2.4374,-2.458,-2.4795,-2.5168,-2.5071,-2.4735,-2.4715,-2.4262,-2.3693,-2.3759,-2.3641,-2.338,-2.3178,-2.3108,-2.3108,-2.3108,-2.3108,-2.3108,-2.3108,-2.3108,-2.3108,-2.3108,-2.3108,-2.3188,-2.3485,-2.3869,-2.4267,-2.4665,-2.5269,-2.5824,-2.622,-2.603,-2.5743,-2.5576,0.0,0.0,0.0,0.0,0.0,0.0,-2.2667,-2.2064,-2.1446,0.0,0.0,0.0,0.0,0.0,0.0,0.0,0.0,0.0,0.0,0.0,0.0,-3.0745,-3.2304,-3.3314,-3.4674,-3.5532,-3.5961,-3.6867,-3.7993,-3.9203,-3.9203,-3.9247,-3.9305,-3.9305,-3.9305,-3.9305,-3.9305,-3.9305,-3.9305,-3.9305,-3.9305,-3.9305,-2.9358,-2.911,-2.8781,-2.8781,-2.8792,-2.8792,-2.8792,-2.8792,-2.8803,-2.8803,-2.8803,-2.8803,-2.8803,-2.8989,-2.9082,-2.9128,-2.96,-2.9886,-2.9886,-3.0091,-3.0216,0.0,0.0,-2.924,-2.8712,-2.7725,-2.6967,-2.6478,0.0,0.0,-2.3526,0.0,-2.1577,-2.16,-2.234,-2.2674,-2.2733,-2.3454,-2.4049,-2.4472,-2.4484,-2.4831,-2.53,-2.5312,-2.53,-2.5228,-2.4676,-2.4621,-2.4706,-2.4183,-2.4087,-2.4054,-2.3324,-2.3108,-2.3108,-2.3108,-2.3108,-2.3108,-2.3108,-2.3108,-2.3108,-2.3108,-2.3108,-2.3258,-2.3853,-2.3991,-2.4293,-2.536,-2.616,-2.6701,-2.6701,-2.685,-2.6772,-2.6197,0.0,0.0,0.0,0.0,0.0,0.0,-2.3116,-2.2855,-2.2972,0.0,0.0,0.0,0.0,0.0,0.0,0.0,0.0,-2.4005,-2.5179,0.0,-2.8673,-3.1008,-3.2562,-3.3314,-3.4513,-3.5127,-3.5167,-3.6298,-3.7588,-3.8908,-3.8908,-3.9056,-3.9305,-3.9305,-3.9305,-3.9305,-3.9305,-3.9305,-3.9305,-3.9305,-3.9305,-3.9305,-2.9667,-2.9715,-2.9751,-2.9751,-2.9751,-2.9642,-2.935,-2.9296,-2.9175,-2.8847,-2.8803,-2.8803,-2.8803,-2.885,-2.8943,0.0,-2.9266,-2.9508,0.0,-2.9977,-3.0057,-3.017,-2.9757,-2.924,-2.8712,-2.8069,-2.7323,-2.6501,0.0,0.0,0.0,-2.3214,-2.2693,-2.249,-2.2719,-2.3122,-2.361,-2.398,-2.443,-2.4931,-2.4989,-2.5155,-2.5312,-2.5312,-2.5312,-2.5288,-2.5119,-2.4865,-2.4609,-2.4575,-2.435,-2.4051,-2.389,-2.3938,-2.4046,-2.4046,-2.3879,-2.3715,-2.3715,-2.3409,-2.3108,-2.3108,-2.3396,-2.3766,-2.3954,-2.4569,-2.5297,-2.6072,-2.6395,-2.6555,-2.6555,-2.6636,-2.6607,-2.6384,-2.603,0.0,0.0,0.0,0.0,0.0,-2.2941,-2.2684,0.0,-2.2242,0.0,0.0,0.0,0.0,0.0,0.0,0.0,0.0,-2.6177,0.0,-2.9647,-3.1166,-3.245,-3.3514,-3.4427,-3.5374,-3.6271,-3.6644,-3.7514,-3.8724,-3.8724,-3.8724,-3.8827,-3.8827,-3.8827,-3.8827,-3.8827,-3.8827,-3.8827,-3.8827,-3.8827,-3.8827,-2.9899,-2.9996,-3.0074,-3.0074,-3.0112,-3.0111,-2.9805,-2.9598,-2.9368,-2.911,-2.8913,-2.8803,-2.8803,-2.8803,0.0,-2.8989,-2.9082,-2.922,-2.9554,-2.9691,-2.9829,-3.0091,-2.9805,-2.9358,-2.8712,0.0,0.0,-2.6749,-2.6605,-2.5876,-2.4763,-2.4405,-2.4053,-2.3641,-2.3723,-2.3933,-2.4214,-2.4389,-2.4684,-2.4992,-2.5087,-2.5111,-2.5111,-2.5218,-2.5206,-2.5241,-2.5276,-2.5095,-2.4819,-2.4969,-2.4774,-2.4495,-2.4597,-2.4731,-2.4837,-2.4485,-2.43,-2.421,-2.421,-2.3979,-2.3735,-2.3735,-2.401,-2.4356,-2.4556,-2.5285,-2.6047,-2.6411,-2.6499,-2.6499,-2.6499,-2.6499,-2.6499,-2.6499,-2.5975,-2.541,-2.4895,0.0,0.0,0.0,0.0,0.0,0.0,-2.3237,-2.3235,0.0,0.0,0.0,0.0,0.0,0.0,-2.589,-2.7183,0.0,-3.0438,-3.1588,-3.2646,-3.36,-3.4551,-3.5532,-3.6558,-3.6783,-3.7462,-3.8453,-3.8453,-3.8512,-3.8602,-3.8602,-3.8602,-3.8602,-3.8602,-3.8602,-3.8602,-3.8602,-3.8602,-3.8602,-3.0117,-2.9978,0.0,0.0,-3.0073,0.0,-3.0215,-2.9882,-2.9554,-2.9489,-2.9132,-2.8836,-2.8803,-2.8803,-2.8803,-2.8803,0.0,0.0,0.0,-2.9347,-2.9588,-2.984,-2.9886,-2.9499,-2.868,-2.8657,-2.8176,-2.719,-2.6749,-2.6255,-2.5761,-2.5761,-2.5463,-2.4912,-2.511,-2.4918,-2.4502,-2.4682,-2.479,-2.479,-2.479,-2.479,-2.4825,-2.5016,-2.5087,-2.5123,-2.5241,-2.5276,-2.5276,-2.5312,-2.5312,-2.5312,-2.5312,-2.5418,-2.5411,-2.4536,-2.4415,-2.4533,-2.4533,-2.4651,-2.4755,-2.4755,-2.4781,-2.4943,-2.5502,-2.6076,-2.6499,-2.6499,-2.6499,-2.6499,-2.6499,-2.6499,-2.6499,-2.6499,-2.5971,-2.5372,-2.4863,0.0,0.0,0.0,0.0,0.0,0.0,-2.4735,-2.5147,0.0,0.0,0.0,0.0,0.0,-2.595,-2.7469,-2.8182,-2.933,-3.1026,-3.2176,-3.3051,-3.3666,-3.4763,-3.5587,-3.6123,-3.6724,-3.7447,-3.8167,-3.8167,-3.8317,-3.8557,-3.8557,-3.8557,-3.8557,-3.8557,-3.8557,-3.8557,-3.8557,-3.8557,-3.857,0.0,0.0,-3.0549,-3.0549,-3.0804,-3.0817,-3.05,-3.0487,-3.0308,-2.9576,-2.9379,-2.9219,-2.8836,-2.8803,-2.8803,-2.8803,-2.885,-2.8943,-2.9082,-2.9174,-2.9312,-2.9588,-2.9588,-2.9263,-2.8487,-2.8475,-2.8071,-2.719,-2.7075,-2.6783,-2.6329,-2.6329,-2.5796,-2.4912,-2.4949,-2.4722,-2.4273,-2.4502,-2.4574,-2.4562,-2.4754,-2.479,-2.479,-2.4861,-2.4861,-2.4885,-2.5087,-2.5147,-2.5147,-2.5276,-2.5312,-2.5312,-2.5312,-2.5347,-2.5369,-2.5302,-2.512,-2.4982,-2.4982,-2.4661,-2.4329,-2.4329,-2.4694,-2.5218,-2.5912,-2.6183,-2.6305,-2.6465,-2.6499,-2.6499,-2.6499,-2.6499,-2.6499,-2.6499,-2.5636,-2.4958,-2.4813,-2.3935,0.0,0.0,-2.3916,-2.4167,-2.4613,-2.5272,-2.5699,0.0,0.0,0.0,0.0,-2.7622,-2.7734,-2.7721,-2.9096,-3.0352,-3.137,-3.2498,-3.3435,-3.4214,-3.4946,-3.5587,-3.6123,-3.6724,-3.737,-3.7979,-3.7979,-3.8037,-3.8083,-3.8083,-3.8083,-3.8083,-3.8083,-3.8083,-3.8083,-3.8083,-3.8083,-3.8136,-3.0193,-3.0453,-3.0609,-3.0609,-3.0817,-3.0938,-3.0681,-3.0608,-3.0249,-2.9564,-2.9284,-2.896,-2.8474,-2.8524,-2.8628,-2.8628,-2.871,-2.885,-2.8943,-2.8943,-2.9082,-2.9301,-2.9136,-2.8757,-2.8215,-2.7989,-2.7589,-2.6933,-2.6933,-2.6837,-2.6685,-2.6685,-2.6188,-2.5279,-2.5279,-2.4877,-2.42,-2.4309,-2.4345,-2.4381,-2.449,-2.4538,-2.4538,-2.4646,-2.4646,-2.4682,-2.4885,-2.4957,-2.4957,-2.5052,-2.5087,-2.5087,-2.5182,-2.5218,-2.5253,-2.5418,-2.5399,-2.533,-2.533,-2.5178,-2.4979,-2.4979,-2.5212,-2.5576,-2.5953,-2.6062,-2.6131,-2.6327,-2.6374,-2.6396,-2.6499,-2.6499,-2.6499,-2.6499,-2.5536,-2.4788,-2.4788,-2.4048,0.0,-2.3966,-2.4431,-2.4946,-2.5511,-2.6164,-2.6649,-2.688,-2.7531,0.0,-2.8276,-2.8857,-2.9096,-2.895,-2.9819,-3.0894,-3.213,-3.3006,-3.3811,-3.4634,-3.5219,-3.5878,-3.6541,-3.7142,-3.7599,-3.79,-3.79,-3.79,-3.79,-3.79,-3.79,-3.79,-3.79,-3.79,-3.79,-3.79,-3.79,-3.7978,-2.9994,-3.0193,-3.0349,-3.0349,-3.0557,-3.0724,-3.0724,-3.0436,-3.0061,-2.9583,-2.9104,-2.8636,-2.8157,-2.8239,-2.8348,-2.8348,-2.8571,-2.8757,-2.8803,-2.8803,-2.8896,-2.9035,-2.8607,-2.821,-2.7974,-2.748,-2.6987,-2.6603,-2.6603,-2.6685,-2.685,-2.6771,-2.6331,-2.56,-2.5547,-2.4997,-2.4116,-2.4116,-2.4127,-2.4152,-2.4152,-2.4164,-2.4236,-2.4381,-2.4454,-2.449,-2.4682,-2.4754,-2.4754,-2.4801,-2.479,-2.4825,-2.4981,-2.5052,-2.5087,-2.5182,-2.5359,-2.5535,-2.5535,-2.5688,-2.5793,-2.5793,-2.5793,-2.584,-2.5828,-2.5828,-2.591,-2.6097,-2.6131,-2.6236,-2.643,-2.6465,-2.6465,-2.6499,-2.5598,-2.4913,-2.4913,0.0,-2.4155,-2.423,-2.5121,-2.5984,-2.6562,-2.719,-2.772,-2.8197,-2.8386,-2.8687,-2.9113,-2.9729,-3.0211,-3.0598,-3.0598,-3.1377,-3.2951,-3.3453,-3.4093,-3.4844,-3.5455,-3.6158,-3.6979,-3.758,-3.7854,-3.79,-3.79,-3.79,-3.79,-3.79,-3.79,-3.79,-3.79,-3.79,-3.79,-3.79,-3.7906,-3.8063,-2.9994,-3.0047,-3.0047,-3.0047,-3.0297,-3.0443,-3.0443,-3.0608,-3.0499,-3.0022,-2.9593,-2.9125,-2.8647,-2.8279,-2.8045,-2.8045,-2.829,-2.8581,-2.8803,-2.8803,-2.8803,-2.885,-2.8344,-2.7952,-2.7745,-2.7059,-2.667,-2.6603,-2.6603,-2.6603,-2.6633,-2.6176,-2.5711,-2.5177,-2.4788,-2.4243,-2.3677,-2.3677,-2.3787,-2.3934,-2.3934,-2.4043,-2.42,-2.4236,-2.4236,-2.4273,-2.4454,-2.4538,-2.4574,-2.4754,-2.479,-2.479,-2.4825,-2.4861,-2.4861,-2.4861,-2.5028,-2.5182,-2.5312,-2.5382,-2.5382,-2.5382,-2.5382,-2.543,-2.5606,-2.5653,-2.5688,-2.591,-2.5945,-2.6015,-2.6201,-2.6236,-2.6305,-2.6465,-2.59,-2.5473,-2.5473,0.0,-2.4858,-2.5297,-2.5959,-2.6587,-2.714,-2.8072,-2.8675,-2.8762,-2.9691,-3.0269,-3.0344,-3.0846,-3.1389,-3.1896,-3.1921,-3.2357,-3.3301,-3.3547,-3.4007,-3.464,-3.5205,-3.5903,-3.6683,-3.7292,-3.7703,-3.79,-3.79,-3.79,-3.79,-3.79,-3.79,-3.79,-3.79,-3.79,-3.79,-3.79,-3.8061,-3.8308,-2.9774,-2.9889,-2.9994,-2.9994,-3.0088,-3.0193,-3.0193,-3.0308,-3.0192,-2.9721,-2.926,-2.8788,-2.8317,-2.7999,-2.7762,-2.7762,-2.8055,-2.8243,-2.8373,-2.8653,-2.8683,-2.8386,-2.7905,-2.7348,-2.6755,-2.6378,-2.6229,-2.6229,-2.6229,-2.6271,-2.6385,-2.5854,-2.5445,-2.5099,-2.4594,-2.4101,-2.3593,-2.3593,-2.3629,-2.3751,-2.3751,-2.3787,-2.3861,-2.3861,-2.3934,-2.4043,-2.4152,-2.4236,-2.4345,-2.4465,-2.4502,-2.449,-2.461,-2.4646,-2.4646,-2.4754,-2.4957,-2.5111,-2.5276,-2.5312,-2.5312,-2.5312,-2.5312,-2.5312,-2.5418,-2.543,-2.5573,-2.6054,-2.615,-2.632,-2.6806,-2.6657,-2.6494,-2.6588,-2.5903,0.0,0.0,-2.5372,-2.5496,-2.572,-2.6514,-2.7246,-2.7792,-2.83,-2.8834,-2.9378,-3.0069,-3.0573,-3.0873,-3.1467,-3.1951,-3.2202,-3.2516,-3.2847,-3.3227,-3.3617,-3.4178,-3.4895,-3.543,-3.6082,-3.6862,-3.7132,-3.7353,-3.7459,-3.7459,-3.7459,-3.7459,-3.7459,-3.7459,-3.7459,-3.7459,-3.7459,-3.7459,-3.7459,-3.7714,-3.8187,-2.9501,-2.9669,-2.9837,-2.9879,-2.9889,-2.9942,-2.9994,-2.9994,-2.987,-2.9508,-2.897,-2.8473,-2.8121,-2.7727,-2.7547,-2.7547,-2.7773,-2.7904,-2.7904,-2.8265,-2.828,-2.7967,-2.7424,-2.6758,-2.5917,-2.5895,-2.5895,-2.5895,-2.5895,-2.599,-2.6104,-2.554,-2.5174,-2.4943,-2.4319,-2.3839,-2.3446,-2.3446,-2.3482,-2.353,-2.353,-2.3567,-2.3593,-2.3593,-2.3714,-2.3824,-2.3824,-2.397,-2.4127,-2.4127,-2.4164,-2.4236,-2.4381,-2.4418,-2.4454,-2.461,-2.4814,-2.5016,-2.5218,-2.5241,-2.5276,-2.5276,-2.5312,-2.5336,-2.5468,-2.5492,-2.5684,-2.6372,-2.653,-2.6688,-2.7323,-2.7103,-2.6821,-2.687,0.0,0.0,0.0,-2.6021,-2.6279,-2.6279,-2.7127,-2.7865,-2.8244,-2.8404,-2.887,-2.9828,-3.0226,-3.0658,-3.1245,-3.1947,-3.2319,-3.2416,-3.2842,-3.3174,-3.3269,-3.3684,-3.4337,-3.5211,-3.5603,-3.6235,-3.7015,-3.7015,-3.7062,-3.7108,-3.7108,-3.7108,-3.7108,-3.7108,-3.7108,-3.7108,-3.7108,-3.7108,-3.7108,-3.7108,-3.742,-3.7887,-2.9132,-2.9132,-2.9237,-2.9554,-2.9606,-2.9711,-2.9942,-2.9994,-2.9984,-2.9953,-2.9166,-2.8597,-2.8566,-2.7828,-2.7309,-2.7309,-2.7489,-2.7631,-2.7631,-2.749,-2.7511,-2.7718,-2.703,-2.6441,-2.5917,-2.5895,-2.5895,-2.5895,-2.5895,-2.5895,-2.5884,-2.5007,-2.4559,-2.4482,-2.352,-2.3071,-2.3038,-2.3038,-2.315,-2.3335,-2.3335,-2.3446,-2.3593,-2.3593,-2.3593,-2.3641,-2.3641,-2.3751,-2.3934,-2.3934,-2.4043,-2.42,-2.4236,-2.4236,-2.4236,-2.4236,-2.4381,-2.4634,-2.5016,-2.5111,-2.5147,-2.5276,-2.5312,-2.5432,-2.5925,-2.6045,-2.6202,-2.6755,-2.6875,-2.695,-2.7161,-2.7211,-2.7224,-2.7422,0.0,0.0,-2.7299,-2.7373,-2.7361,-2.7361,-2.7876,-2.8244,-2.8293,-2.8735,-2.9275,-2.9852,-3.0421,-3.1075,-3.1816,-3.2363,-3.2791,-3.3018,-3.3099,-3.3319,-3.3834,-3.3884,-3.4437,-3.5479,-3.5529,-3.5957,-3.6722,-3.6722,-3.6862,-3.7108,-3.7108,-3.7108,-3.7108,-3.7108,-3.7108,-3.7108,-3.7108,-3.7108,-3.7108,-3.7108,-3.7326,-3.7708,-2.8834,-2.8983,-2.9132,-2.929,-2.929,-2.9343,-2.9459,-2.9617,-2.9774,-2.9774,-2.9332,-2.8928,-2.8649,-2.8048,-2.7562,-2.733,-2.7357,-2.7394,-2.7394,-2.6917,-2.6597,-2.6589,-2.6034,-2.5647,-2.5464,-2.5464,-2.5549,-2.5728,-2.5728,-2.577,-2.5884,-2.5218,-2.4912,-2.488,-2.4224,-2.3919,-2.3919,-2.3919,-2.3957,-2.4013,-2.3694,-2.36,-2.3643,-2.3345,-2.3298,-2.3409,-2.3409,-2.372,-2.4138,-2.4138,-2.4491,-2.4941,-2.4941,-2.5017,-2.513,-2.513,-2.5179,-2.5292,-2.5592,-2.5296,-2.504,-2.5492,-2.56,-2.578,-2.6465,-2.661,-2.6729,-2.7282,-2.739,-2.7512,-2.7915,-2.7748,-2.7531,-2.7607,0.0,-2.7123,-2.7123,-2.7401,-2.7607,-2.7607,-2.8118,-2.8406,-2.8406,-2.893,-2.9464,-2.9985,-3.0645,-3.1321,-3.1914,-3.2438,-3.2916,-3.3352,-3.3496,-3.3684,-3.3897,-3.4575,-3.5094,-3.5495,-3.5893,-3.6204,-3.6499,-3.6499,-3.6593,-3.6687,-3.6687,-3.6687,-3.6687,-3.6687,-3.6687,-3.6687,-3.6687,-3.6687,-3.6687,-3.6687,-3.6947,-3.7419,-2.8568,-2.8717,-2.8867,-2.8983,-2.8973,-2.8973,-2.9079,-2.929,-2.9448,-2.9448,-2.928,-2.8982,-2.8519,-2.8154,-2.7738,-2.7351,-2.7309,-2.7309,-2.7309,-2.6576,-2.5962,-2.5711,-2.537,-2.52,-2.52,-2.52,-2.5285,-2.5464,-2.5464,-2.5559,-2.5675,-2.5198,-2.4971,-2.4949,-2.4483,-2.4288,-2.4288,-2.4288,-2.4317,-2.4335,-2.3976,-2.3885,-2.3929,-2.3591,-2.3547,-2.3698,-2.3698,-2.3984,-2.4414,-2.4414,-2.4791,-2.5266,-2.5266,-2.5433,-2.56,-2.56,-2.5627,-2.5716,-2.587,-2.5512,-2.5207,-2.5806,-2.5963,-2.6143,-2.679,-2.6959,-2.7102,-2.7666,-2.7774,-2.7893,-2.8251,-2.8024,-2.7774,-2.7852,-2.7541,-2.7313,-2.739,-2.7702,-2.7969,-2.7969,-2.8294,-2.857,-2.8739,-2.9088,-2.9593,-3.029,-3.0822,-3.1355,-3.1957,-3.2535,-3.3058,-3.3474,-3.4013,-3.4335,-3.4412,-3.5119,-3.5596,-3.5805,-3.6182,-3.6405,-3.6405,-3.6405,-3.6405,-3.6405,-3.6405,-3.6405,-3.6405,-3.6405,-3.6405,-3.6405,-3.6405,-3.6405,-3.6405,-3.6323,-3.6513,-3.6866,-2.8291,-2.8291,-2.8398,-2.8674,-2.8684,-2.8781,-2.9026,-2.9079,-2.9079,-2.9079,-2.8978,-2.8696,-2.8238,-2.8017,-2.7748,-2.7351,-2.7309,-2.7309,-2.7309,-2.6392,-2.5704,-2.52,-2.52,-2.52,-2.52,-2.52,-2.52,-2.52,-2.52,-2.52,-2.5189,-2.4701,-2.4499,-2.4478,-2.4,-2.3798,-2.3798,-2.3798,-2.3919,-2.4118,-2.4107,-2.4277,-2.4497,-2.4486,-2.4486,-2.4486,-2.4486,-2.4583,-2.4697,-2.4697,-2.4854,-2.5021,-2.5021,-2.52,-2.5406,-2.5406,-2.5561,-2.5727,-2.5727,-2.5727,-2.5793,-2.6191,-2.6306,-2.6447,-2.6999,-2.7129,-2.727,-2.7787,-2.7893,-2.7893,-2.7893,-2.7893,-2.7962,-2.8179,-2.8219,-2.8259,-2.8471,-2.851,-2.851,-2.851,-2.851,-2.8727,-2.9256,-2.9304,-2.9749,-3.0838,-3.0922,-3.125,-3.1969,-3.2771,-3.3288,-3.3499,-3.4624,-3.5288,-3.5508,-3.5508,-3.583,-3.6405,-3.6405,-3.6405,-3.6405,-3.6405,-3.6405,-3.6405,-3.6405,-3.6405,-3.6405,-3.6405,-3.6405,-3.6405,-3.6405,-3.6405,-3.6358,-3.6098,-3.6015,-3.6042,-2.8291,-2.8291,-2.8344,-2.8408,-2.8408,-2.8451,-2.8504,-2.8717,-2.8834,-2.8834,-2.8926,-2.8884,-2.844,-2.8036,-2.7631,-2.7185,-2.6909,-2.6604,-2.628,-2.6006,-2.5503,-2.474,-2.4705,-2.47,-2.47,-2.47,-2.4786,-2.4988,-2.4988,-2.5073,-2.52,-2.5062,-2.4998,-2.4998,-2.4849,-2.4785,-2.4785,-2.4785,-2.4827,-2.4836,-2.4527,-2.451,-2.467,-2.4346,-2.4357,-2.4486,-2.4486,-2.4723,-2.5066,-2.5066,-2.5418,-2.5869,-2.6073,-2.6195,-2.6235,-2.6235,-2.6368,-2.653,-2.653,-2.6662,-2.6731,-2.6678,-2.6663,-2.6854,-2.75,-2.7658,-2.7705,-2.7857,-2.7893,-2.7893,-2.7893,-2.7893,-2.7921,-2.8002,-2.8002,-2.8002,-2.8082,-2.8082,-2.8082,-2.8082,-2.8552,-2.8908,-2.9063,-2.9882,-3.0585,-3.0898,-3.1259,-3.1717,-3.2316,-3.271,-3.3305,-3.4108,-3.4637,-3.5135,-3.5565,-3.5931,-3.6194,-3.6405,-3.6405,-3.6405,-3.6405,-3.6405,-3.6405,-3.6405,-3.6405,-3.6405,-3.6405,-3.6405,-3.6275,-3.6098,-3.6098,-3.6003,-3.5847,-3.5764,-3.5716,-3.579,-2.8291,-2.8291,-2.8291,-2.8291,-2.8291,-2.8291,-2.8291,-2.8461,-2.8514,-2.8514,-2.8781,-2.876,-2.8331,-2.7984,-2.7633,-2.7131,-2.6748,-2.6386,-2.6114,-2.5876,-2.5544,-2.5058,-2.4666,-2.4423,-2.4239,-2.4325,-2.4454,-2.4615,-2.47,-2.4786,-2.4914,-2.4914,-2.4914,-2.4914,-2.4914,-2.4914,-2.4914,-2.4914,-2.4988,-2.5052,-2.4777,-2.4785,-2.495,-2.463,-2.4616,-2.4789,-2.4789,-2.5014,-2.5376,-2.5376,-2.5697,-2.6115,-2.6271,-2.6396,-2.6437,-2.6437,-2.6603,-2.6768,-2.6768,-2.685,-2.6905,-2.676,-2.6852,-2.7053,-2.7528,-2.7598,-2.7598,-2.7598,-2.7598,-2.7598,-2.7598,-2.7598,-2.7638,-2.7748,-2.7748,-2.7788,-2.7893,-2.7893,-2.7963,-2.8151,-2.8568,-2.8994,-2.942,-3.0165,-3.0747,-3.1037,-3.1641,-3.2142,-3.2478,-3.2967,-3.3613,-3.4361,-3.4782,-3.5146,-3.562,-3.5943,-3.6086,-3.6086,-3.6086,-3.6086,-3.6086,-3.6086,-3.6086,-3.6086,-3.6086,-3.6086,-3.6086,-3.6086,-3.5991,-3.5812,-3.5812,-3.5716,-3.5572,-3.5476,-3.5416,-3.5465,-2.8237,-2.8291,-2.8291,-2.8291,-2.8291,-2.8291,-2.8291,-2.8291,-2.8291,-2.8291,-2.8514,-2.8526,-2.8068,-2.789,-2.7593,-2.7142,-2.6671,-2.6448,-2.6448,-2.6019,-2.5779,-2.5738,-2.4967,-2.4315,-2.3824,-2.4044,-2.4163,-2.4163,-2.4325,-2.4454,-2.4454,-2.4454,-2.4454,-2.4454,-2.4454,-2.4454,-2.4454,-2.4454,-2.4615,-2.4818,-2.4861,-2.4988,-2.5158,-2.5158,-2.52,-2.52,-2.52,-2.538,-2.5559,-2.5559,-2.5686,-2.5853,-2.5853,-2.5979,-2.6146,-2.6157,-2.6354,-2.6561,-2.6561,-2.6603,-2.6603,-2.6603,-2.6891,-2.7149,-2.719,-2.719,-2.719,-2.719,-2.719,-2.719,-2.719,-2.719,-2.726,-2.7441,-2.7482,-2.7574,-2.78,-2.7887,-2.8087,-2.8492,-2.8621,-2.9096,-3.0071,-3.0255,-3.0555,-3.1226,-3.1998,-3.2469,-3.2517,-3.3454,-3.4113,-3.4446,-3.492,-3.5271,-3.5524,-3.5524,-3.5572,-3.562,-3.562,-3.562,-3.562,-3.562,-3.562,-3.562,-3.562,-3.562,-3.562,-3.562,-3.5572,-3.5572,-3.5572,-3.5572,-3.5524,-3.5271,-3.5175,-3.5126,-2.796,-2.8184,-2.8291,-2.8291,-2.8291,-2.8291,-2.8291,-2.8291,-2.8291,-2.8291,-2.8344,-2.8368,-2.827,-2.7931,-2.755,-2.7057,-2.632,-2.5878,-2.5878,-2.579,-2.5583,-2.5277,-2.508,-2.4618,-2.3796,-2.3847,-2.3894,-2.3894,-2.3927,-2.397,-2.397,-2.397,-2.397,-2.397,-2.397,-2.397,-2.397,-2.4196,-2.4282,-2.4368,-2.454,-2.4743,-2.4988,-2.4988,-2.5073,-2.52,-2.52,-2.5242,-2.5295,-2.5295,-2.5338,-2.5369,-2.5601,-2.5686,-2.577,-2.5906,-2.6104,-2.6271,-2.6271,-2.6437,-2.6603,-2.6603,-2.6685,-2.6768,-2.6933,-2.7108,-2.719,-2.719,-2.719,-2.719,-2.719,-2.719,-2.7231,-2.726,-2.726,-2.7301,-2.7353,-2.7688,-2.8029,-2.8133,-2.8966,-2.961,-2.9843,-3.0472,-3.0899,-3.105,-3.176,-3.2373,-3.2778,-3.3599,-3.4234,-3.4691,-3.4824,-3.492,-3.4981,-3.4981,-3.5175,-3.562,-3.562,-3.562,-3.562,-3.562,-3.562,-3.562,-3.562,-3.562,-3.562,-3.562,-3.5476,-3.5271,-3.5271,-3.5175,-3.4981,-3.4932,-3.4872,-3.4884,-2.7638,-2.7906,-2.813,-2.813,-2.8237,-2.8291,-2.8291,-2.8291,-2.8291,-2.8291,-2.8291,-2.8291,-2.8291,-2.792,-2.7412,-2.6768,-2.6309,-2.5967,-2.5703,-2.5693,-2.5635,-2.54,-2.5176,-2.491,-2.4414,-2.3994,-2.3745,-2.3677,-2.3754,-2.3797,-2.3797,-2.3797,-2.3797,-2.3797,-2.3797,-2.3797,-2.3797,-2.3937,-2.4024,-2.4024,-2.411,-2.4315,-2.4572,-2.4572,-2.47,-2.4871,-2.4871,-2.4956,-2.5105,-2.5423,-2.553,-2.5615,-2.5947,-2.5905,-2.5765,-2.5851,-2.5912,-2.5895,-2.5895,-2.6104,-2.6271,-2.6271,-2.6354,-2.6479,-2.6685,-2.685,-2.6891,-2.6891,-2.6891,-2.6891,-2.6891,-2.6891,-2.6971,-2.722,-2.7254,-2.7376,-2.7698,-2.8003,-2.8308,-2.8677,-2.9247,-2.975,-2.9981,-3.0483,-3.0826,-3.0826,-3.1746,-3.2485,-3.2898,-3.3696,-3.4402,-3.4775,-3.4775,-3.4775,-3.4775,-3.4775,-3.492,-3.5223,-3.5223,-3.5223,-3.5223,-3.5223,-3.5223,-3.5223,-3.5223,-3.5223,-3.5223,-3.5223,-3.5126,-3.503,-3.503,-3.4932,-3.4775,-3.4775,-3.4726,-3.4628,-2.7269,-2.7584,-2.7799,-2.7799,-2.8023,-2.813,-2.813,-2.813,-2.813,-2.813,-2.813,-2.813,-2.813,-2.7814,-2.725,-2.6412,-2.6276,-2.6052,-2.5567,-2.5538,-2.5538,-2.5538,-2.5227,-2.5042,-2.4974,-2.4237,-2.3769,-2.3569,-2.3664,-2.3667,-2.3667,-2.3667,-2.3667,-2.3667,-2.3667,-2.3667,-2.3667,-2.3711,-2.3754,-2.3754,-2.3797,-2.3927,-2.411,-2.411,-2.4249,-2.4421,-2.4504,-2.4781,-2.5154,-2.5717,-2.5899,-2.5962,-2.6398,-2.625,-2.5942,-2.603,-2.5894,-2.5765,-2.5765,-2.5892,-2.602,-2.602,-2.6189,-2.64,-2.661,-2.6643,-2.6603,-2.6603,-2.667,-2.6726,-2.6726,-2.6794,-2.6954,-2.7368,-2.7435,-2.7613,-2.8245,-2.8424,-2.8716,-2.9358,-2.9528,-2.978,-3.0181,-3.0397,-3.0567,-3.066,-3.1763,-3.2571,-3.29,-3.3813,-3.4433,-3.4689,-3.4726,-3.4726,-3.4726,-3.4787,-3.4775,-3.4775,-3.4775,-3.4775,-3.4775,-3.4775,-3.4775,-3.4775,-3.4775,-3.4775,-3.4775,-3.4775,-3.4775,-3.4775,-3.4775,-3.4775,-3.4738,-3.4689,-3.4543,-3.4347,-2.7043,-2.726,-2.7485,-2.7485,-2.7485,-2.7539,-2.7539,-2.7539,-2.7539,-2.7539,-2.7539,-2.7539,-2.7539,-2.7169,-2.6731,-2.6288,-2.5857,-2.5477,-2.5058,-2.499,-2.499,-2.499,-2.4982,-2.4783,-2.4431,-2.4307,-2.4094,-2.3746,-2.3374,-2.3188,-2.3188,-2.3188,-2.3188,-2.3188,-2.3188,-2.3188,-2.3232,-2.345,-2.3547,-2.3547,-2.3711,-2.3841,-2.3841,-2.3841,-2.3884,-2.3978,-2.4601,-2.5245,-2.5799,-2.5861,-2.5882,-2.5927,-2.6169,-2.6193,-2.6186,-2.643,-2.6477,-2.6478,-2.6478,-2.6468,-2.6523,-2.6523,-2.6711,-2.6898,-2.6942,-2.6764,-2.6603,-2.6603,-2.6909,-2.72,-2.72,-2.7558,-2.7829,-2.7896,-2.7907,-2.7929,-2.804,-2.8399,-2.8768,-2.9092,-2.9714,-3.0147,-3.0204,-3.0216,-3.0457,-3.0916,-3.1704,-3.2345,-3.2883,-3.3686,-3.4174,-3.4162,-3.4347,-3.4433,-3.4433,-3.4677,-3.4775,-3.4775,-3.4775,-3.4775,-3.4775,-3.4775,-3.4775,-3.4775,-3.4775,-3.4775,-3.4775,-3.4775,-3.4775,-3.4775,-3.4775,-3.4677,-3.4433,-3.4261,-3.4174,-3.4125,-2.6791,-2.6999,-2.7152,-2.7152,-2.7323,-2.7377,-2.7377,-2.7377,-2.7377,-2.7377,-2.7377,-2.7377,-2.7377,-2.7217,-2.6892,-2.6229,-2.6002,-2.5623,-2.493,-2.4883,-2.4883,-2.4883,-2.4883,-2.4798,-2.4618,-2.4391,-2.4241,-2.4094,-2.3376,-2.2926,-2.2696,-2.2696,-2.2696,-2.2696,-2.2696,-2.2696,-2.274,-2.3013,-2.311,-2.3154,-2.3319,-2.3493,-2.3654,-2.3893,-2.4081,-2.4273,-2.4805,-2.5314,-2.57,-2.5956,-2.6176,-2.6356,-2.6707,-2.6603,-2.6441,-2.6553,-2.649,-2.638,-2.638,-2.6481,-2.6615,-2.6615,-2.667,-2.676,-2.676,-2.6791,-2.6876,-2.6951,-2.716,-2.7314,-2.7314,-2.7491,-2.7679,-2.7955,-2.7999,-2.8143,-2.8554,-2.8811,-2.9024,-2.9297,-2.9625,-2.9863,-3.0011,-3.0011,-3.032,-3.0927,-3.1562,-3.22,-3.2891,-3.3536,-3.3927,-3.4125,-3.4211,-3.4211,-3.4211,-3.4445,-3.458,-3.458,-3.4726,-3.4775,-3.4775,-3.4775,-3.4775,-3.4775,-3.4775,-3.4775,-3.4775,-3.4628,-3.458,-3.458,-3.4445,-3.4359,-3.4211,-3.4125,-3.4026,-3.3878]}]]